﻿<?xml version="1.0" encoding="UTF-8" standalone="no" ?>
<gpx xmlns="http://www.topografix.com/GPX/1/1" creator="CompeGPS" version="1.1" xmlns:xsi="http://www.w3.org/2001/XMLSchema-instance" xsi:schemaLocation="http://www.topografix.com/GPX/1/1 http://www.topografix.com/GPX/1/1/gpx.xsd">
  <metadata>
    <link href="http://www.compegps.com">
      <text>CompeGPS TEAM, SL</text>
    </link>
    <time>2021-11-11T09:48:30Z</time>
    <bounds maxlat="39.452256" maxlon="-5.282020" minlat="39.148227" minlon="-6.250480"/>
  </metadata>
  <trk>
    <name>CG Camino Visigodo</name>
    <desc>Camino Visigodo</desc>
    <trkseg>
      <trkpt lat="39.154980" lon="-6.250460">
        <ele>450.1</ele>
        <time>1970-01-01T00:00:00Z</time>
      </trkpt>
      <trkpt lat="39.154940" lon="-6.250480">
        <ele>449.9</ele>
        <time>1970-01-01T00:00:00Z</time>
      </trkpt>
      <trkpt lat="39.154840" lon="-6.250380">
        <ele>449.9</ele>
        <time>1970-01-01T00:00:00Z</time>
      </trkpt>
      <trkpt lat="39.154820" lon="-6.250360">
        <ele>449.9</ele>
        <time>1970-01-01T00:00:00Z</time>
      </trkpt>
      <trkpt lat="39.154820" lon="-6.250360">
        <ele>449.9</ele>
        <time>1970-01-01T00:00:00Z</time>
      </trkpt>
      <trkpt lat="39.154770" lon="-6.250220">
        <ele>450.0</ele>
        <time>1970-01-01T00:00:00Z</time>
      </trkpt>
      <trkpt lat="39.154520" lon="-6.249780">
        <ele>451.2</ele>
        <time>1970-01-01T00:00:00Z</time>
      </trkpt>
      <trkpt lat="39.154180" lon="-6.249480">
        <ele>453.1</ele>
        <time>1970-01-01T00:00:00Z</time>
      </trkpt>
      <trkpt lat="39.153960" lon="-6.249210">
        <ele>454.8</ele>
        <time>1970-01-01T00:00:00Z</time>
      </trkpt>
      <trkpt lat="39.153680" lon="-6.249010">
        <ele>456.4</ele>
        <time>1970-01-01T00:00:00Z</time>
      </trkpt>
      <trkpt lat="39.153530" lon="-6.248870">
        <ele>457.7</ele>
        <time>1970-01-01T00:00:00Z</time>
      </trkpt>
      <trkpt lat="39.153060" lon="-6.248270">
        <ele>463.3</ele>
        <time>1970-01-01T00:00:00Z</time>
      </trkpt>
      <trkpt lat="39.152660" lon="-6.247750">
        <ele>464.8</ele>
        <time>1970-01-01T00:00:00Z</time>
      </trkpt>
      <trkpt lat="39.152510" lon="-6.247510">
        <ele>466.1</ele>
        <time>1970-01-01T00:00:00Z</time>
      </trkpt>
      <trkpt lat="39.152390" lon="-6.247350">
        <ele>467.2</ele>
        <time>1970-01-01T00:00:00Z</time>
      </trkpt>
      <trkpt lat="39.151930" lon="-6.246680">
        <ele>473.0</ele>
        <time>1970-01-01T00:00:00Z</time>
      </trkpt>
      <trkpt lat="39.151380" lon="-6.245760">
        <ele>476.3</ele>
        <time>1970-01-01T00:00:00Z</time>
      </trkpt>
      <trkpt lat="39.151080" lon="-6.245120">
        <ele>474.1</ele>
        <time>1970-01-01T00:00:00Z</time>
      </trkpt>
      <trkpt lat="39.150894" lon="-6.244864">
        <ele>474.0</ele>
        <time>1970-01-01T00:00:00Z</time>
      </trkpt>
      <trkpt lat="39.150783" lon="-6.244645">
        <ele>474.1</ele>
        <time>1970-01-01T00:00:00Z</time>
      </trkpt>
      <trkpt lat="39.150780" lon="-6.244450">
        <ele>473.9</ele>
        <time>1970-01-01T00:00:00Z</time>
      </trkpt>
      <trkpt lat="39.150830" lon="-6.244240">
        <ele>473.0</ele>
        <time>1970-01-01T00:00:00Z</time>
      </trkpt>
      <trkpt lat="39.150950" lon="-6.244130">
        <ele>472.5</ele>
        <time>1970-01-01T00:00:00Z</time>
      </trkpt>
      <trkpt lat="39.151500" lon="-6.243890">
        <ele>474.2</ele>
        <time>1970-01-01T00:00:00Z</time>
      </trkpt>
      <trkpt lat="39.151710" lon="-6.243730">
        <ele>477.0</ele>
        <time>1970-01-01T00:00:00Z</time>
      </trkpt>
      <trkpt lat="39.152050" lon="-6.243230">
        <ele>479.2</ele>
        <time>1970-01-01T00:00:00Z</time>
      </trkpt>
      <trkpt lat="39.152260" lon="-6.242730">
        <ele>476.9</ele>
        <time>1970-01-01T00:00:00Z</time>
      </trkpt>
      <trkpt lat="39.152330" lon="-6.242660">
        <ele>476.9</ele>
        <time>1970-01-01T00:00:00Z</time>
      </trkpt>
      <trkpt lat="39.152510" lon="-6.242510">
        <ele>478.0</ele>
        <time>1970-01-01T00:00:00Z</time>
      </trkpt>
      <trkpt lat="39.152910" lon="-6.242300">
        <ele>482.6</ele>
        <time>1970-01-01T00:00:00Z</time>
      </trkpt>
      <trkpt lat="39.153220" lon="-6.242440">
        <ele>489.6</ele>
        <time>1970-01-01T00:00:00Z</time>
      </trkpt>
      <trkpt lat="39.153590" lon="-6.242500">
        <ele>494.3</ele>
        <time>1970-01-01T00:00:00Z</time>
      </trkpt>
      <trkpt lat="39.153730" lon="-6.242520">
        <ele>495.4</ele>
        <time>1970-01-01T00:00:00Z</time>
      </trkpt>
      <trkpt lat="39.154160" lon="-6.242510">
        <ele>496.8</ele>
        <time>1970-01-01T00:00:00Z</time>
      </trkpt>
      <trkpt lat="39.154570" lon="-6.242670">
        <ele>496.2</ele>
        <time>1970-01-01T00:00:00Z</time>
      </trkpt>
      <trkpt lat="39.155040" lon="-6.242730">
        <ele>496.4</ele>
        <time>1970-01-01T00:00:00Z</time>
      </trkpt>
      <trkpt lat="39.155160" lon="-6.242640">
        <ele>496.0</ele>
        <time>1970-01-01T00:00:00Z</time>
      </trkpt>
      <trkpt lat="39.155130" lon="-6.242660">
        <ele>496.1</ele>
        <time>1970-01-01T00:00:00Z</time>
      </trkpt>
      <trkpt lat="39.155160" lon="-6.242430">
        <ele>495.8</ele>
        <time>1970-01-01T00:00:00Z</time>
      </trkpt>
      <trkpt lat="39.155170" lon="-6.241960">
        <ele>495.5</ele>
        <time>1970-01-01T00:00:00Z</time>
      </trkpt>
      <trkpt lat="39.154970" lon="-6.241560">
        <ele>494.4</ele>
        <time>1970-01-01T00:00:00Z</time>
      </trkpt>
      <trkpt lat="39.154890" lon="-6.241410">
        <ele>493.7</ele>
        <time>1970-01-01T00:00:00Z</time>
      </trkpt>
      <trkpt lat="39.154610" lon="-6.240940">
        <ele>491.2</ele>
        <time>1970-01-01T00:00:00Z</time>
      </trkpt>
      <trkpt lat="39.154300" lon="-6.240570">
        <ele>489.0</ele>
        <time>1970-01-01T00:00:00Z</time>
      </trkpt>
      <trkpt lat="39.154230" lon="-6.240150">
        <ele>489.1</ele>
        <time>1970-01-01T00:00:00Z</time>
      </trkpt>
      <trkpt lat="39.154280" lon="-6.239780">
        <ele>490.2</ele>
        <time>1970-01-01T00:00:00Z</time>
      </trkpt>
      <trkpt lat="39.154260" lon="-6.239680">
        <ele>490.6</ele>
        <time>1970-01-01T00:00:00Z</time>
      </trkpt>
      <trkpt lat="39.154170" lon="-6.239600">
        <ele>490.4</ele>
        <time>1970-01-01T00:00:00Z</time>
      </trkpt>
      <trkpt lat="39.153960" lon="-6.239550">
        <ele>488.9</ele>
        <time>1970-01-01T00:00:00Z</time>
      </trkpt>
      <trkpt lat="39.153830" lon="-6.239390">
        <ele>488.0</ele>
        <time>1970-01-01T00:00:00Z</time>
      </trkpt>
      <trkpt lat="39.153800" lon="-6.239160">
        <ele>488.7</ele>
        <time>1970-01-01T00:00:00Z</time>
      </trkpt>
      <trkpt lat="39.153730" lon="-6.238820">
        <ele>489.3</ele>
        <time>1970-01-01T00:00:00Z</time>
      </trkpt>
      <trkpt lat="39.153660" lon="-6.238330">
        <ele>491.6</ele>
        <time>1970-01-01T00:00:00Z</time>
      </trkpt>
      <trkpt lat="39.153440" lon="-6.238310">
        <ele>491.4</ele>
        <time>1970-01-01T00:00:00Z</time>
      </trkpt>
      <trkpt lat="39.153070" lon="-6.238480">
        <ele>488.5</ele>
        <time>1970-01-01T00:00:00Z</time>
      </trkpt>
      <trkpt lat="39.152980" lon="-6.238530">
        <ele>487.7</ele>
        <time>1970-01-01T00:00:00Z</time>
      </trkpt>
      <trkpt lat="39.152450" lon="-6.238470">
        <ele>484.9</ele>
        <time>1970-01-01T00:00:00Z</time>
      </trkpt>
      <trkpt lat="39.152240" lon="-6.238440">
        <ele>483.5</ele>
        <time>1970-01-01T00:00:00Z</time>
      </trkpt>
      <trkpt lat="39.152060" lon="-6.238330">
        <ele>483.4</ele>
        <time>1970-01-01T00:00:00Z</time>
      </trkpt>
      <trkpt lat="39.152010" lon="-6.238300">
        <ele>483.3</ele>
        <time>1970-01-01T00:00:00Z</time>
      </trkpt>
      <trkpt lat="39.152040" lon="-6.238300">
        <ele>483.6</ele>
        <time>1970-01-01T00:00:00Z</time>
      </trkpt>
      <trkpt lat="39.152040" lon="-6.238300">
        <ele>483.6</ele>
        <time>1970-01-01T00:00:00Z</time>
      </trkpt>
      <trkpt lat="39.151960" lon="-6.238170">
        <ele>484.6</ele>
        <time>1970-01-01T00:00:00Z</time>
      </trkpt>
      <trkpt lat="39.151850" lon="-6.238050">
        <ele>485.2</ele>
        <time>1970-01-01T00:00:00Z</time>
      </trkpt>
      <trkpt lat="39.151800" lon="-6.237930">
        <ele>486.1</ele>
        <time>1970-01-01T00:00:00Z</time>
      </trkpt>
      <trkpt lat="39.151760" lon="-6.237780">
        <ele>487.0</ele>
        <time>1970-01-01T00:00:00Z</time>
      </trkpt>
      <trkpt lat="39.151760" lon="-6.237760">
        <ele>487.2</ele>
        <time>1970-01-01T00:00:00Z</time>
      </trkpt>
      <trkpt lat="39.151740" lon="-6.237810">
        <ele>486.5</ele>
        <time>1970-01-01T00:00:00Z</time>
      </trkpt>
      <trkpt lat="39.151730" lon="-6.237420">
        <ele>490.0</ele>
        <time>1970-01-01T00:00:00Z</time>
      </trkpt>
      <trkpt lat="39.151720" lon="-6.237430">
        <ele>489.7</ele>
        <time>1970-01-01T00:00:00Z</time>
      </trkpt>
      <trkpt lat="39.152020" lon="-6.237020">
        <ele>494.6</ele>
        <time>1970-01-01T00:00:00Z</time>
      </trkpt>
      <trkpt lat="39.152110" lon="-6.236750">
        <ele>495.0</ele>
        <time>1970-01-01T00:00:00Z</time>
      </trkpt>
      <trkpt lat="39.152340" lon="-6.236240">
        <ele>494.3</ele>
        <time>1970-01-01T00:00:00Z</time>
      </trkpt>
      <trkpt lat="39.152530" lon="-6.236000">
        <ele>494.5</ele>
        <time>1970-01-01T00:00:00Z</time>
      </trkpt>
      <trkpt lat="39.152730" lon="-6.235310">
        <ele>495.9</ele>
        <time>1970-01-01T00:00:00Z</time>
      </trkpt>
      <trkpt lat="39.152750" lon="-6.235050">
        <ele>497.6</ele>
        <time>1970-01-01T00:00:00Z</time>
      </trkpt>
      <trkpt lat="39.152570" lon="-6.234820">
        <ele>495.9</ele>
        <time>1970-01-01T00:00:00Z</time>
      </trkpt>
      <trkpt lat="39.152500" lon="-6.234760">
        <ele>495.1</ele>
        <time>1970-01-01T00:00:00Z</time>
      </trkpt>
      <trkpt lat="39.152430" lon="-6.234750">
        <ele>493.8</ele>
        <time>1970-01-01T00:00:00Z</time>
      </trkpt>
      <trkpt lat="39.152030" lon="-6.234680">
        <ele>486.4</ele>
        <time>1970-01-01T00:00:00Z</time>
      </trkpt>
      <trkpt lat="39.151790" lon="-6.234460">
        <ele>486.2</ele>
        <time>1970-01-01T00:00:00Z</time>
      </trkpt>
      <trkpt lat="39.151360" lon="-6.234160">
        <ele>485.6</ele>
        <time>1970-01-01T00:00:00Z</time>
      </trkpt>
      <trkpt lat="39.151180" lon="-6.233940">
        <ele>487.0</ele>
        <time>1970-01-01T00:00:00Z</time>
      </trkpt>
      <trkpt lat="39.151020" lon="-6.233860">
        <ele>486.3</ele>
        <time>1970-01-01T00:00:00Z</time>
      </trkpt>
      <trkpt lat="39.150640" lon="-6.233690">
        <ele>485.2</ele>
        <time>1970-01-01T00:00:00Z</time>
      </trkpt>
      <trkpt lat="39.150520" lon="-6.233580">
        <ele>486.0</ele>
        <time>1970-01-01T00:00:00Z</time>
      </trkpt>
      <trkpt lat="39.150280" lon="-6.233410">
        <ele>487.4</ele>
        <time>1970-01-01T00:00:00Z</time>
      </trkpt>
      <trkpt lat="39.150120" lon="-6.233230">
        <ele>490.4</ele>
        <time>1970-01-01T00:00:00Z</time>
      </trkpt>
      <trkpt lat="39.149670" lon="-6.232650">
        <ele>498.5</ele>
        <time>1970-01-01T00:00:00Z</time>
      </trkpt>
      <trkpt lat="39.149410" lon="-6.232150">
        <ele>506.3</ele>
        <time>1970-01-01T00:00:00Z</time>
      </trkpt>
      <trkpt lat="39.149250" lon="-6.231810">
        <ele>510.1</ele>
        <time>1970-01-01T00:00:00Z</time>
      </trkpt>
      <trkpt lat="39.149090" lon="-6.231420">
        <ele>510.5</ele>
        <time>1970-01-01T00:00:00Z</time>
      </trkpt>
      <trkpt lat="39.149060" lon="-6.231370">
        <ele>510.1</ele>
        <time>1970-01-01T00:00:00Z</time>
      </trkpt>
      <trkpt lat="39.148800" lon="-6.230610">
        <ele>503.7</ele>
        <time>1970-01-01T00:00:00Z</time>
      </trkpt>
      <trkpt lat="39.148710" lon="-6.229680">
        <ele>500.6</ele>
        <time>1970-01-01T00:00:00Z</time>
      </trkpt>
      <trkpt lat="39.148780" lon="-6.228840">
        <ele>500.4</ele>
        <time>1970-01-01T00:00:00Z</time>
      </trkpt>
      <trkpt lat="39.148700" lon="-6.228510">
        <ele>498.8</ele>
        <time>1970-01-01T00:00:00Z</time>
      </trkpt>
      <trkpt lat="39.148500" lon="-6.227570">
        <ele>492.6</ele>
        <time>1970-01-01T00:00:00Z</time>
      </trkpt>
      <trkpt lat="39.148490" lon="-6.227530">
        <ele>491.9</ele>
        <time>1970-01-01T00:00:00Z</time>
      </trkpt>
      <trkpt lat="39.148450" lon="-6.227340">
        <ele>488.2</ele>
        <time>1970-01-01T00:00:00Z</time>
      </trkpt>
      <trkpt lat="39.148460" lon="-6.227100">
        <ele>484.2</ele>
        <time>1970-01-01T00:00:00Z</time>
      </trkpt>
      <trkpt lat="39.148470" lon="-6.226980">
        <ele>482.1</ele>
        <time>1970-01-01T00:00:00Z</time>
      </trkpt>
      <trkpt lat="39.148510" lon="-6.226870">
        <ele>480.5</ele>
        <time>1970-01-01T00:00:00Z</time>
      </trkpt>
      <trkpt lat="39.148620" lon="-6.226610">
        <ele>475.8</ele>
        <time>1970-01-01T00:00:00Z</time>
      </trkpt>
      <trkpt lat="39.148700" lon="-6.226510">
        <ele>475.0</ele>
        <time>1970-01-01T00:00:00Z</time>
      </trkpt>
      <trkpt lat="39.149230" lon="-6.225940">
        <ele>474.0</ele>
        <time>1970-01-01T00:00:00Z</time>
      </trkpt>
      <trkpt lat="39.149420" lon="-6.225730">
        <ele>474.7</ele>
        <time>1970-01-01T00:00:00Z</time>
      </trkpt>
      <trkpt lat="39.149470" lon="-6.225570">
        <ele>474.5</ele>
        <time>1970-01-01T00:00:00Z</time>
      </trkpt>
      <trkpt lat="39.149630" lon="-6.224970">
        <ele>471.9</ele>
        <time>1970-01-01T00:00:00Z</time>
      </trkpt>
      <trkpt lat="39.149680" lon="-6.224870">
        <ele>471.9</ele>
        <time>1970-01-01T00:00:00Z</time>
      </trkpt>
      <trkpt lat="39.149710" lon="-6.224830">
        <ele>471.7</ele>
        <time>1970-01-01T00:00:00Z</time>
      </trkpt>
      <trkpt lat="39.149890" lon="-6.224500">
        <ele>468.8</ele>
        <time>1970-01-01T00:00:00Z</time>
      </trkpt>
      <trkpt lat="39.150250" lon="-6.223630">
        <ele>457.8</ele>
        <time>1970-01-01T00:00:00Z</time>
      </trkpt>
      <trkpt lat="39.150410" lon="-6.223290">
        <ele>451.6</ele>
        <time>1970-01-01T00:00:00Z</time>
      </trkpt>
      <trkpt lat="39.150440" lon="-6.223280">
        <ele>450.9</ele>
        <time>1970-01-01T00:00:00Z</time>
      </trkpt>
      <trkpt lat="39.150490" lon="-6.223270">
        <ele>449.9</ele>
        <time>1970-01-01T00:00:00Z</time>
      </trkpt>
      <trkpt lat="39.150950" lon="-6.223310">
        <ele>445.1</ele>
        <time>1970-01-01T00:00:00Z</time>
      </trkpt>
      <trkpt lat="39.151180" lon="-6.223190">
        <ele>443.1</ele>
        <time>1970-01-01T00:00:00Z</time>
      </trkpt>
      <trkpt lat="39.151910" lon="-6.222240">
        <ele>431.1</ele>
        <time>1970-01-01T00:00:00Z</time>
      </trkpt>
      <trkpt lat="39.152500" lon="-6.221500">
        <ele>426.9</ele>
        <time>1970-01-01T00:00:00Z</time>
      </trkpt>
      <trkpt lat="39.152750" lon="-6.221370">
        <ele>427.6</ele>
        <time>1970-01-01T00:00:00Z</time>
      </trkpt>
      <trkpt lat="39.152760" lon="-6.221380">
        <ele>427.7</ele>
        <time>1970-01-01T00:00:00Z</time>
      </trkpt>
      <trkpt lat="39.152770" lon="-6.221370">
        <ele>427.7</ele>
        <time>1970-01-01T00:00:00Z</time>
      </trkpt>
      <trkpt lat="39.152990" lon="-6.221450">
        <ele>429.3</ele>
        <time>1970-01-01T00:00:00Z</time>
      </trkpt>
      <trkpt lat="39.153690" lon="-6.221680">
        <ele>433.5</ele>
        <time>1970-01-01T00:00:00Z</time>
      </trkpt>
      <trkpt lat="39.153750" lon="-6.221680">
        <ele>433.9</ele>
        <time>1970-01-01T00:00:00Z</time>
      </trkpt>
      <trkpt lat="39.153920" lon="-6.221640">
        <ele>434.8</ele>
        <time>1970-01-01T00:00:00Z</time>
      </trkpt>
      <trkpt lat="39.154240" lon="-6.221530">
        <ele>435.4</ele>
        <time>1970-01-01T00:00:00Z</time>
      </trkpt>
      <trkpt lat="39.154480" lon="-6.221540">
        <ele>437.3</ele>
        <time>1970-01-01T00:00:00Z</time>
      </trkpt>
      <trkpt lat="39.154690" lon="-6.221530">
        <ele>437.8</ele>
        <time>1970-01-01T00:00:00Z</time>
      </trkpt>
      <trkpt lat="39.155020" lon="-6.221480">
        <ele>438.7</ele>
        <time>1970-01-01T00:00:00Z</time>
      </trkpt>
      <trkpt lat="39.155230" lon="-6.221480">
        <ele>439.3</ele>
        <time>1970-01-01T00:00:00Z</time>
      </trkpt>
      <trkpt lat="39.155460" lon="-6.221530">
        <ele>439.9</ele>
        <time>1970-01-01T00:00:00Z</time>
      </trkpt>
      <trkpt lat="39.155610" lon="-6.221560">
        <ele>440.6</ele>
        <time>1970-01-01T00:00:00Z</time>
      </trkpt>
      <trkpt lat="39.156610" lon="-6.221360">
        <ele>445.0</ele>
        <time>1970-01-01T00:00:00Z</time>
      </trkpt>
      <trkpt lat="39.157210" lon="-6.221350">
        <ele>451.1</ele>
        <time>1970-01-01T00:00:00Z</time>
      </trkpt>
      <trkpt lat="39.157970" lon="-6.221400">
        <ele>457.9</ele>
        <time>1970-01-01T00:00:00Z</time>
      </trkpt>
      <trkpt lat="39.158440" lon="-6.221390">
        <ele>459.0</ele>
        <time>1970-01-01T00:00:00Z</time>
      </trkpt>
      <trkpt lat="39.159450" lon="-6.221110">
        <ele>449.3</ele>
        <time>1970-01-01T00:00:00Z</time>
      </trkpt>
      <trkpt lat="39.159850" lon="-6.221110">
        <ele>444.2</ele>
        <time>1970-01-01T00:00:00Z</time>
      </trkpt>
      <trkpt lat="39.160790" lon="-6.220900">
        <ele>438.4</ele>
        <time>1970-01-01T00:00:00Z</time>
      </trkpt>
      <trkpt lat="39.161860" lon="-6.220810">
        <ele>450.3</ele>
        <time>1970-01-01T00:00:00Z</time>
      </trkpt>
      <trkpt lat="39.161950" lon="-6.220790">
        <ele>451.8</ele>
        <time>1970-01-01T00:00:00Z</time>
      </trkpt>
      <trkpt lat="39.162820" lon="-6.220040">
        <ele>454.9</ele>
        <time>1970-01-01T00:00:00Z</time>
      </trkpt>
      <trkpt lat="39.163860" lon="-6.219400">
        <ele>453.6</ele>
        <time>1970-01-01T00:00:00Z</time>
      </trkpt>
      <trkpt lat="39.164740" lon="-6.218720">
        <ele>445.6</ele>
        <time>1970-01-01T00:00:00Z</time>
      </trkpt>
      <trkpt lat="39.164820" lon="-6.218680">
        <ele>444.9</ele>
        <time>1970-01-01T00:00:00Z</time>
      </trkpt>
      <trkpt lat="39.165410" lon="-6.218380">
        <ele>439.0</ele>
        <time>1970-01-01T00:00:00Z</time>
      </trkpt>
      <trkpt lat="39.165690" lon="-6.218400">
        <ele>435.3</ele>
        <time>1970-01-01T00:00:00Z</time>
      </trkpt>
      <trkpt lat="39.165970" lon="-6.218510">
        <ele>432.4</ele>
        <time>1970-01-01T00:00:00Z</time>
      </trkpt>
      <trkpt lat="39.165980" lon="-6.218500">
        <ele>432.3</ele>
        <time>1970-01-01T00:00:00Z</time>
      </trkpt>
      <trkpt lat="39.166030" lon="-6.218510">
        <ele>431.8</ele>
        <time>1970-01-01T00:00:00Z</time>
      </trkpt>
      <trkpt lat="39.166400" lon="-6.218770">
        <ele>430.0</ele>
        <time>1970-01-01T00:00:00Z</time>
      </trkpt>
      <trkpt lat="39.166560" lon="-6.218840">
        <ele>430.0</ele>
        <time>1970-01-01T00:00:00Z</time>
      </trkpt>
      <trkpt lat="39.166930" lon="-6.218840">
        <ele>431.4</ele>
        <time>1970-01-01T00:00:00Z</time>
      </trkpt>
      <trkpt lat="39.167770" lon="-6.218760">
        <ele>441.1</ele>
        <time>1970-01-01T00:00:00Z</time>
      </trkpt>
      <trkpt lat="39.167980" lon="-6.218800">
        <ele>443.2</ele>
        <time>1970-01-01T00:00:00Z</time>
      </trkpt>
      <trkpt lat="39.168610" lon="-6.218560">
        <ele>443.0</ele>
        <time>1970-01-01T00:00:00Z</time>
      </trkpt>
      <trkpt lat="39.169210" lon="-6.218330">
        <ele>442.5</ele>
        <time>1970-01-01T00:00:00Z</time>
      </trkpt>
      <trkpt lat="39.170220" lon="-6.218110">
        <ele>445.0</ele>
        <time>1970-01-01T00:00:00Z</time>
      </trkpt>
      <trkpt lat="39.170310" lon="-6.218090">
        <ele>445.0</ele>
        <time>1970-01-01T00:00:00Z</time>
      </trkpt>
      <trkpt lat="39.170670" lon="-6.218120">
        <ele>443.8</ele>
        <time>1970-01-01T00:00:00Z</time>
      </trkpt>
      <trkpt lat="39.171820" lon="-6.218580">
        <ele>434.7</ele>
        <time>1970-01-01T00:00:00Z</time>
      </trkpt>
      <trkpt lat="39.172740" lon="-6.219050">
        <ele>430.7</ele>
        <time>1970-01-01T00:00:00Z</time>
      </trkpt>
      <trkpt lat="39.173500" lon="-6.219060">
        <ele>428.6</ele>
        <time>1970-01-01T00:00:00Z</time>
      </trkpt>
      <trkpt lat="39.173650" lon="-6.219050">
        <ele>428.3</ele>
        <time>1970-01-01T00:00:00Z</time>
      </trkpt>
      <trkpt lat="39.173606" lon="-6.218998">
        <ele>427.8</ele>
        <time>1970-01-01T00:00:00Z</time>
      </trkpt>
      <trkpt lat="39.173166" lon="-6.218295">
        <ele>424.4</ele>
        <time>1970-01-01T00:00:00Z</time>
      </trkpt>
      <trkpt lat="39.174376" lon="-6.218501">
        <ele>419.0</ele>
        <time>1970-01-01T00:00:00Z</time>
      </trkpt>
      <trkpt lat="39.175806" lon="-6.219075">
        <ele>411.2</ele>
        <time>1970-01-01T00:00:00Z</time>
      </trkpt>
      <trkpt lat="39.176168" lon="-6.219520">
        <ele>413.3</ele>
        <time>1970-01-01T00:00:00Z</time>
      </trkpt>
      <trkpt lat="39.177740" lon="-6.220992">
        <ele>410.9</ele>
        <time>1970-01-01T00:00:00Z</time>
      </trkpt>
      <trkpt lat="39.177690" lon="-6.220670">
        <ele>408.3</ele>
        <time>1970-01-01T00:00:00Z</time>
      </trkpt>
      <trkpt lat="39.177600" lon="-6.220580">
        <ele>407.5</ele>
        <time>1970-01-01T00:00:00Z</time>
      </trkpt>
      <trkpt lat="39.177440" lon="-6.220360">
        <ele>405.8</ele>
        <time>1970-01-01T00:00:00Z</time>
      </trkpt>
      <trkpt lat="39.177140" lon="-6.219770">
        <ele>404.3</ele>
        <time>1970-01-01T00:00:00Z</time>
      </trkpt>
      <trkpt lat="39.176960" lon="-6.219450">
        <ele>401.9</ele>
        <time>1970-01-01T00:00:00Z</time>
      </trkpt>
      <trkpt lat="39.176770" lon="-6.219140">
        <ele>400.9</ele>
        <time>1970-01-01T00:00:00Z</time>
      </trkpt>
      <trkpt lat="39.176660" lon="-6.218890">
        <ele>401.1</ele>
        <time>1970-01-01T00:00:00Z</time>
      </trkpt>
      <trkpt lat="39.176520" lon="-6.218510">
        <ele>400.8</ele>
        <time>1970-01-01T00:00:00Z</time>
      </trkpt>
      <trkpt lat="39.176420" lon="-6.218270">
        <ele>400.6</ele>
        <time>1970-01-01T00:00:00Z</time>
      </trkpt>
      <trkpt lat="39.176250" lon="-6.218040">
        <ele>401.2</ele>
        <time>1970-01-01T00:00:00Z</time>
      </trkpt>
      <trkpt lat="39.175920" lon="-6.217560">
        <ele>403.9</ele>
        <time>1970-01-01T00:00:00Z</time>
      </trkpt>
      <trkpt lat="39.175540" lon="-6.217090">
        <ele>406.6</ele>
        <time>1970-01-01T00:00:00Z</time>
      </trkpt>
      <trkpt lat="39.175480" lon="-6.216980">
        <ele>407.3</ele>
        <time>1970-01-01T00:00:00Z</time>
      </trkpt>
      <trkpt lat="39.175080" lon="-6.216380">
        <ele>411.3</ele>
        <time>1970-01-01T00:00:00Z</time>
      </trkpt>
      <trkpt lat="39.174940" lon="-6.216110">
        <ele>412.7</ele>
        <time>1970-01-01T00:00:00Z</time>
      </trkpt>
      <trkpt lat="39.174730" lon="-6.215680">
        <ele>412.6</ele>
        <time>1970-01-01T00:00:00Z</time>
      </trkpt>
      <trkpt lat="39.174610" lon="-6.215510">
        <ele>412.7</ele>
        <time>1970-01-01T00:00:00Z</time>
      </trkpt>
      <trkpt lat="39.174470" lon="-6.215150">
        <ele>410.4</ele>
        <time>1970-01-01T00:00:00Z</time>
      </trkpt>
      <trkpt lat="39.174350" lon="-6.214680">
        <ele>407.3</ele>
        <time>1970-01-01T00:00:00Z</time>
      </trkpt>
      <trkpt lat="39.174370" lon="-6.214700">
        <ele>407.4</ele>
        <time>1970-01-01T00:00:00Z</time>
      </trkpt>
      <trkpt lat="39.174370" lon="-6.214700">
        <ele>407.4</ele>
        <time>1970-01-01T00:00:00Z</time>
      </trkpt>
      <trkpt lat="39.174230" lon="-6.214260">
        <ele>404.8</ele>
        <time>1970-01-01T00:00:00Z</time>
      </trkpt>
      <trkpt lat="39.174100" lon="-6.213670">
        <ele>403.9</ele>
        <time>1970-01-01T00:00:00Z</time>
      </trkpt>
      <trkpt lat="39.174110" lon="-6.213130">
        <ele>404.2</ele>
        <time>1970-01-01T00:00:00Z</time>
      </trkpt>
      <trkpt lat="39.174140" lon="-6.212890">
        <ele>404.0</ele>
        <time>1970-01-01T00:00:00Z</time>
      </trkpt>
      <trkpt lat="39.174500" lon="-6.211940">
        <ele>401.6</ele>
        <time>1970-01-01T00:00:00Z</time>
      </trkpt>
      <trkpt lat="39.174810" lon="-6.211380">
        <ele>401.8</ele>
        <time>1970-01-01T00:00:00Z</time>
      </trkpt>
      <trkpt lat="39.175000" lon="-6.210980">
        <ele>400.7</ele>
        <time>1970-01-01T00:00:00Z</time>
      </trkpt>
      <trkpt lat="39.175080" lon="-6.210760">
        <ele>400.0</ele>
        <time>1970-01-01T00:00:00Z</time>
      </trkpt>
      <trkpt lat="39.175180" lon="-6.210460">
        <ele>400.6</ele>
        <time>1970-01-01T00:00:00Z</time>
      </trkpt>
      <trkpt lat="39.175270" lon="-6.210130">
        <ele>400.0</ele>
        <time>1970-01-01T00:00:00Z</time>
      </trkpt>
      <trkpt lat="39.175530" lon="-6.209540">
        <ele>398.3</ele>
        <time>1970-01-01T00:00:00Z</time>
      </trkpt>
      <trkpt lat="39.175650" lon="-6.209260">
        <ele>397.4</ele>
        <time>1970-01-01T00:00:00Z</time>
      </trkpt>
      <trkpt lat="39.175980" lon="-6.208570">
        <ele>396.1</ele>
        <time>1970-01-01T00:00:00Z</time>
      </trkpt>
      <trkpt lat="39.176120" lon="-6.208410">
        <ele>396.8</ele>
        <time>1970-01-01T00:00:00Z</time>
      </trkpt>
      <trkpt lat="39.176250" lon="-6.208120">
        <ele>397.8</ele>
        <time>1970-01-01T00:00:00Z</time>
      </trkpt>
      <trkpt lat="39.176340" lon="-6.207950">
        <ele>398.0</ele>
        <time>1970-01-01T00:00:00Z</time>
      </trkpt>
      <trkpt lat="39.176590" lon="-6.207380">
        <ele>397.5</ele>
        <time>1970-01-01T00:00:00Z</time>
      </trkpt>
      <trkpt lat="39.176630" lon="-6.207240">
        <ele>397.1</ele>
        <time>1970-01-01T00:00:00Z</time>
      </trkpt>
      <trkpt lat="39.176790" lon="-6.206940">
        <ele>396.0</ele>
        <time>1970-01-01T00:00:00Z</time>
      </trkpt>
      <trkpt lat="39.176860" lon="-6.206750">
        <ele>396.0</ele>
        <time>1970-01-01T00:00:00Z</time>
      </trkpt>
      <trkpt lat="39.176970" lon="-6.206510">
        <ele>396.0</ele>
        <time>1970-01-01T00:00:00Z</time>
      </trkpt>
      <trkpt lat="39.177240" lon="-6.206100">
        <ele>395.9</ele>
        <time>1970-01-01T00:00:00Z</time>
      </trkpt>
      <trkpt lat="39.177330" lon="-6.205670">
        <ele>395.5</ele>
        <time>1970-01-01T00:00:00Z</time>
      </trkpt>
      <trkpt lat="39.177350" lon="-6.205640">
        <ele>395.4</ele>
        <time>1970-01-01T00:00:00Z</time>
      </trkpt>
      <trkpt lat="39.177410" lon="-6.205410">
        <ele>395.0</ele>
        <time>1970-01-01T00:00:00Z</time>
      </trkpt>
      <trkpt lat="39.177410" lon="-6.205230">
        <ele>394.4</ele>
        <time>1970-01-01T00:00:00Z</time>
      </trkpt>
      <trkpt lat="39.177600" lon="-6.204180">
        <ele>388.0</ele>
        <time>1970-01-01T00:00:00Z</time>
      </trkpt>
      <trkpt lat="39.177660" lon="-6.203800">
        <ele>387.2</ele>
        <time>1970-01-01T00:00:00Z</time>
      </trkpt>
      <trkpt lat="39.177650" lon="-6.203440">
        <ele>385.7</ele>
        <time>1970-01-01T00:00:00Z</time>
      </trkpt>
      <trkpt lat="39.177680" lon="-6.202330">
        <ele>381.9</ele>
        <time>1970-01-01T00:00:00Z</time>
      </trkpt>
      <trkpt lat="39.177690" lon="-6.202250">
        <ele>381.6</ele>
        <time>1970-01-01T00:00:00Z</time>
      </trkpt>
      <trkpt lat="39.177620" lon="-6.201560">
        <ele>381.0</ele>
        <time>1970-01-01T00:00:00Z</time>
      </trkpt>
      <trkpt lat="39.177470" lon="-6.200750">
        <ele>384.9</ele>
        <time>1970-01-01T00:00:00Z</time>
      </trkpt>
      <trkpt lat="39.177470" lon="-6.200400">
        <ele>384.6</ele>
        <time>1970-01-01T00:00:00Z</time>
      </trkpt>
      <trkpt lat="39.177650" lon="-6.200100">
        <ele>384.0</ele>
        <time>1970-01-01T00:00:00Z</time>
      </trkpt>
      <trkpt lat="39.177700" lon="-6.200030">
        <ele>384.1</ele>
        <time>1970-01-01T00:00:00Z</time>
      </trkpt>
      <trkpt lat="39.177850" lon="-6.199850">
        <ele>384.7</ele>
        <time>1970-01-01T00:00:00Z</time>
      </trkpt>
      <trkpt lat="39.178320" lon="-6.199350">
        <ele>385.4</ele>
        <time>1970-01-01T00:00:00Z</time>
      </trkpt>
      <trkpt lat="39.178320" lon="-6.199350">
        <ele>385.4</ele>
        <time>1970-01-01T00:00:00Z</time>
      </trkpt>
      <trkpt lat="39.178680" lon="-6.198930">
        <ele>380.5</ele>
        <time>1970-01-01T00:00:00Z</time>
      </trkpt>
      <trkpt lat="39.178720" lon="-6.198880">
        <ele>380.0</ele>
        <time>1970-01-01T00:00:00Z</time>
      </trkpt>
      <trkpt lat="39.178880" lon="-6.198590">
        <ele>378.7</ele>
        <time>1970-01-01T00:00:00Z</time>
      </trkpt>
      <trkpt lat="39.178980" lon="-6.198350">
        <ele>378.2</ele>
        <time>1970-01-01T00:00:00Z</time>
      </trkpt>
      <trkpt lat="39.179640" lon="-6.197380">
        <ele>368.0</ele>
        <time>1970-01-01T00:00:00Z</time>
      </trkpt>
      <trkpt lat="39.179660" lon="-6.197100">
        <ele>367.5</ele>
        <time>1970-01-01T00:00:00Z</time>
      </trkpt>
      <trkpt lat="39.179650" lon="-6.196880">
        <ele>367.8</ele>
        <time>1970-01-01T00:00:00Z</time>
      </trkpt>
      <trkpt lat="39.179630" lon="-6.196550">
        <ele>368.3</ele>
        <time>1970-01-01T00:00:00Z</time>
      </trkpt>
      <trkpt lat="39.179620" lon="-6.196070">
        <ele>368.9</ele>
        <time>1970-01-01T00:00:00Z</time>
      </trkpt>
      <trkpt lat="39.179620" lon="-6.195910">
        <ele>369.3</ele>
        <time>1970-01-01T00:00:00Z</time>
      </trkpt>
      <trkpt lat="39.179670" lon="-6.195710">
        <ele>369.0</ele>
        <time>1970-01-01T00:00:00Z</time>
      </trkpt>
      <trkpt lat="39.179750" lon="-6.195160">
        <ele>368.3</ele>
        <time>1970-01-01T00:00:00Z</time>
      </trkpt>
      <trkpt lat="39.179840" lon="-6.194860">
        <ele>367.7</ele>
        <time>1970-01-01T00:00:00Z</time>
      </trkpt>
      <trkpt lat="39.179860" lon="-6.194550">
        <ele>366.1</ele>
        <time>1970-01-01T00:00:00Z</time>
      </trkpt>
      <trkpt lat="39.179850" lon="-6.194190">
        <ele>364.0</ele>
        <time>1970-01-01T00:00:00Z</time>
      </trkpt>
      <trkpt lat="39.179770" lon="-6.193790">
        <ele>362.0</ele>
        <time>1970-01-01T00:00:00Z</time>
      </trkpt>
      <trkpt lat="39.179420" lon="-6.193100">
        <ele>361.0</ele>
        <time>1970-01-01T00:00:00Z</time>
      </trkpt>
      <trkpt lat="39.179310" lon="-6.192910">
        <ele>360.3</ele>
        <time>1970-01-01T00:00:00Z</time>
      </trkpt>
      <trkpt lat="39.178840" lon="-6.192110">
        <ele>358.5</ele>
        <time>1970-01-01T00:00:00Z</time>
      </trkpt>
      <trkpt lat="39.178570" lon="-6.191720">
        <ele>359.6</ele>
        <time>1970-01-01T00:00:00Z</time>
      </trkpt>
      <trkpt lat="39.178180" lon="-6.191010">
        <ele>367.3</ele>
        <time>1970-01-01T00:00:00Z</time>
      </trkpt>
      <trkpt lat="39.178240" lon="-6.190500">
        <ele>368.4</ele>
        <time>1970-01-01T00:00:00Z</time>
      </trkpt>
      <trkpt lat="39.178420" lon="-6.189490">
        <ele>365.9</ele>
        <time>1970-01-01T00:00:00Z</time>
      </trkpt>
      <trkpt lat="39.178500" lon="-6.189120">
        <ele>364.8</ele>
        <time>1970-01-01T00:00:00Z</time>
      </trkpt>
      <trkpt lat="39.178520" lon="-6.188980">
        <ele>364.2</ele>
        <time>1970-01-01T00:00:00Z</time>
      </trkpt>
      <trkpt lat="39.178510" lon="-6.188620">
        <ele>363.5</ele>
        <time>1970-01-01T00:00:00Z</time>
      </trkpt>
      <trkpt lat="39.178470" lon="-6.188300">
        <ele>362.7</ele>
        <time>1970-01-01T00:00:00Z</time>
      </trkpt>
      <trkpt lat="39.178360" lon="-6.188030">
        <ele>362.1</ele>
        <time>1970-01-01T00:00:00Z</time>
      </trkpt>
      <trkpt lat="39.178200" lon="-6.187780">
        <ele>360.0</ele>
        <time>1970-01-01T00:00:00Z</time>
      </trkpt>
      <trkpt lat="39.177930" lon="-6.187450">
        <ele>358.2</ele>
        <time>1970-01-01T00:00:00Z</time>
      </trkpt>
      <trkpt lat="39.177580" lon="-6.187140">
        <ele>357.5</ele>
        <time>1970-01-01T00:00:00Z</time>
      </trkpt>
      <trkpt lat="39.177480" lon="-6.186930">
        <ele>355.7</ele>
        <time>1970-01-01T00:00:00Z</time>
      </trkpt>
      <trkpt lat="39.177420" lon="-6.186630">
        <ele>354.2</ele>
        <time>1970-01-01T00:00:00Z</time>
      </trkpt>
      <trkpt lat="39.177260" lon="-6.185950">
        <ele>353.0</ele>
        <time>1970-01-01T00:00:00Z</time>
      </trkpt>
      <trkpt lat="39.177140" lon="-6.185300">
        <ele>351.6</ele>
        <time>1970-01-01T00:00:00Z</time>
      </trkpt>
      <trkpt lat="39.177210" lon="-6.185290">
        <ele>351.3</ele>
        <time>1970-01-01T00:00:00Z</time>
      </trkpt>
      <trkpt lat="39.177220" lon="-6.185290">
        <ele>351.3</ele>
        <time>1970-01-01T00:00:00Z</time>
      </trkpt>
      <trkpt lat="39.177400" lon="-6.185290">
        <ele>351.3</ele>
        <time>1970-01-01T00:00:00Z</time>
      </trkpt>
      <trkpt lat="39.177760" lon="-6.185170">
        <ele>351.3</ele>
        <time>1970-01-01T00:00:00Z</time>
      </trkpt>
      <trkpt lat="39.177990" lon="-6.184970">
        <ele>351.5</ele>
        <time>1970-01-01T00:00:00Z</time>
      </trkpt>
      <trkpt lat="39.178140" lon="-6.184810">
        <ele>352.8</ele>
        <time>1970-01-01T00:00:00Z</time>
      </trkpt>
      <trkpt lat="39.178850" lon="-6.184430">
        <ele>356.0</ele>
        <time>1970-01-01T00:00:00Z</time>
      </trkpt>
      <trkpt lat="39.179370" lon="-6.184170">
        <ele>354.9</ele>
        <time>1970-01-01T00:00:00Z</time>
      </trkpt>
      <trkpt lat="39.179550" lon="-6.184130">
        <ele>354.7</ele>
        <time>1970-01-01T00:00:00Z</time>
      </trkpt>
      <trkpt lat="39.179730" lon="-6.184130">
        <ele>354.7</ele>
        <time>1970-01-01T00:00:00Z</time>
      </trkpt>
      <trkpt lat="39.179820" lon="-6.184140">
        <ele>354.8</ele>
        <time>1970-01-01T00:00:00Z</time>
      </trkpt>
      <trkpt lat="39.179990" lon="-6.184130">
        <ele>355.0</ele>
        <time>1970-01-01T00:00:00Z</time>
      </trkpt>
      <trkpt lat="39.180220" lon="-6.184110">
        <ele>356.0</ele>
        <time>1970-01-01T00:00:00Z</time>
      </trkpt>
      <trkpt lat="39.180550" lon="-6.184060">
        <ele>357.8</ele>
        <time>1970-01-01T00:00:00Z</time>
      </trkpt>
      <trkpt lat="39.181230" lon="-6.183750">
        <ele>365.0</ele>
        <time>1970-01-01T00:00:00Z</time>
      </trkpt>
      <trkpt lat="39.181360" lon="-6.183650">
        <ele>366.7</ele>
        <time>1970-01-01T00:00:00Z</time>
      </trkpt>
      <trkpt lat="39.181980" lon="-6.183180">
        <ele>367.8</ele>
        <time>1970-01-01T00:00:00Z</time>
      </trkpt>
      <trkpt lat="39.182190" lon="-6.183040">
        <ele>367.3</ele>
        <time>1970-01-01T00:00:00Z</time>
      </trkpt>
      <trkpt lat="39.182150" lon="-6.183050">
        <ele>367.4</ele>
        <time>1970-01-01T00:00:00Z</time>
      </trkpt>
      <trkpt lat="39.182200" lon="-6.183050">
        <ele>367.3</ele>
        <time>1970-01-01T00:00:00Z</time>
      </trkpt>
      <trkpt lat="39.182300" lon="-6.182760">
        <ele>367.0</ele>
        <time>1970-01-01T00:00:00Z</time>
      </trkpt>
      <trkpt lat="39.182610" lon="-6.181700">
        <ele>365.8</ele>
        <time>1970-01-01T00:00:00Z</time>
      </trkpt>
      <trkpt lat="39.182730" lon="-6.181030">
        <ele>363.0</ele>
        <time>1970-01-01T00:00:00Z</time>
      </trkpt>
      <trkpt lat="39.182770" lon="-6.180810">
        <ele>361.9</ele>
        <time>1970-01-01T00:00:00Z</time>
      </trkpt>
      <trkpt lat="39.183040" lon="-6.179130">
        <ele>361.2</ele>
        <time>1970-01-01T00:00:00Z</time>
      </trkpt>
      <trkpt lat="39.183650" lon="-6.177550">
        <ele>361.0</ele>
        <time>1970-01-01T00:00:00Z</time>
      </trkpt>
      <trkpt lat="39.183740" lon="-6.176990">
        <ele>361.6</ele>
        <time>1970-01-01T00:00:00Z</time>
      </trkpt>
      <trkpt lat="39.183900" lon="-6.175690">
        <ele>365.2</ele>
        <time>1970-01-01T00:00:00Z</time>
      </trkpt>
      <trkpt lat="39.184290" lon="-6.173740">
        <ele>369.3</ele>
        <time>1970-01-01T00:00:00Z</time>
      </trkpt>
      <trkpt lat="39.184570" lon="-6.172250">
        <ele>372.2</ele>
        <time>1970-01-01T00:00:00Z</time>
      </trkpt>
      <trkpt lat="39.184610" lon="-6.172130">
        <ele>372.1</ele>
        <time>1970-01-01T00:00:00Z</time>
      </trkpt>
      <trkpt lat="39.184600" lon="-6.172140">
        <ele>372.1</ele>
        <time>1970-01-01T00:00:00Z</time>
      </trkpt>
      <trkpt lat="39.184610" lon="-6.171690">
        <ele>372.5</ele>
        <time>1970-01-01T00:00:00Z</time>
      </trkpt>
      <trkpt lat="39.184640" lon="-6.170620">
        <ele>371.9</ele>
        <time>1970-01-01T00:00:00Z</time>
      </trkpt>
      <trkpt lat="39.184550" lon="-6.169630">
        <ele>373.9</ele>
        <time>1970-01-01T00:00:00Z</time>
      </trkpt>
      <trkpt lat="39.184360" lon="-6.168350">
        <ele>374.1</ele>
        <time>1970-01-01T00:00:00Z</time>
      </trkpt>
      <trkpt lat="39.184210" lon="-6.167320">
        <ele>376.4</ele>
        <time>1970-01-01T00:00:00Z</time>
      </trkpt>
      <trkpt lat="39.184310" lon="-6.166610">
        <ele>380.1</ele>
        <time>1970-01-01T00:00:00Z</time>
      </trkpt>
      <trkpt lat="39.184480" lon="-6.166210">
        <ele>382.1</ele>
        <time>1970-01-01T00:00:00Z</time>
      </trkpt>
      <trkpt lat="39.184650" lon="-6.165490">
        <ele>385.5</ele>
        <time>1970-01-01T00:00:00Z</time>
      </trkpt>
      <trkpt lat="39.184660" lon="-6.164980">
        <ele>387.6</ele>
        <time>1970-01-01T00:00:00Z</time>
      </trkpt>
      <trkpt lat="39.184620" lon="-6.164770">
        <ele>388.4</ele>
        <time>1970-01-01T00:00:00Z</time>
      </trkpt>
      <trkpt lat="39.184580" lon="-6.164510">
        <ele>388.2</ele>
        <time>1970-01-01T00:00:00Z</time>
      </trkpt>
      <trkpt lat="39.184570" lon="-6.164150">
        <ele>388.6</ele>
        <time>1970-01-01T00:00:00Z</time>
      </trkpt>
      <trkpt lat="39.184543" lon="-6.163220">
        <ele>388.9</ele>
        <time>1970-01-01T00:00:00Z</time>
      </trkpt>
      <trkpt lat="39.184780" lon="-6.163127">
        <ele>390.2</ele>
        <time>1970-01-01T00:00:00Z</time>
      </trkpt>
      <trkpt lat="39.184760" lon="-6.162883">
        <ele>389.6</ele>
        <time>1970-01-01T00:00:00Z</time>
      </trkpt>
      <trkpt lat="39.184309" lon="-6.163048">
        <ele>385.9</ele>
        <time>1970-01-01T00:00:00Z</time>
      </trkpt>
      <trkpt lat="39.184195" lon="-6.163123">
        <ele>384.5</ele>
        <time>1970-01-01T00:00:00Z</time>
      </trkpt>
      <trkpt lat="39.184086" lon="-6.163142">
        <ele>383.1</ele>
        <time>1970-01-01T00:00:00Z</time>
      </trkpt>
      <trkpt lat="39.183983" lon="-6.162969">
        <ele>381.7</ele>
        <time>1970-01-01T00:00:00Z</time>
      </trkpt>
      <trkpt lat="39.183773" lon="-6.162896">
        <ele>379.7</ele>
        <time>1970-01-01T00:00:00Z</time>
      </trkpt>
      <trkpt lat="39.183690" lon="-6.162710">
        <ele>379.0</ele>
        <time>1970-01-01T00:00:00Z</time>
      </trkpt>
      <trkpt lat="39.183510" lon="-6.162350">
        <ele>379.2</ele>
        <time>1970-01-01T00:00:00Z</time>
      </trkpt>
      <trkpt lat="39.183390" lon="-6.162060">
        <ele>379.7</ele>
        <time>1970-01-01T00:00:00Z</time>
      </trkpt>
      <trkpt lat="39.183290" lon="-6.161650">
        <ele>380.0</ele>
        <time>1970-01-01T00:00:00Z</time>
      </trkpt>
      <trkpt lat="39.182850" lon="-6.161370">
        <ele>380.0</ele>
        <time>1970-01-01T00:00:00Z</time>
      </trkpt>
      <trkpt lat="39.182300" lon="-6.160650">
        <ele>381.0</ele>
        <time>1970-01-01T00:00:00Z</time>
      </trkpt>
      <trkpt lat="39.181730" lon="-6.159730">
        <ele>378.5</ele>
        <time>1970-01-01T00:00:00Z</time>
      </trkpt>
      <trkpt lat="39.181600" lon="-6.159650">
        <ele>377.9</ele>
        <time>1970-01-01T00:00:00Z</time>
      </trkpt>
      <trkpt lat="39.181310" lon="-6.159490">
        <ele>377.0</ele>
        <time>1970-01-01T00:00:00Z</time>
      </trkpt>
      <trkpt lat="39.181320" lon="-6.159490">
        <ele>377.0</ele>
        <time>1970-01-01T00:00:00Z</time>
      </trkpt>
      <trkpt lat="39.180350" lon="-6.158700">
        <ele>376.0</ele>
        <time>1970-01-01T00:00:00Z</time>
      </trkpt>
      <trkpt lat="39.179770" lon="-6.157820">
        <ele>371.2</ele>
        <time>1970-01-01T00:00:00Z</time>
      </trkpt>
      <trkpt lat="39.179640" lon="-6.157630">
        <ele>368.7</ele>
        <time>1970-01-01T00:00:00Z</time>
      </trkpt>
      <trkpt lat="39.179270" lon="-6.157310">
        <ele>362.8</ele>
        <time>1970-01-01T00:00:00Z</time>
      </trkpt>
      <trkpt lat="39.179060" lon="-6.157158">
        <ele>361.5</ele>
        <time>1970-01-01T00:00:00Z</time>
      </trkpt>
      <trkpt lat="39.178644" lon="-6.156879">
        <ele>360.7</ele>
        <time>1970-01-01T00:00:00Z</time>
      </trkpt>
      <trkpt lat="39.178506" lon="-6.156659">
        <ele>361.2</ele>
        <time>1970-01-01T00:00:00Z</time>
      </trkpt>
      <trkpt lat="39.178060" lon="-6.155780">
        <ele>361.0</ele>
        <time>1970-01-01T00:00:00Z</time>
      </trkpt>
      <trkpt lat="39.178040" lon="-6.155720">
        <ele>361.0</ele>
        <time>1970-01-01T00:00:00Z</time>
      </trkpt>
      <trkpt lat="39.178040" lon="-6.155160">
        <ele>361.0</ele>
        <time>1970-01-01T00:00:00Z</time>
      </trkpt>
      <trkpt lat="39.178120" lon="-6.154920">
        <ele>361.0</ele>
        <time>1970-01-01T00:00:00Z</time>
      </trkpt>
      <trkpt lat="39.178180" lon="-6.154690">
        <ele>361.0</ele>
        <time>1970-01-01T00:00:00Z</time>
      </trkpt>
      <trkpt lat="39.178120" lon="-6.154340">
        <ele>362.3</ele>
        <time>1970-01-01T00:00:00Z</time>
      </trkpt>
      <trkpt lat="39.178110" lon="-6.154260">
        <ele>362.6</ele>
        <time>1970-01-01T00:00:00Z</time>
      </trkpt>
      <trkpt lat="39.178060" lon="-6.153430">
        <ele>364.3</ele>
        <time>1970-01-01T00:00:00Z</time>
      </trkpt>
      <trkpt lat="39.178110" lon="-6.153020">
        <ele>364.7</ele>
        <time>1970-01-01T00:00:00Z</time>
      </trkpt>
      <trkpt lat="39.178100" lon="-6.152820">
        <ele>364.6</ele>
        <time>1970-01-01T00:00:00Z</time>
      </trkpt>
      <trkpt lat="39.178090" lon="-6.152810">
        <ele>364.6</ele>
        <time>1970-01-01T00:00:00Z</time>
      </trkpt>
      <trkpt lat="39.177670" lon="-6.152660">
        <ele>359.9</ele>
        <time>1970-01-01T00:00:00Z</time>
      </trkpt>
      <trkpt lat="39.177280" lon="-6.152840">
        <ele>357.2</ele>
        <time>1970-01-01T00:00:00Z</time>
      </trkpt>
      <trkpt lat="39.177170" lon="-6.152780">
        <ele>357.0</ele>
        <time>1970-01-01T00:00:00Z</time>
      </trkpt>
      <trkpt lat="39.177100" lon="-6.152600">
        <ele>357.5</ele>
        <time>1970-01-01T00:00:00Z</time>
      </trkpt>
      <trkpt lat="39.176840" lon="-6.152160">
        <ele>359.8</ele>
        <time>1970-01-01T00:00:00Z</time>
      </trkpt>
      <trkpt lat="39.176790" lon="-6.151620">
        <ele>364.0</ele>
        <time>1970-01-01T00:00:00Z</time>
      </trkpt>
      <trkpt lat="39.176930" lon="-6.151390">
        <ele>365.0</ele>
        <time>1970-01-01T00:00:00Z</time>
      </trkpt>
      <trkpt lat="39.177050" lon="-6.151280">
        <ele>364.6</ele>
        <time>1970-01-01T00:00:00Z</time>
      </trkpt>
      <trkpt lat="39.177400" lon="-6.151120">
        <ele>362.7</ele>
        <time>1970-01-01T00:00:00Z</time>
      </trkpt>
      <trkpt lat="39.177440" lon="-6.151110">
        <ele>362.4</ele>
        <time>1970-01-01T00:00:00Z</time>
      </trkpt>
      <trkpt lat="39.177440" lon="-6.150830">
        <ele>363.0</ele>
        <time>1970-01-01T00:00:00Z</time>
      </trkpt>
      <trkpt lat="39.177340" lon="-6.150200">
        <ele>363.3</ele>
        <time>1970-01-01T00:00:00Z</time>
      </trkpt>
      <trkpt lat="39.177320" lon="-6.150140">
        <ele>363.2</ele>
        <time>1970-01-01T00:00:00Z</time>
      </trkpt>
      <trkpt lat="39.177280" lon="-6.150140">
        <ele>363.3</ele>
        <time>1970-01-01T00:00:00Z</time>
      </trkpt>
      <trkpt lat="39.177280" lon="-6.150140">
        <ele>363.3</ele>
        <time>1970-01-01T00:00:00Z</time>
      </trkpt>
      <trkpt lat="39.177220" lon="-6.150114">
        <ele>363.3</ele>
        <time>1970-01-01T00:00:00Z</time>
      </trkpt>
      <trkpt lat="39.176832" lon="-6.150328">
        <ele>362.8</ele>
        <time>1970-01-01T00:00:00Z</time>
      </trkpt>
      <trkpt lat="39.176653" lon="-6.150291">
        <ele>362.1</ele>
        <time>1970-01-01T00:00:00Z</time>
      </trkpt>
      <trkpt lat="39.176368" lon="-6.149989">
        <ele>361.7</ele>
        <time>1970-01-01T00:00:00Z</time>
      </trkpt>
      <trkpt lat="39.176259" lon="-6.149868">
        <ele>362.1</ele>
        <time>1970-01-01T00:00:00Z</time>
      </trkpt>
      <trkpt lat="39.176193" lon="-6.149807">
        <ele>362.4</ele>
        <time>1970-01-01T00:00:00Z</time>
      </trkpt>
      <trkpt lat="39.176060" lon="-6.149715">
        <ele>363.0</ele>
        <time>1970-01-01T00:00:00Z</time>
      </trkpt>
      <trkpt lat="39.175927" lon="-6.149651">
        <ele>364.0</ele>
        <time>1970-01-01T00:00:00Z</time>
      </trkpt>
      <trkpt lat="39.175770" lon="-6.149570">
        <ele>365.0</ele>
        <time>1970-01-01T00:00:00Z</time>
      </trkpt>
      <trkpt lat="39.175730" lon="-6.149000">
        <ele>365.4</ele>
        <time>1970-01-01T00:00:00Z</time>
      </trkpt>
      <trkpt lat="39.175650" lon="-6.148410">
        <ele>366.8</ele>
        <time>1970-01-01T00:00:00Z</time>
      </trkpt>
      <trkpt lat="39.175620" lon="-6.148270">
        <ele>367.0</ele>
        <time>1970-01-01T00:00:00Z</time>
      </trkpt>
      <trkpt lat="39.175580" lon="-6.147950">
        <ele>367.0</ele>
        <time>1970-01-01T00:00:00Z</time>
      </trkpt>
      <trkpt lat="39.175360" lon="-6.146980">
        <ele>367.8</ele>
        <time>1970-01-01T00:00:00Z</time>
      </trkpt>
      <trkpt lat="39.175330" lon="-6.146820">
        <ele>366.9</ele>
        <time>1970-01-01T00:00:00Z</time>
      </trkpt>
      <trkpt lat="39.175240" lon="-6.146520">
        <ele>366.1</ele>
        <time>1970-01-01T00:00:00Z</time>
      </trkpt>
      <trkpt lat="39.175260" lon="-6.146350">
        <ele>366.5</ele>
        <time>1970-01-01T00:00:00Z</time>
      </trkpt>
      <trkpt lat="39.174850" lon="-6.145530">
        <ele>363.7</ele>
        <time>1970-01-01T00:00:00Z</time>
      </trkpt>
      <trkpt lat="39.174260" lon="-6.144490">
        <ele>361.2</ele>
        <time>1970-01-01T00:00:00Z</time>
      </trkpt>
      <trkpt lat="39.173470" lon="-6.143140">
        <ele>357.2</ele>
        <time>1970-01-01T00:00:00Z</time>
      </trkpt>
      <trkpt lat="39.173430" lon="-6.143080">
        <ele>357.0</ele>
        <time>1970-01-01T00:00:00Z</time>
      </trkpt>
      <trkpt lat="39.172890" lon="-6.142290">
        <ele>358.7</ele>
        <time>1970-01-01T00:00:00Z</time>
      </trkpt>
      <trkpt lat="39.172430" lon="-6.141720">
        <ele>362.0</ele>
        <time>1970-01-01T00:00:00Z</time>
      </trkpt>
      <trkpt lat="39.172340" lon="-6.141580">
        <ele>363.1</ele>
        <time>1970-01-01T00:00:00Z</time>
      </trkpt>
      <trkpt lat="39.171970" lon="-6.140640">
        <ele>365.6</ele>
        <time>1970-01-01T00:00:00Z</time>
      </trkpt>
      <trkpt lat="39.171900" lon="-6.140360">
        <ele>366.0</ele>
        <time>1970-01-01T00:00:00Z</time>
      </trkpt>
      <trkpt lat="39.171480" lon="-6.139330">
        <ele>370.1</ele>
        <time>1970-01-01T00:00:00Z</time>
      </trkpt>
      <trkpt lat="39.171380" lon="-6.139050">
        <ele>369.6</ele>
        <time>1970-01-01T00:00:00Z</time>
      </trkpt>
      <trkpt lat="39.171020" lon="-6.138010">
        <ele>364.2</ele>
        <time>1970-01-01T00:00:00Z</time>
      </trkpt>
      <trkpt lat="39.170660" lon="-6.137010">
        <ele>358.7</ele>
        <time>1970-01-01T00:00:00Z</time>
      </trkpt>
      <trkpt lat="39.170510" lon="-6.136710">
        <ele>358.0</ele>
        <time>1970-01-01T00:00:00Z</time>
      </trkpt>
      <trkpt lat="39.170510" lon="-6.136700">
        <ele>358.0</ele>
        <time>1970-01-01T00:00:00Z</time>
      </trkpt>
      <trkpt lat="39.170490" lon="-6.136630">
        <ele>358.0</ele>
        <time>1970-01-01T00:00:00Z</time>
      </trkpt>
      <trkpt lat="39.170360" lon="-6.136420">
        <ele>358.0</ele>
        <time>1970-01-01T00:00:00Z</time>
      </trkpt>
      <trkpt lat="39.169820" lon="-6.135690">
        <ele>356.0</ele>
        <time>1970-01-01T00:00:00Z</time>
      </trkpt>
      <trkpt lat="39.169290" lon="-6.135180">
        <ele>355.8</ele>
        <time>1970-01-01T00:00:00Z</time>
      </trkpt>
      <trkpt lat="39.168580" lon="-6.134740">
        <ele>353.9</ele>
        <time>1970-01-01T00:00:00Z</time>
      </trkpt>
      <trkpt lat="39.167690" lon="-6.134200">
        <ele>352.5</ele>
        <time>1970-01-01T00:00:00Z</time>
      </trkpt>
      <trkpt lat="39.167640" lon="-6.134150">
        <ele>352.2</ele>
        <time>1970-01-01T00:00:00Z</time>
      </trkpt>
      <trkpt lat="39.167280" lon="-6.133850">
        <ele>352.0</ele>
        <time>1970-01-01T00:00:00Z</time>
      </trkpt>
      <trkpt lat="39.166930" lon="-6.133490">
        <ele>351.0</ele>
        <time>1970-01-01T00:00:00Z</time>
      </trkpt>
      <trkpt lat="39.166660" lon="-6.133240">
        <ele>351.0</ele>
        <time>1970-01-01T00:00:00Z</time>
      </trkpt>
      <trkpt lat="39.166230" lon="-6.132970">
        <ele>351.5</ele>
        <time>1970-01-01T00:00:00Z</time>
      </trkpt>
      <trkpt lat="39.165900" lon="-6.132700">
        <ele>352.1</ele>
        <time>1970-01-01T00:00:00Z</time>
      </trkpt>
      <trkpt lat="39.165680" lon="-6.132400">
        <ele>352.0</ele>
        <time>1970-01-01T00:00:00Z</time>
      </trkpt>
      <trkpt lat="39.165500" lon="-6.132130">
        <ele>352.0</ele>
        <time>1970-01-01T00:00:00Z</time>
      </trkpt>
      <trkpt lat="39.165210" lon="-6.131640">
        <ele>352.0</ele>
        <time>1970-01-01T00:00:00Z</time>
      </trkpt>
      <trkpt lat="39.164890" lon="-6.131060">
        <ele>352.8</ele>
        <time>1970-01-01T00:00:00Z</time>
      </trkpt>
      <trkpt lat="39.164870" lon="-6.131050">
        <ele>352.7</ele>
        <time>1970-01-01T00:00:00Z</time>
      </trkpt>
      <trkpt lat="39.164720" lon="-6.130820">
        <ele>352.0</ele>
        <time>1970-01-01T00:00:00Z</time>
      </trkpt>
      <trkpt lat="39.164560" lon="-6.130480">
        <ele>350.7</ele>
        <time>1970-01-01T00:00:00Z</time>
      </trkpt>
      <trkpt lat="39.164490" lon="-6.130140">
        <ele>351.0</ele>
        <time>1970-01-01T00:00:00Z</time>
      </trkpt>
      <trkpt lat="39.164410" lon="-6.129850">
        <ele>351.3</ele>
        <time>1970-01-01T00:00:00Z</time>
      </trkpt>
      <trkpt lat="39.164140" lon="-6.129270">
        <ele>355.3</ele>
        <time>1970-01-01T00:00:00Z</time>
      </trkpt>
      <trkpt lat="39.164080" lon="-6.129150">
        <ele>355.7</ele>
        <time>1970-01-01T00:00:00Z</time>
      </trkpt>
      <trkpt lat="39.163930" lon="-6.128950">
        <ele>356.7</ele>
        <time>1970-01-01T00:00:00Z</time>
      </trkpt>
      <trkpt lat="39.163750" lon="-6.128620">
        <ele>357.2</ele>
        <time>1970-01-01T00:00:00Z</time>
      </trkpt>
      <trkpt lat="39.163740" lon="-6.128610">
        <ele>357.2</ele>
        <time>1970-01-01T00:00:00Z</time>
      </trkpt>
      <trkpt lat="39.163590" lon="-6.128320">
        <ele>356.3</ele>
        <time>1970-01-01T00:00:00Z</time>
      </trkpt>
      <trkpt lat="39.163370" lon="-6.127980">
        <ele>354.9</ele>
        <time>1970-01-01T00:00:00Z</time>
      </trkpt>
      <trkpt lat="39.162850" lon="-6.127040">
        <ele>354.1</ele>
        <time>1970-01-01T00:00:00Z</time>
      </trkpt>
      <trkpt lat="39.162450" lon="-6.126350">
        <ele>357.0</ele>
        <time>1970-01-01T00:00:00Z</time>
      </trkpt>
      <trkpt lat="39.161710" lon="-6.125060">
        <ele>356.0</ele>
        <time>1970-01-01T00:00:00Z</time>
      </trkpt>
      <trkpt lat="39.161440" lon="-6.124640">
        <ele>356.0</ele>
        <time>1970-01-01T00:00:00Z</time>
      </trkpt>
      <trkpt lat="39.161060" lon="-6.124010">
        <ele>355.2</ele>
        <time>1970-01-01T00:00:00Z</time>
      </trkpt>
      <trkpt lat="39.160550" lon="-6.123030">
        <ele>352.0</ele>
        <time>1970-01-01T00:00:00Z</time>
      </trkpt>
      <trkpt lat="39.160440" lon="-6.122800">
        <ele>352.7</ele>
        <time>1970-01-01T00:00:00Z</time>
      </trkpt>
      <trkpt lat="39.160130" lon="-6.122130">
        <ele>355.2</ele>
        <time>1970-01-01T00:00:00Z</time>
      </trkpt>
      <trkpt lat="39.159990" lon="-6.121770">
        <ele>356.6</ele>
        <time>1970-01-01T00:00:00Z</time>
      </trkpt>
      <trkpt lat="39.159870" lon="-6.121510">
        <ele>357.3</ele>
        <time>1970-01-01T00:00:00Z</time>
      </trkpt>
      <trkpt lat="39.159790" lon="-6.121230">
        <ele>358.3</ele>
        <time>1970-01-01T00:00:00Z</time>
      </trkpt>
      <trkpt lat="39.159780" lon="-6.121090">
        <ele>358.8</ele>
        <time>1970-01-01T00:00:00Z</time>
      </trkpt>
      <trkpt lat="39.159710" lon="-6.120820">
        <ele>360.6</ele>
        <time>1970-01-01T00:00:00Z</time>
      </trkpt>
      <trkpt lat="39.159220" lon="-6.119820">
        <ele>359.7</ele>
        <time>1970-01-01T00:00:00Z</time>
      </trkpt>
      <trkpt lat="39.159160" lon="-6.119710">
        <ele>359.0</ele>
        <time>1970-01-01T00:00:00Z</time>
      </trkpt>
      <trkpt lat="39.159020" lon="-6.119030">
        <ele>358.0</ele>
        <time>1970-01-01T00:00:00Z</time>
      </trkpt>
      <trkpt lat="39.158920" lon="-6.118560">
        <ele>359.0</ele>
        <time>1970-01-01T00:00:00Z</time>
      </trkpt>
      <trkpt lat="39.158830" lon="-6.118130">
        <ele>359.4</ele>
        <time>1970-01-01T00:00:00Z</time>
      </trkpt>
      <trkpt lat="39.158740" lon="-6.117660">
        <ele>359.4</ele>
        <time>1970-01-01T00:00:00Z</time>
      </trkpt>
      <trkpt lat="39.158660" lon="-6.117400">
        <ele>357.7</ele>
        <time>1970-01-01T00:00:00Z</time>
      </trkpt>
      <trkpt lat="39.158320" lon="-6.116880">
        <ele>356.1</ele>
        <time>1970-01-01T00:00:00Z</time>
      </trkpt>
      <trkpt lat="39.157950" lon="-6.116540">
        <ele>355.7</ele>
        <time>1970-01-01T00:00:00Z</time>
      </trkpt>
      <trkpt lat="39.157440" lon="-6.116060">
        <ele>353.1</ele>
        <time>1970-01-01T00:00:00Z</time>
      </trkpt>
      <trkpt lat="39.157330" lon="-6.115960">
        <ele>352.2</ele>
        <time>1970-01-01T00:00:00Z</time>
      </trkpt>
      <trkpt lat="39.157280" lon="-6.115940">
        <ele>351.8</ele>
        <time>1970-01-01T00:00:00Z</time>
      </trkpt>
      <trkpt lat="39.156640" lon="-6.115430">
        <ele>347.1</ele>
        <time>1970-01-01T00:00:00Z</time>
      </trkpt>
      <trkpt lat="39.156400" lon="-6.115200">
        <ele>347.6</ele>
        <time>1970-01-01T00:00:00Z</time>
      </trkpt>
      <trkpt lat="39.156250" lon="-6.115010">
        <ele>348.3</ele>
        <time>1970-01-01T00:00:00Z</time>
      </trkpt>
      <trkpt lat="39.155470" lon="-6.114320">
        <ele>352.6</ele>
        <time>1970-01-01T00:00:00Z</time>
      </trkpt>
      <trkpt lat="39.155280" lon="-6.114130">
        <ele>353.6</ele>
        <time>1970-01-01T00:00:00Z</time>
      </trkpt>
      <trkpt lat="39.154900" lon="-6.113770">
        <ele>355.9</ele>
        <time>1970-01-01T00:00:00Z</time>
      </trkpt>
      <trkpt lat="39.154660" lon="-6.113420">
        <ele>357.5</ele>
        <time>1970-01-01T00:00:00Z</time>
      </trkpt>
      <trkpt lat="39.154540" lon="-6.113240">
        <ele>358.9</ele>
        <time>1970-01-01T00:00:00Z</time>
      </trkpt>
      <trkpt lat="39.154470" lon="-6.113130">
        <ele>359.0</ele>
        <time>1970-01-01T00:00:00Z</time>
      </trkpt>
      <trkpt lat="39.154220" lon="-6.112810">
        <ele>359.3</ele>
        <time>1970-01-01T00:00:00Z</time>
      </trkpt>
      <trkpt lat="39.154100" lon="-6.112500">
        <ele>362.1</ele>
        <time>1970-01-01T00:00:00Z</time>
      </trkpt>
      <trkpt lat="39.153800" lon="-6.111640">
        <ele>370.0</ele>
        <time>1970-01-01T00:00:00Z</time>
      </trkpt>
      <trkpt lat="39.153620" lon="-6.111380">
        <ele>373.0</ele>
        <time>1970-01-01T00:00:00Z</time>
      </trkpt>
      <trkpt lat="39.152950" lon="-6.110480">
        <ele>386.9</ele>
        <time>1970-01-01T00:00:00Z</time>
      </trkpt>
      <trkpt lat="39.152720" lon="-6.110120">
        <ele>387.8</ele>
        <time>1970-01-01T00:00:00Z</time>
      </trkpt>
      <trkpt lat="39.152430" lon="-6.109510">
        <ele>379.5</ele>
        <time>1970-01-01T00:00:00Z</time>
      </trkpt>
      <trkpt lat="39.151980" lon="-6.108630">
        <ele>364.0</ele>
        <time>1970-01-01T00:00:00Z</time>
      </trkpt>
      <trkpt lat="39.151830" lon="-6.108440">
        <ele>361.0</ele>
        <time>1970-01-01T00:00:00Z</time>
      </trkpt>
      <trkpt lat="39.150900" lon="-6.107870">
        <ele>354.4</ele>
        <time>1970-01-01T00:00:00Z</time>
      </trkpt>
      <trkpt lat="39.150010" lon="-6.107400">
        <ele>355.8</ele>
        <time>1970-01-01T00:00:00Z</time>
      </trkpt>
      <trkpt lat="39.149520" lon="-6.106980">
        <ele>361.7</ele>
        <time>1970-01-01T00:00:00Z</time>
      </trkpt>
      <trkpt lat="39.149190" lon="-6.106680">
        <ele>364.0</ele>
        <time>1970-01-01T00:00:00Z</time>
      </trkpt>
      <trkpt lat="39.149190" lon="-6.106660">
        <ele>364.0</ele>
        <time>1970-01-01T00:00:00Z</time>
      </trkpt>
      <trkpt lat="39.149210" lon="-6.106680">
        <ele>364.0</ele>
        <time>1970-01-01T00:00:00Z</time>
      </trkpt>
      <trkpt lat="39.149180" lon="-6.106670">
        <ele>364.0</ele>
        <time>1970-01-01T00:00:00Z</time>
      </trkpt>
      <trkpt lat="39.149400" lon="-6.106200">
        <ele>364.9</ele>
        <time>1970-01-01T00:00:00Z</time>
      </trkpt>
      <trkpt lat="39.150120" lon="-6.105220">
        <ele>362.4</ele>
        <time>1970-01-01T00:00:00Z</time>
      </trkpt>
      <trkpt lat="39.151040" lon="-6.104050">
        <ele>349.4</ele>
        <time>1970-01-01T00:00:00Z</time>
      </trkpt>
      <trkpt lat="39.152110" lon="-6.102660">
        <ele>349.0</ele>
        <time>1970-01-01T00:00:00Z</time>
      </trkpt>
      <trkpt lat="39.152950" lon="-6.101670">
        <ele>346.2</ele>
        <time>1970-01-01T00:00:00Z</time>
      </trkpt>
      <trkpt lat="39.153520" lon="-6.101150">
        <ele>347.6</ele>
        <time>1970-01-01T00:00:00Z</time>
      </trkpt>
      <trkpt lat="39.154520" lon="-6.100370">
        <ele>357.3</ele>
        <time>1970-01-01T00:00:00Z</time>
      </trkpt>
      <trkpt lat="39.155770" lon="-6.099620">
        <ele>345.7</ele>
        <time>1970-01-01T00:00:00Z</time>
      </trkpt>
      <trkpt lat="39.156800" lon="-6.099060">
        <ele>335.8</ele>
        <time>1970-01-01T00:00:00Z</time>
      </trkpt>
      <trkpt lat="39.157100" lon="-6.098660">
        <ele>331.8</ele>
        <time>1970-01-01T00:00:00Z</time>
      </trkpt>
      <trkpt lat="39.157850" lon="-6.096940">
        <ele>328.8</ele>
        <time>1970-01-01T00:00:00Z</time>
      </trkpt>
      <trkpt lat="39.158820" lon="-6.096080">
        <ele>330.9</ele>
        <time>1970-01-01T00:00:00Z</time>
      </trkpt>
      <trkpt lat="39.160030" lon="-6.095060">
        <ele>329.0</ele>
        <time>1970-01-01T00:00:00Z</time>
      </trkpt>
      <trkpt lat="39.161050" lon="-6.094300">
        <ele>331.9</ele>
        <time>1970-01-01T00:00:00Z</time>
      </trkpt>
      <trkpt lat="39.162010" lon="-6.093750">
        <ele>342.8</ele>
        <time>1970-01-01T00:00:00Z</time>
      </trkpt>
      <trkpt lat="39.162200" lon="-6.093560">
        <ele>345.1</ele>
        <time>1970-01-01T00:00:00Z</time>
      </trkpt>
      <trkpt lat="39.163230" lon="-6.092320">
        <ele>343.6</ele>
        <time>1970-01-01T00:00:00Z</time>
      </trkpt>
      <trkpt lat="39.163910" lon="-6.091430">
        <ele>343.0</ele>
        <time>1970-01-01T00:00:00Z</time>
      </trkpt>
      <trkpt lat="39.164550" lon="-6.090210">
        <ele>340.9</ele>
        <time>1970-01-01T00:00:00Z</time>
      </trkpt>
      <trkpt lat="39.165260" lon="-6.089420">
        <ele>339.8</ele>
        <time>1970-01-01T00:00:00Z</time>
      </trkpt>
      <trkpt lat="39.165920" lon="-6.088920">
        <ele>345.3</ele>
        <time>1970-01-01T00:00:00Z</time>
      </trkpt>
      <trkpt lat="39.165940" lon="-6.088900">
        <ele>345.3</ele>
        <time>1970-01-01T00:00:00Z</time>
      </trkpt>
      <trkpt lat="39.165940" lon="-6.088900">
        <ele>345.3</ele>
        <time>1970-01-01T00:00:00Z</time>
      </trkpt>
      <trkpt lat="39.165920" lon="-6.088900">
        <ele>345.1</ele>
        <time>1970-01-01T00:00:00Z</time>
      </trkpt>
      <trkpt lat="39.165910" lon="-6.088910">
        <ele>345.1</ele>
        <time>1970-01-01T00:00:00Z</time>
      </trkpt>
      <trkpt lat="39.166250" lon="-6.088650">
        <ele>346.0</ele>
        <time>1970-01-01T00:00:00Z</time>
      </trkpt>
      <trkpt lat="39.167100" lon="-6.088000">
        <ele>344.2</ele>
        <time>1970-01-01T00:00:00Z</time>
      </trkpt>
      <trkpt lat="39.168200" lon="-6.087440">
        <ele>338.5</ele>
        <time>1970-01-01T00:00:00Z</time>
      </trkpt>
      <trkpt lat="39.168580" lon="-6.087380">
        <ele>338.1</ele>
        <time>1970-01-01T00:00:00Z</time>
      </trkpt>
      <trkpt lat="39.169520" lon="-6.087500">
        <ele>344.3</ele>
        <time>1970-01-01T00:00:00Z</time>
      </trkpt>
      <trkpt lat="39.169770" lon="-6.087470">
        <ele>345.8</ele>
        <time>1970-01-01T00:00:00Z</time>
      </trkpt>
      <trkpt lat="39.169800" lon="-6.087430">
        <ele>345.9</ele>
        <time>1970-01-01T00:00:00Z</time>
      </trkpt>
      <trkpt lat="39.169820" lon="-6.086680">
        <ele>345.1</ele>
        <time>1970-01-01T00:00:00Z</time>
      </trkpt>
      <trkpt lat="39.169820" lon="-6.084800">
        <ele>333.4</ele>
        <time>1970-01-01T00:00:00Z</time>
      </trkpt>
      <trkpt lat="39.169770" lon="-6.083960">
        <ele>327.2</ele>
        <time>1970-01-01T00:00:00Z</time>
      </trkpt>
      <trkpt lat="39.169620" lon="-6.083360">
        <ele>323.2</ele>
        <time>1970-01-01T00:00:00Z</time>
      </trkpt>
      <trkpt lat="39.168730" lon="-6.081210">
        <ele>314.0</ele>
        <time>1970-01-01T00:00:00Z</time>
      </trkpt>
      <trkpt lat="39.167840" lon="-6.079140">
        <ele>302.5</ele>
        <time>1970-01-01T00:00:00Z</time>
      </trkpt>
      <trkpt lat="39.167450" lon="-6.077940">
        <ele>303.0</ele>
        <time>1970-01-01T00:00:00Z</time>
      </trkpt>
      <trkpt lat="39.167460" lon="-6.077760">
        <ele>303.0</ele>
        <time>1970-01-01T00:00:00Z</time>
      </trkpt>
      <trkpt lat="39.167410" lon="-6.078010">
        <ele>303.0</ele>
        <time>1970-01-01T00:00:00Z</time>
      </trkpt>
      <trkpt lat="39.167410" lon="-6.077990">
        <ele>303.0</ele>
        <time>1970-01-01T00:00:00Z</time>
      </trkpt>
      <trkpt lat="39.167360" lon="-6.078040">
        <ele>303.0</ele>
        <time>1970-01-01T00:00:00Z</time>
      </trkpt>
      <trkpt lat="39.167250" lon="-6.078310">
        <ele>303.0</ele>
        <time>1970-01-01T00:00:00Z</time>
      </trkpt>
      <trkpt lat="39.166910" lon="-6.078300">
        <ele>302.5</ele>
        <time>1970-01-01T00:00:00Z</time>
      </trkpt>
      <trkpt lat="39.166800" lon="-6.078290">
        <ele>302.0</ele>
        <time>1970-01-01T00:00:00Z</time>
      </trkpt>
      <trkpt lat="39.165860" lon="-6.078280">
        <ele>295.9</ele>
        <time>1970-01-01T00:00:00Z</time>
      </trkpt>
      <trkpt lat="39.165110" lon="-6.078190">
        <ele>292.7</ele>
        <time>1970-01-01T00:00:00Z</time>
      </trkpt>
      <trkpt lat="39.164900" lon="-6.078030">
        <ele>291.8</ele>
        <time>1970-01-01T00:00:00Z</time>
      </trkpt>
      <trkpt lat="39.164820" lon="-6.077770">
        <ele>291.5</ele>
        <time>1970-01-01T00:00:00Z</time>
      </trkpt>
      <trkpt lat="39.164960" lon="-6.077260">
        <ele>292.1</ele>
        <time>1970-01-01T00:00:00Z</time>
      </trkpt>
      <trkpt lat="39.165090" lon="-6.076980">
        <ele>292.4</ele>
        <time>1970-01-01T00:00:00Z</time>
      </trkpt>
      <trkpt lat="39.165240" lon="-6.076600">
        <ele>292.8</ele>
        <time>1970-01-01T00:00:00Z</time>
      </trkpt>
      <trkpt lat="39.165190" lon="-6.076470">
        <ele>292.2</ele>
        <time>1970-01-01T00:00:00Z</time>
      </trkpt>
      <trkpt lat="39.165120" lon="-6.076380">
        <ele>291.5</ele>
        <time>1970-01-01T00:00:00Z</time>
      </trkpt>
      <trkpt lat="39.164480" lon="-6.075770">
        <ele>285.8</ele>
        <time>1970-01-01T00:00:00Z</time>
      </trkpt>
      <trkpt lat="39.163960" lon="-6.075130">
        <ele>285.4</ele>
        <time>1970-01-01T00:00:00Z</time>
      </trkpt>
      <trkpt lat="39.163650" lon="-6.074600">
        <ele>288.6</ele>
        <time>1970-01-01T00:00:00Z</time>
      </trkpt>
      <trkpt lat="39.163590" lon="-6.074510">
        <ele>289.2</ele>
        <time>1970-01-01T00:00:00Z</time>
      </trkpt>
      <trkpt lat="39.163380" lon="-6.074330">
        <ele>290.9</ele>
        <time>1970-01-01T00:00:00Z</time>
      </trkpt>
      <trkpt lat="39.163330" lon="-6.074300">
        <ele>291.2</ele>
        <time>1970-01-01T00:00:00Z</time>
      </trkpt>
      <trkpt lat="39.163330" lon="-6.074300">
        <ele>291.2</ele>
        <time>1970-01-01T00:00:00Z</time>
      </trkpt>
      <trkpt lat="39.163300" lon="-6.074160">
        <ele>292.1</ele>
        <time>1970-01-01T00:00:00Z</time>
      </trkpt>
      <trkpt lat="39.163380" lon="-6.073780">
        <ele>293.5</ele>
        <time>1970-01-01T00:00:00Z</time>
      </trkpt>
      <trkpt lat="39.163600" lon="-6.072400">
        <ele>290.6</ele>
        <time>1970-01-01T00:00:00Z</time>
      </trkpt>
      <trkpt lat="39.163780" lon="-6.071170">
        <ele>289.8</ele>
        <time>1970-01-01T00:00:00Z</time>
      </trkpt>
      <trkpt lat="39.163900" lon="-6.070230">
        <ele>292.0</ele>
        <time>1970-01-01T00:00:00Z</time>
      </trkpt>
      <trkpt lat="39.163920" lon="-6.070020">
        <ele>292.3</ele>
        <time>1970-01-01T00:00:00Z</time>
      </trkpt>
      <trkpt lat="39.164040" lon="-6.069720">
        <ele>292.9</ele>
        <time>1970-01-01T00:00:00Z</time>
      </trkpt>
      <trkpt lat="39.164530" lon="-6.068650">
        <ele>293.2</ele>
        <time>1970-01-01T00:00:00Z</time>
      </trkpt>
      <trkpt lat="39.164600" lon="-6.068500">
        <ele>293.1</ele>
        <time>1970-01-01T00:00:00Z</time>
      </trkpt>
      <trkpt lat="39.164730" lon="-6.068230">
        <ele>293.4</ele>
        <time>1970-01-01T00:00:00Z</time>
      </trkpt>
      <trkpt lat="39.165100" lon="-6.067190">
        <ele>291.7</ele>
        <time>1970-01-01T00:00:00Z</time>
      </trkpt>
      <trkpt lat="39.165490" lon="-6.065780">
        <ele>291.7</ele>
        <time>1970-01-01T00:00:00Z</time>
      </trkpt>
      <trkpt lat="39.165690" lon="-6.065050">
        <ele>293.4</ele>
        <time>1970-01-01T00:00:00Z</time>
      </trkpt>
      <trkpt lat="39.166020" lon="-6.064110">
        <ele>290.1</ele>
        <time>1970-01-01T00:00:00Z</time>
      </trkpt>
      <trkpt lat="39.166110" lon="-6.063540">
        <ele>289.0</ele>
        <time>1970-01-01T00:00:00Z</time>
      </trkpt>
      <trkpt lat="39.166280" lon="-6.061850">
        <ele>285.5</ele>
        <time>1970-01-01T00:00:00Z</time>
      </trkpt>
      <trkpt lat="39.166360" lon="-6.061230">
        <ele>283.2</ele>
        <time>1970-01-01T00:00:00Z</time>
      </trkpt>
      <trkpt lat="39.166650" lon="-6.059880">
        <ele>279.6</ele>
        <time>1970-01-01T00:00:00Z</time>
      </trkpt>
      <trkpt lat="39.166700" lon="-6.059650">
        <ele>279.4</ele>
        <time>1970-01-01T00:00:00Z</time>
      </trkpt>
      <trkpt lat="39.166680" lon="-6.059490">
        <ele>279.4</ele>
        <time>1970-01-01T00:00:00Z</time>
      </trkpt>
      <trkpt lat="39.166670" lon="-6.059190">
        <ele>279.0</ele>
        <time>1970-01-01T00:00:00Z</time>
      </trkpt>
      <trkpt lat="39.166450" lon="-6.058290">
        <ele>280.0</ele>
        <time>1970-01-01T00:00:00Z</time>
      </trkpt>
      <trkpt lat="39.166440" lon="-6.057840">
        <ele>278.7</ele>
        <time>1970-01-01T00:00:00Z</time>
      </trkpt>
      <trkpt lat="39.166470" lon="-6.057620">
        <ele>277.7</ele>
        <time>1970-01-01T00:00:00Z</time>
      </trkpt>
      <trkpt lat="39.166450" lon="-6.056050">
        <ele>272.0</ele>
        <time>1970-01-01T00:00:00Z</time>
      </trkpt>
      <trkpt lat="39.166440" lon="-6.055940">
        <ele>272.0</ele>
        <time>1970-01-01T00:00:00Z</time>
      </trkpt>
      <trkpt lat="39.166230" lon="-6.055940">
        <ele>271.8</ele>
        <time>1970-01-01T00:00:00Z</time>
      </trkpt>
      <trkpt lat="39.166100" lon="-6.055910">
        <ele>271.4</ele>
        <time>1970-01-01T00:00:00Z</time>
      </trkpt>
      <trkpt lat="39.166110" lon="-6.055910">
        <ele>271.3</ele>
        <time>1970-01-01T00:00:00Z</time>
      </trkpt>
      <trkpt lat="39.165870" lon="-6.055820">
        <ele>272.0</ele>
        <time>1970-01-01T00:00:00Z</time>
      </trkpt>
      <trkpt lat="39.165710" lon="-6.055540">
        <ele>272.9</ele>
        <time>1970-01-01T00:00:00Z</time>
      </trkpt>
      <trkpt lat="39.165380" lon="-6.054490">
        <ele>274.2</ele>
        <time>1970-01-01T00:00:00Z</time>
      </trkpt>
      <trkpt lat="39.164670" lon="-6.053270">
        <ele>276.0</ele>
        <time>1970-01-01T00:00:00Z</time>
      </trkpt>
      <trkpt lat="39.164440" lon="-6.052950">
        <ele>276.1</ele>
        <time>1970-01-01T00:00:00Z</time>
      </trkpt>
      <trkpt lat="39.163730" lon="-6.051930">
        <ele>271.4</ele>
        <time>1970-01-01T00:00:00Z</time>
      </trkpt>
      <trkpt lat="39.163520" lon="-6.051570">
        <ele>271.3</ele>
        <time>1970-01-01T00:00:00Z</time>
      </trkpt>
      <trkpt lat="39.163290" lon="-6.050960">
        <ele>272.2</ele>
        <time>1970-01-01T00:00:00Z</time>
      </trkpt>
      <trkpt lat="39.163010" lon="-6.050390">
        <ele>271.8</ele>
        <time>1970-01-01T00:00:00Z</time>
      </trkpt>
      <trkpt lat="39.162890" lon="-6.050260">
        <ele>271.0</ele>
        <time>1970-01-01T00:00:00Z</time>
      </trkpt>
      <trkpt lat="39.162780" lon="-6.050080">
        <ele>269.8</ele>
        <time>1970-01-01T00:00:00Z</time>
      </trkpt>
      <trkpt lat="39.162740" lon="-6.049930">
        <ele>268.5</ele>
        <time>1970-01-01T00:00:00Z</time>
      </trkpt>
      <trkpt lat="39.162930" lon="-6.049690">
        <ele>268.0</ele>
        <time>1970-01-01T00:00:00Z</time>
      </trkpt>
      <trkpt lat="39.162990" lon="-6.049690">
        <ele>268.6</ele>
        <time>1970-01-01T00:00:00Z</time>
      </trkpt>
      <trkpt lat="39.162790" lon="-6.049670">
        <ele>267.1</ele>
        <time>1970-01-01T00:00:00Z</time>
      </trkpt>
      <trkpt lat="39.162790" lon="-6.049680">
        <ele>267.1</ele>
        <time>1970-01-01T00:00:00Z</time>
      </trkpt>
      <trkpt lat="39.162990" lon="-6.049720">
        <ele>268.7</ele>
        <time>1970-01-01T00:00:00Z</time>
      </trkpt>
      <trkpt lat="39.163320" lon="-6.049630">
        <ele>271.1</ele>
        <time>1970-01-01T00:00:00Z</time>
      </trkpt>
      <trkpt lat="39.163340" lon="-6.049640">
        <ele>271.4</ele>
        <time>1970-01-01T00:00:00Z</time>
      </trkpt>
      <trkpt lat="39.163340" lon="-6.049640">
        <ele>271.4</ele>
        <time>1970-01-01T00:00:00Z</time>
      </trkpt>
      <trkpt lat="39.163580" lon="-6.049560">
        <ele>273.2</ele>
        <time>1970-01-01T00:00:00Z</time>
      </trkpt>
      <trkpt lat="39.164440" lon="-6.049160">
        <ele>277.0</ele>
        <time>1970-01-01T00:00:00Z</time>
      </trkpt>
      <trkpt lat="39.166090" lon="-6.048750">
        <ele>269.0</ele>
        <time>1970-01-01T00:00:00Z</time>
      </trkpt>
      <trkpt lat="39.167430" lon="-6.048240">
        <ele>272.9</ele>
        <time>1970-01-01T00:00:00Z</time>
      </trkpt>
      <trkpt lat="39.168790" lon="-6.047750">
        <ele>275.6</ele>
        <time>1970-01-01T00:00:00Z</time>
      </trkpt>
      <trkpt lat="39.168860" lon="-6.047740">
        <ele>275.9</ele>
        <time>1970-01-01T00:00:00Z</time>
      </trkpt>
      <trkpt lat="39.169010" lon="-6.047700">
        <ele>276.5</ele>
        <time>1970-01-01T00:00:00Z</time>
      </trkpt>
      <trkpt lat="39.169290" lon="-6.047650">
        <ele>278.3</ele>
        <time>1970-01-01T00:00:00Z</time>
      </trkpt>
      <trkpt lat="39.169690" lon="-6.047570">
        <ele>280.6</ele>
        <time>1970-01-01T00:00:00Z</time>
      </trkpt>
      <trkpt lat="39.170940" lon="-6.047160">
        <ele>277.6</ele>
        <time>1970-01-01T00:00:00Z</time>
      </trkpt>
      <trkpt lat="39.171570" lon="-6.047040">
        <ele>275.6</ele>
        <time>1970-01-01T00:00:00Z</time>
      </trkpt>
      <trkpt lat="39.171620" lon="-6.047020">
        <ele>275.8</ele>
        <time>1970-01-01T00:00:00Z</time>
      </trkpt>
      <trkpt lat="39.171860" lon="-6.046970">
        <ele>276.0</ele>
        <time>1970-01-01T00:00:00Z</time>
      </trkpt>
      <trkpt lat="39.172720" lon="-6.046780">
        <ele>280.0</ele>
        <time>1970-01-01T00:00:00Z</time>
      </trkpt>
      <trkpt lat="39.173690" lon="-6.046760">
        <ele>280.8</ele>
        <time>1970-01-01T00:00:00Z</time>
      </trkpt>
      <trkpt lat="39.173760" lon="-6.046750">
        <ele>281.1</ele>
        <time>1970-01-01T00:00:00Z</time>
      </trkpt>
      <trkpt lat="39.174190" lon="-6.046750">
        <ele>284.1</ele>
        <time>1970-01-01T00:00:00Z</time>
      </trkpt>
      <trkpt lat="39.174420" lon="-6.046780">
        <ele>286.8</ele>
        <time>1970-01-01T00:00:00Z</time>
      </trkpt>
      <trkpt lat="39.174830" lon="-6.046600">
        <ele>288.7</ele>
        <time>1970-01-01T00:00:00Z</time>
      </trkpt>
      <trkpt lat="39.175150" lon="-6.046200">
        <ele>291.7</ele>
        <time>1970-01-01T00:00:00Z</time>
      </trkpt>
      <trkpt lat="39.175360" lon="-6.045800">
        <ele>294.3</ele>
        <time>1970-01-01T00:00:00Z</time>
      </trkpt>
      <trkpt lat="39.175430" lon="-6.045670">
        <ele>295.2</ele>
        <time>1970-01-01T00:00:00Z</time>
      </trkpt>
      <trkpt lat="39.175650" lon="-6.045460">
        <ele>297.9</ele>
        <time>1970-01-01T00:00:00Z</time>
      </trkpt>
      <trkpt lat="39.175850" lon="-6.045320">
        <ele>299.5</ele>
        <time>1970-01-01T00:00:00Z</time>
      </trkpt>
      <trkpt lat="39.176060" lon="-6.045010">
        <ele>302.5</ele>
        <time>1970-01-01T00:00:00Z</time>
      </trkpt>
      <trkpt lat="39.176280" lon="-6.044640">
        <ele>304.0</ele>
        <time>1970-01-01T00:00:00Z</time>
      </trkpt>
      <trkpt lat="39.176410" lon="-6.044310">
        <ele>304.9</ele>
        <time>1970-01-01T00:00:00Z</time>
      </trkpt>
      <trkpt lat="39.176370" lon="-6.044094">
        <ele>304.7</ele>
        <time>1970-01-01T00:00:00Z</time>
      </trkpt>
      <trkpt lat="39.176241" lon="-6.043885">
        <ele>303.6</ele>
        <time>1970-01-01T00:00:00Z</time>
      </trkpt>
      <trkpt lat="39.175591" lon="-6.043742">
        <ele>298.5</ele>
        <time>1970-01-01T00:00:00Z</time>
      </trkpt>
      <trkpt lat="39.175214" lon="-6.043523">
        <ele>294.3</ele>
        <time>1970-01-01T00:00:00Z</time>
      </trkpt>
      <trkpt lat="39.174949" lon="-6.043338">
        <ele>290.5</ele>
        <time>1970-01-01T00:00:00Z</time>
      </trkpt>
      <trkpt lat="39.174713" lon="-6.042894">
        <ele>288.1</ele>
        <time>1970-01-01T00:00:00Z</time>
      </trkpt>
      <trkpt lat="39.174214" lon="-6.042149">
        <ele>286.8</ele>
        <time>1970-01-01T00:00:00Z</time>
      </trkpt>
      <trkpt lat="39.173867" lon="-6.041642">
        <ele>285.4</ele>
        <time>1970-01-01T00:00:00Z</time>
      </trkpt>
      <trkpt lat="39.173342" lon="-6.041070">
        <ele>282.6</ele>
        <time>1970-01-01T00:00:00Z</time>
      </trkpt>
      <trkpt lat="39.173190" lon="-6.040861">
        <ele>281.3</ele>
        <time>1970-01-01T00:00:00Z</time>
      </trkpt>
      <trkpt lat="39.173151" lon="-6.040627">
        <ele>279.9</ele>
        <time>1970-01-01T00:00:00Z</time>
      </trkpt>
      <trkpt lat="39.173157" lon="-6.040367">
        <ele>278.7</ele>
        <time>1970-01-01T00:00:00Z</time>
      </trkpt>
      <trkpt lat="39.173162" lon="-6.040194">
        <ele>278.2</ele>
        <time>1970-01-01T00:00:00Z</time>
      </trkpt>
      <trkpt lat="39.173180" lon="-6.040080">
        <ele>277.9</ele>
        <time>1970-01-01T00:00:00Z</time>
      </trkpt>
      <trkpt lat="39.173170" lon="-6.039530">
        <ele>277.0</ele>
        <time>1970-01-01T00:00:00Z</time>
      </trkpt>
      <trkpt lat="39.173150" lon="-6.038830">
        <ele>277.7</ele>
        <time>1970-01-01T00:00:00Z</time>
      </trkpt>
      <trkpt lat="39.173060" lon="-6.038630">
        <ele>278.3</ele>
        <time>1970-01-01T00:00:00Z</time>
      </trkpt>
      <trkpt lat="39.173070" lon="-6.038640">
        <ele>278.3</ele>
        <time>1970-01-01T00:00:00Z</time>
      </trkpt>
      <trkpt lat="39.173080" lon="-6.038240">
        <ele>278.3</ele>
        <time>1970-01-01T00:00:00Z</time>
      </trkpt>
      <trkpt lat="39.173030" lon="-6.037040">
        <ele>281.0</ele>
        <time>1970-01-01T00:00:00Z</time>
      </trkpt>
      <trkpt lat="39.172970" lon="-6.035640">
        <ele>280.2</ele>
        <time>1970-01-01T00:00:00Z</time>
      </trkpt>
      <trkpt lat="39.172880" lon="-6.034290">
        <ele>285.7</ele>
        <time>1970-01-01T00:00:00Z</time>
      </trkpt>
      <trkpt lat="39.172870" lon="-6.034030">
        <ele>286.2</ele>
        <time>1970-01-01T00:00:00Z</time>
      </trkpt>
      <trkpt lat="39.172900" lon="-6.033740">
        <ele>287.0</ele>
        <time>1970-01-01T00:00:00Z</time>
      </trkpt>
      <trkpt lat="39.172930" lon="-6.032900">
        <ele>285.5</ele>
        <time>1970-01-01T00:00:00Z</time>
      </trkpt>
      <trkpt lat="39.172940" lon="-6.031750">
        <ele>284.7</ele>
        <time>1970-01-01T00:00:00Z</time>
      </trkpt>
      <trkpt lat="39.172820" lon="-6.030700">
        <ele>287.0</ele>
        <time>1970-01-01T00:00:00Z</time>
      </trkpt>
      <trkpt lat="39.172750" lon="-6.030410">
        <ele>286.7</ele>
        <time>1970-01-01T00:00:00Z</time>
      </trkpt>
      <trkpt lat="39.172750" lon="-6.030410">
        <ele>286.7</ele>
        <time>1970-01-01T00:00:00Z</time>
      </trkpt>
      <trkpt lat="39.172640" lon="-6.030260">
        <ele>285.4</ele>
        <time>1970-01-01T00:00:00Z</time>
      </trkpt>
      <trkpt lat="39.172490" lon="-6.030070">
        <ele>284.4</ele>
        <time>1970-01-01T00:00:00Z</time>
      </trkpt>
      <trkpt lat="39.172290" lon="-6.029150">
        <ele>287.0</ele>
        <time>1970-01-01T00:00:00Z</time>
      </trkpt>
      <trkpt lat="39.172260" lon="-6.028970">
        <ele>288.3</ele>
        <time>1970-01-01T00:00:00Z</time>
      </trkpt>
      <trkpt lat="39.172300" lon="-6.028630">
        <ele>291.2</ele>
        <time>1970-01-01T00:00:00Z</time>
      </trkpt>
      <trkpt lat="39.172400" lon="-6.028400">
        <ele>292.9</ele>
        <time>1970-01-01T00:00:00Z</time>
      </trkpt>
      <trkpt lat="39.172400" lon="-6.028400">
        <ele>292.9</ele>
        <time>1970-01-01T00:00:00Z</time>
      </trkpt>
      <trkpt lat="39.172420" lon="-6.028330">
        <ele>293.4</ele>
        <time>1970-01-01T00:00:00Z</time>
      </trkpt>
      <trkpt lat="39.172470" lon="-6.028050">
        <ele>295.5</ele>
        <time>1970-01-01T00:00:00Z</time>
      </trkpt>
      <trkpt lat="39.172510" lon="-6.027780">
        <ele>296.9</ele>
        <time>1970-01-01T00:00:00Z</time>
      </trkpt>
      <trkpt lat="39.172490" lon="-6.026870">
        <ele>296.5</ele>
        <time>1970-01-01T00:00:00Z</time>
      </trkpt>
      <trkpt lat="39.172320" lon="-6.025850">
        <ele>288.3</ele>
        <time>1970-01-01T00:00:00Z</time>
      </trkpt>
      <trkpt lat="39.172280" lon="-6.025540">
        <ele>286.8</ele>
        <time>1970-01-01T00:00:00Z</time>
      </trkpt>
      <trkpt lat="39.171830" lon="-6.024030">
        <ele>283.6</ele>
        <time>1970-01-01T00:00:00Z</time>
      </trkpt>
      <trkpt lat="39.171780" lon="-6.023800">
        <ele>284.8</ele>
        <time>1970-01-01T00:00:00Z</time>
      </trkpt>
      <trkpt lat="39.171760" lon="-6.022950">
        <ele>289.2</ele>
        <time>1970-01-01T00:00:00Z</time>
      </trkpt>
      <trkpt lat="39.171670" lon="-6.021440">
        <ele>292.4</ele>
        <time>1970-01-01T00:00:00Z</time>
      </trkpt>
      <trkpt lat="39.171880" lon="-6.020420">
        <ele>293.1</ele>
        <time>1970-01-01T00:00:00Z</time>
      </trkpt>
      <trkpt lat="39.172010" lon="-6.019990">
        <ele>294.3</ele>
        <time>1970-01-01T00:00:00Z</time>
      </trkpt>
      <trkpt lat="39.172270" lon="-6.018910">
        <ele>296.5</ele>
        <time>1970-01-01T00:00:00Z</time>
      </trkpt>
      <trkpt lat="39.172360" lon="-6.018510">
        <ele>298.0</ele>
        <time>1970-01-01T00:00:00Z</time>
      </trkpt>
      <trkpt lat="39.172790" lon="-6.017640">
        <ele>300.0</ele>
        <time>1970-01-01T00:00:00Z</time>
      </trkpt>
      <trkpt lat="39.173000" lon="-6.016920">
        <ele>299.9</ele>
        <time>1970-01-01T00:00:00Z</time>
      </trkpt>
      <trkpt lat="39.172990" lon="-6.016910">
        <ele>299.9</ele>
        <time>1970-01-01T00:00:00Z</time>
      </trkpt>
      <trkpt lat="39.172990" lon="-6.016910">
        <ele>299.9</ele>
        <time>1970-01-01T00:00:00Z</time>
      </trkpt>
      <trkpt lat="39.173000" lon="-6.016810">
        <ele>299.5</ele>
        <time>1970-01-01T00:00:00Z</time>
      </trkpt>
      <trkpt lat="39.173070" lon="-6.015890">
        <ele>298.9</ele>
        <time>1970-01-01T00:00:00Z</time>
      </trkpt>
      <trkpt lat="39.173090" lon="-6.014900">
        <ele>298.8</ele>
        <time>1970-01-01T00:00:00Z</time>
      </trkpt>
      <trkpt lat="39.173110" lon="-6.014700">
        <ele>298.2</ele>
        <time>1970-01-01T00:00:00Z</time>
      </trkpt>
      <trkpt lat="39.172960" lon="-6.013650">
        <ele>298.0</ele>
        <time>1970-01-01T00:00:00Z</time>
      </trkpt>
      <trkpt lat="39.172900" lon="-6.013210">
        <ele>298.0</ele>
        <time>1970-01-01T00:00:00Z</time>
      </trkpt>
      <trkpt lat="39.172900" lon="-6.012990">
        <ele>298.0</ele>
        <time>1970-01-01T00:00:00Z</time>
      </trkpt>
      <trkpt lat="39.172880" lon="-6.011920">
        <ele>299.7</ele>
        <time>1970-01-01T00:00:00Z</time>
      </trkpt>
      <trkpt lat="39.172930" lon="-6.011080">
        <ele>303.3</ele>
        <time>1970-01-01T00:00:00Z</time>
      </trkpt>
      <trkpt lat="39.173320" lon="-6.010300">
        <ele>304.4</ele>
        <time>1970-01-01T00:00:00Z</time>
      </trkpt>
      <trkpt lat="39.173860" lon="-6.009450">
        <ele>302.8</ele>
        <time>1970-01-01T00:00:00Z</time>
      </trkpt>
      <trkpt lat="39.174540" lon="-6.008200">
        <ele>293.7</ele>
        <time>1970-01-01T00:00:00Z</time>
      </trkpt>
      <trkpt lat="39.174910" lon="-6.007540">
        <ele>291.6</ele>
        <time>1970-01-01T00:00:00Z</time>
      </trkpt>
      <trkpt lat="39.175020" lon="-6.007420">
        <ele>291.6</ele>
        <time>1970-01-01T00:00:00Z</time>
      </trkpt>
      <trkpt lat="39.175110" lon="-6.007440">
        <ele>291.2</ele>
        <time>1970-01-01T00:00:00Z</time>
      </trkpt>
      <trkpt lat="39.175230" lon="-6.007370">
        <ele>290.9</ele>
        <time>1970-01-01T00:00:00Z</time>
      </trkpt>
      <trkpt lat="39.175290" lon="-6.007310">
        <ele>290.9</ele>
        <time>1970-01-01T00:00:00Z</time>
      </trkpt>
      <trkpt lat="39.175410" lon="-6.006980">
        <ele>292.3</ele>
        <time>1970-01-01T00:00:00Z</time>
      </trkpt>
      <trkpt lat="39.175620" lon="-6.006280">
        <ele>294.2</ele>
        <time>1970-01-01T00:00:00Z</time>
      </trkpt>
      <trkpt lat="39.175650" lon="-6.005600">
        <ele>293.2</ele>
        <time>1970-01-01T00:00:00Z</time>
      </trkpt>
      <trkpt lat="39.175710" lon="-6.004810">
        <ele>292.0</ele>
        <time>1970-01-01T00:00:00Z</time>
      </trkpt>
      <trkpt lat="39.175750" lon="-6.004660">
        <ele>292.0</ele>
        <time>1970-01-01T00:00:00Z</time>
      </trkpt>
      <trkpt lat="39.176170" lon="-6.003370">
        <ele>289.2</ele>
        <time>1970-01-01T00:00:00Z</time>
      </trkpt>
      <trkpt lat="39.176230" lon="-6.003230">
        <ele>288.7</ele>
        <time>1970-01-01T00:00:00Z</time>
      </trkpt>
      <trkpt lat="39.176420" lon="-6.002620">
        <ele>286.4</ele>
        <time>1970-01-01T00:00:00Z</time>
      </trkpt>
      <trkpt lat="39.176450" lon="-6.002570">
        <ele>286.1</ele>
        <time>1970-01-01T00:00:00Z</time>
      </trkpt>
      <trkpt lat="39.176750" lon="-6.002090">
        <ele>282.2</ele>
        <time>1970-01-01T00:00:00Z</time>
      </trkpt>
      <trkpt lat="39.176850" lon="-6.001870">
        <ele>282.4</ele>
        <time>1970-01-01T00:00:00Z</time>
      </trkpt>
      <trkpt lat="39.176890" lon="-6.001700">
        <ele>281.5</ele>
        <time>1970-01-01T00:00:00Z</time>
      </trkpt>
      <trkpt lat="39.176920" lon="-6.001410">
        <ele>280.6</ele>
        <time>1970-01-01T00:00:00Z</time>
      </trkpt>
      <trkpt lat="39.177020" lon="-6.001130">
        <ele>281.2</ele>
        <time>1970-01-01T00:00:00Z</time>
      </trkpt>
      <trkpt lat="39.177040" lon="-6.001060">
        <ele>281.4</ele>
        <time>1970-01-01T00:00:00Z</time>
      </trkpt>
      <trkpt lat="39.177090" lon="-6.000590">
        <ele>281.7</ele>
        <time>1970-01-01T00:00:00Z</time>
      </trkpt>
      <trkpt lat="39.177170" lon="-5.999880">
        <ele>282.0</ele>
        <time>1970-01-01T00:00:00Z</time>
      </trkpt>
      <trkpt lat="39.177130" lon="-5.999530">
        <ele>282.7</ele>
        <time>1970-01-01T00:00:00Z</time>
      </trkpt>
      <trkpt lat="39.177210" lon="-5.999200">
        <ele>283.0</ele>
        <time>1970-01-01T00:00:00Z</time>
      </trkpt>
      <trkpt lat="39.177790" lon="-5.998320">
        <ele>287.2</ele>
        <time>1970-01-01T00:00:00Z</time>
      </trkpt>
      <trkpt lat="39.178310" lon="-5.997550">
        <ele>285.2</ele>
        <time>1970-01-01T00:00:00Z</time>
      </trkpt>
      <trkpt lat="39.178570" lon="-5.997150">
        <ele>285.9</ele>
        <time>1970-01-01T00:00:00Z</time>
      </trkpt>
      <trkpt lat="39.178560" lon="-5.997140">
        <ele>285.8</ele>
        <time>1970-01-01T00:00:00Z</time>
      </trkpt>
      <trkpt lat="39.178603" lon="-5.997076">
        <ele>286.0</ele>
        <time>1970-01-01T00:00:00Z</time>
      </trkpt>
      <trkpt lat="39.178836" lon="-5.996518">
        <ele>287.3</ele>
        <time>1970-01-01T00:00:00Z</time>
      </trkpt>
      <trkpt lat="39.178953" lon="-5.995853">
        <ele>288.6</ele>
        <time>1970-01-01T00:00:00Z</time>
      </trkpt>
      <trkpt lat="39.179002" lon="-5.995059">
        <ele>292.8</ele>
        <time>1970-01-01T00:00:00Z</time>
      </trkpt>
      <trkpt lat="39.179235" lon="-5.994201">
        <ele>297.7</ele>
        <time>1970-01-01T00:00:00Z</time>
      </trkpt>
      <trkpt lat="39.179368" lon="-5.993493">
        <ele>298.6</ele>
        <time>1970-01-01T00:00:00Z</time>
      </trkpt>
      <trkpt lat="39.179352" lon="-5.992849">
        <ele>295.6</ele>
        <time>1970-01-01T00:00:00Z</time>
      </trkpt>
      <trkpt lat="39.179219" lon="-5.992270">
        <ele>292.1</ele>
        <time>1970-01-01T00:00:00Z</time>
      </trkpt>
      <trkpt lat="39.179684" lon="-5.990188">
        <ele>289.3</ele>
        <time>1970-01-01T00:00:00Z</time>
      </trkpt>
      <trkpt lat="39.179019" lon="-5.989759">
        <ele>286.5</ele>
        <time>1970-01-01T00:00:00Z</time>
      </trkpt>
      <trkpt lat="39.178819" lon="-5.989630">
        <ele>287.1</ele>
        <time>1970-01-01T00:00:00Z</time>
      </trkpt>
      <trkpt lat="39.178636" lon="-5.989780">
        <ele>286.7</ele>
        <time>1970-01-01T00:00:00Z</time>
      </trkpt>
      <trkpt lat="39.178470" lon="-5.989652">
        <ele>287.9</ele>
        <time>1970-01-01T00:00:00Z</time>
      </trkpt>
      <trkpt lat="39.177954" lon="-5.989845">
        <ele>288.8</ele>
        <time>1970-01-01T00:00:00Z</time>
      </trkpt>
      <trkpt lat="39.177838" lon="-5.989609">
        <ele>289.1</ele>
        <time>1970-01-01T00:00:00Z</time>
      </trkpt>
      <trkpt lat="39.177772" lon="-5.988815">
        <ele>290.0</ele>
        <time>1970-01-01T00:00:00Z</time>
      </trkpt>
      <trkpt lat="39.177597" lon="-5.988500">
        <ele>290.7</ele>
        <time>1970-01-01T00:00:00Z</time>
      </trkpt>
      <trkpt lat="39.177618" lon="-5.988385">
        <ele>290.5</ele>
        <time>1970-01-01T00:00:00Z</time>
      </trkpt>
      <trkpt lat="39.177723" lon="-5.988135">
        <ele>289.8</ele>
        <time>1970-01-01T00:00:00Z</time>
      </trkpt>
      <trkpt lat="39.177626" lon="-5.987691">
        <ele>289.2</ele>
        <time>1970-01-01T00:00:00Z</time>
      </trkpt>
      <trkpt lat="39.177530" lon="-5.987330">
        <ele>287.7</ele>
        <time>1970-01-01T00:00:00Z</time>
      </trkpt>
      <trkpt lat="39.177380" lon="-5.987290">
        <ele>288.5</ele>
        <time>1970-01-01T00:00:00Z</time>
      </trkpt>
      <trkpt lat="39.177270" lon="-5.987290">
        <ele>289.3</ele>
        <time>1970-01-01T00:00:00Z</time>
      </trkpt>
      <trkpt lat="39.177210" lon="-5.987300">
        <ele>289.9</ele>
        <time>1970-01-01T00:00:00Z</time>
      </trkpt>
      <trkpt lat="39.177020" lon="-5.987280">
        <ele>291.4</ele>
        <time>1970-01-01T00:00:00Z</time>
      </trkpt>
      <trkpt lat="39.176650" lon="-5.986990">
        <ele>294.3</ele>
        <time>1970-01-01T00:00:00Z</time>
      </trkpt>
      <trkpt lat="39.176490" lon="-5.986630">
        <ele>294.6</ele>
        <time>1970-01-01T00:00:00Z</time>
      </trkpt>
      <trkpt lat="39.176420" lon="-5.986450">
        <ele>294.7</ele>
        <time>1970-01-01T00:00:00Z</time>
      </trkpt>
      <trkpt lat="39.176330" lon="-5.986290">
        <ele>295.0</ele>
        <time>1970-01-01T00:00:00Z</time>
      </trkpt>
      <trkpt lat="39.176240" lon="-5.986140">
        <ele>295.5</ele>
        <time>1970-01-01T00:00:00Z</time>
      </trkpt>
      <trkpt lat="39.176060" lon="-5.985910">
        <ele>297.0</ele>
        <time>1970-01-01T00:00:00Z</time>
      </trkpt>
      <trkpt lat="39.175890" lon="-5.985750">
        <ele>297.9</ele>
        <time>1970-01-01T00:00:00Z</time>
      </trkpt>
      <trkpt lat="39.175640" lon="-5.985370">
        <ele>300.0</ele>
        <time>1970-01-01T00:00:00Z</time>
      </trkpt>
      <trkpt lat="39.175420" lon="-5.985030">
        <ele>303.3</ele>
        <time>1970-01-01T00:00:00Z</time>
      </trkpt>
      <trkpt lat="39.175100" lon="-5.984870">
        <ele>308.6</ele>
        <time>1970-01-01T00:00:00Z</time>
      </trkpt>
      <trkpt lat="39.174770" lon="-5.984810">
        <ele>315.2</ele>
        <time>1970-01-01T00:00:00Z</time>
      </trkpt>
      <trkpt lat="39.174450" lon="-5.984760">
        <ele>320.8</ele>
        <time>1970-01-01T00:00:00Z</time>
      </trkpt>
      <trkpt lat="39.174140" lon="-5.984740">
        <ele>325.6</ele>
        <time>1970-01-01T00:00:00Z</time>
      </trkpt>
      <trkpt lat="39.174020" lon="-5.984740">
        <ele>326.6</ele>
        <time>1970-01-01T00:00:00Z</time>
      </trkpt>
      <trkpt lat="39.174010" lon="-5.984730">
        <ele>326.7</ele>
        <time>1970-01-01T00:00:00Z</time>
      </trkpt>
      <trkpt lat="39.173730" lon="-5.984710">
        <ele>327.7</ele>
        <time>1970-01-01T00:00:00Z</time>
      </trkpt>
      <trkpt lat="39.173500" lon="-5.984660">
        <ele>327.0</ele>
        <time>1970-01-01T00:00:00Z</time>
      </trkpt>
      <trkpt lat="39.173200" lon="-5.984440">
        <ele>325.7</ele>
        <time>1970-01-01T00:00:00Z</time>
      </trkpt>
      <trkpt lat="39.172740" lon="-5.984200">
        <ele>323.4</ele>
        <time>1970-01-01T00:00:00Z</time>
      </trkpt>
      <trkpt lat="39.172230" lon="-5.984170">
        <ele>323.5</ele>
        <time>1970-01-01T00:00:00Z</time>
      </trkpt>
      <trkpt lat="39.171850" lon="-5.984130">
        <ele>326.1</ele>
        <time>1970-01-01T00:00:00Z</time>
      </trkpt>
      <trkpt lat="39.171320" lon="-5.984030">
        <ele>328.0</ele>
        <time>1970-01-01T00:00:00Z</time>
      </trkpt>
      <trkpt lat="39.170810" lon="-5.983840">
        <ele>330.4</ele>
        <time>1970-01-01T00:00:00Z</time>
      </trkpt>
      <trkpt lat="39.170500" lon="-5.983580">
        <ele>334.3</ele>
        <time>1970-01-01T00:00:00Z</time>
      </trkpt>
      <trkpt lat="39.170370" lon="-5.983490">
        <ele>336.2</ele>
        <time>1970-01-01T00:00:00Z</time>
      </trkpt>
      <trkpt lat="39.169890" lon="-5.983000">
        <ele>339.4</ele>
        <time>1970-01-01T00:00:00Z</time>
      </trkpt>
      <trkpt lat="39.169560" lon="-5.982810">
        <ele>339.4</ele>
        <time>1970-01-01T00:00:00Z</time>
      </trkpt>
      <trkpt lat="39.169290" lon="-5.982540">
        <ele>337.5</ele>
        <time>1970-01-01T00:00:00Z</time>
      </trkpt>
      <trkpt lat="39.169130" lon="-5.982310">
        <ele>336.7</ele>
        <time>1970-01-01T00:00:00Z</time>
      </trkpt>
      <trkpt lat="39.169050" lon="-5.982170">
        <ele>336.8</ele>
        <time>1970-01-01T00:00:00Z</time>
      </trkpt>
      <trkpt lat="39.168510" lon="-5.981740">
        <ele>335.0</ele>
        <time>1970-01-01T00:00:00Z</time>
      </trkpt>
      <trkpt lat="39.168130" lon="-5.981320">
        <ele>335.9</ele>
        <time>1970-01-01T00:00:00Z</time>
      </trkpt>
      <trkpt lat="39.167810" lon="-5.981110">
        <ele>336.2</ele>
        <time>1970-01-01T00:00:00Z</time>
      </trkpt>
      <trkpt lat="39.167520" lon="-5.980560">
        <ele>338.5</ele>
        <time>1970-01-01T00:00:00Z</time>
      </trkpt>
      <trkpt lat="39.167160" lon="-5.980180">
        <ele>338.9</ele>
        <time>1970-01-01T00:00:00Z</time>
      </trkpt>
      <trkpt lat="39.166770" lon="-5.979630">
        <ele>339.0</ele>
        <time>1970-01-01T00:00:00Z</time>
      </trkpt>
      <trkpt lat="39.166460" lon="-5.979190">
        <ele>339.1</ele>
        <time>1970-01-01T00:00:00Z</time>
      </trkpt>
      <trkpt lat="39.166300" lon="-5.979050">
        <ele>338.8</ele>
        <time>1970-01-01T00:00:00Z</time>
      </trkpt>
      <trkpt lat="39.166080" lon="-5.978790">
        <ele>337.9</ele>
        <time>1970-01-01T00:00:00Z</time>
      </trkpt>
      <trkpt lat="39.166010" lon="-5.978620">
        <ele>337.6</ele>
        <time>1970-01-01T00:00:00Z</time>
      </trkpt>
      <trkpt lat="39.165730" lon="-5.978200">
        <ele>337.8</ele>
        <time>1970-01-01T00:00:00Z</time>
      </trkpt>
      <trkpt lat="39.165630" lon="-5.977970">
        <ele>338.3</ele>
        <time>1970-01-01T00:00:00Z</time>
      </trkpt>
      <trkpt lat="39.165240" lon="-5.977250">
        <ele>340.0</ele>
        <time>1970-01-01T00:00:00Z</time>
      </trkpt>
      <trkpt lat="39.165090" lon="-5.977010">
        <ele>340.9</ele>
        <time>1970-01-01T00:00:00Z</time>
      </trkpt>
      <trkpt lat="39.164910" lon="-5.976510">
        <ele>343.1</ele>
        <time>1970-01-01T00:00:00Z</time>
      </trkpt>
      <trkpt lat="39.164760" lon="-5.976130">
        <ele>344.3</ele>
        <time>1970-01-01T00:00:00Z</time>
      </trkpt>
      <trkpt lat="39.164460" lon="-5.975480">
        <ele>342.8</ele>
        <time>1970-01-01T00:00:00Z</time>
      </trkpt>
      <trkpt lat="39.163910" lon="-5.974740">
        <ele>340.9</ele>
        <time>1970-01-01T00:00:00Z</time>
      </trkpt>
      <trkpt lat="39.163400" lon="-5.974070">
        <ele>342.3</ele>
        <time>1970-01-01T00:00:00Z</time>
      </trkpt>
      <trkpt lat="39.163210" lon="-5.973610">
        <ele>344.7</ele>
        <time>1970-01-01T00:00:00Z</time>
      </trkpt>
      <trkpt lat="39.163050" lon="-5.973240">
        <ele>346.5</ele>
        <time>1970-01-01T00:00:00Z</time>
      </trkpt>
      <trkpt lat="39.162980" lon="-5.972620">
        <ele>348.0</ele>
        <time>1970-01-01T00:00:00Z</time>
      </trkpt>
      <trkpt lat="39.162950" lon="-5.971930">
        <ele>349.4</ele>
        <time>1970-01-01T00:00:00Z</time>
      </trkpt>
      <trkpt lat="39.162960" lon="-5.971320">
        <ele>349.0</ele>
        <time>1970-01-01T00:00:00Z</time>
      </trkpt>
      <trkpt lat="39.162840" lon="-5.970690">
        <ele>350.0</ele>
        <time>1970-01-01T00:00:00Z</time>
      </trkpt>
      <trkpt lat="39.162760" lon="-5.970050">
        <ele>351.0</ele>
        <time>1970-01-01T00:00:00Z</time>
      </trkpt>
      <trkpt lat="39.162480" lon="-5.969080">
        <ele>352.0</ele>
        <time>1970-01-01T00:00:00Z</time>
      </trkpt>
      <trkpt lat="39.162270" lon="-5.968640">
        <ele>351.6</ele>
        <time>1970-01-01T00:00:00Z</time>
      </trkpt>
      <trkpt lat="39.162070" lon="-5.967790">
        <ele>352.6</ele>
        <time>1970-01-01T00:00:00Z</time>
      </trkpt>
      <trkpt lat="39.161990" lon="-5.967170">
        <ele>354.0</ele>
        <time>1970-01-01T00:00:00Z</time>
      </trkpt>
      <trkpt lat="39.161790" lon="-5.966600">
        <ele>355.5</ele>
        <time>1970-01-01T00:00:00Z</time>
      </trkpt>
      <trkpt lat="39.161750" lon="-5.966500">
        <ele>355.9</ele>
        <time>1970-01-01T00:00:00Z</time>
      </trkpt>
      <trkpt lat="39.161650" lon="-5.966350">
        <ele>356.4</ele>
        <time>1970-01-01T00:00:00Z</time>
      </trkpt>
      <trkpt lat="39.161500" lon="-5.966040">
        <ele>356.1</ele>
        <time>1970-01-01T00:00:00Z</time>
      </trkpt>
      <trkpt lat="39.161480" lon="-5.966090">
        <ele>356.0</ele>
        <time>1970-01-01T00:00:00Z</time>
      </trkpt>
      <trkpt lat="39.161480" lon="-5.966080">
        <ele>356.0</ele>
        <time>1970-01-01T00:00:00Z</time>
      </trkpt>
      <trkpt lat="39.161490" lon="-5.966080">
        <ele>356.1</ele>
        <time>1970-01-01T00:00:00Z</time>
      </trkpt>
      <trkpt lat="39.161480" lon="-5.966090">
        <ele>356.0</ele>
        <time>1970-01-01T00:00:00Z</time>
      </trkpt>
      <trkpt lat="39.161480" lon="-5.966100">
        <ele>356.0</ele>
        <time>1970-01-01T00:00:00Z</time>
      </trkpt>
      <trkpt lat="39.161500" lon="-5.966090">
        <ele>356.1</ele>
        <time>1970-01-01T00:00:00Z</time>
      </trkpt>
      <trkpt lat="39.161500" lon="-5.966090">
        <ele>356.1</ele>
        <time>1970-01-01T00:00:00Z</time>
      </trkpt>
      <trkpt lat="39.161480" lon="-5.966080">
        <ele>356.0</ele>
        <time>1970-01-01T00:00:00Z</time>
      </trkpt>
      <trkpt lat="39.161470" lon="-5.966020">
        <ele>356.0</ele>
        <time>1970-01-01T00:00:00Z</time>
      </trkpt>
      <trkpt lat="39.161300" lon="-5.965460">
        <ele>356.8</ele>
        <time>1970-01-01T00:00:00Z</time>
      </trkpt>
      <trkpt lat="39.161060" lon="-5.964480">
        <ele>358.0</ele>
        <time>1970-01-01T00:00:00Z</time>
      </trkpt>
      <trkpt lat="39.160930" lon="-5.963950">
        <ele>358.0</ele>
        <time>1970-01-01T00:00:00Z</time>
      </trkpt>
      <trkpt lat="39.160930" lon="-5.963770">
        <ele>358.0</ele>
        <time>1970-01-01T00:00:00Z</time>
      </trkpt>
      <trkpt lat="39.161060" lon="-5.963130">
        <ele>356.8</ele>
        <time>1970-01-01T00:00:00Z</time>
      </trkpt>
      <trkpt lat="39.161110" lon="-5.961950">
        <ele>357.6</ele>
        <time>1970-01-01T00:00:00Z</time>
      </trkpt>
      <trkpt lat="39.161120" lon="-5.961720">
        <ele>357.2</ele>
        <time>1970-01-01T00:00:00Z</time>
      </trkpt>
      <trkpt lat="39.161010" lon="-5.960720">
        <ele>355.1</ele>
        <time>1970-01-01T00:00:00Z</time>
      </trkpt>
      <trkpt lat="39.160600" lon="-5.959560">
        <ele>353.3</ele>
        <time>1970-01-01T00:00:00Z</time>
      </trkpt>
      <trkpt lat="39.160220" lon="-5.958440">
        <ele>354.2</ele>
        <time>1970-01-01T00:00:00Z</time>
      </trkpt>
      <trkpt lat="39.160070" lon="-5.958000">
        <ele>355.5</ele>
        <time>1970-01-01T00:00:00Z</time>
      </trkpt>
      <trkpt lat="39.159960" lon="-5.956730">
        <ele>358.6</ele>
        <time>1970-01-01T00:00:00Z</time>
      </trkpt>
      <trkpt lat="39.159840" lon="-5.955670">
        <ele>360.0</ele>
        <time>1970-01-01T00:00:00Z</time>
      </trkpt>
      <trkpt lat="39.159580" lon="-5.954620">
        <ele>363.0</ele>
        <time>1970-01-01T00:00:00Z</time>
      </trkpt>
      <trkpt lat="39.159400" lon="-5.954030">
        <ele>364.8</ele>
        <time>1970-01-01T00:00:00Z</time>
      </trkpt>
      <trkpt lat="39.159110" lon="-5.953480">
        <ele>367.0</ele>
        <time>1970-01-01T00:00:00Z</time>
      </trkpt>
      <trkpt lat="39.158720" lon="-5.952570">
        <ele>363.3</ele>
        <time>1970-01-01T00:00:00Z</time>
      </trkpt>
      <trkpt lat="39.158630" lon="-5.952430">
        <ele>362.5</ele>
        <time>1970-01-01T00:00:00Z</time>
      </trkpt>
      <trkpt lat="39.158130" lon="-5.951630">
        <ele>357.5</ele>
        <time>1970-01-01T00:00:00Z</time>
      </trkpt>
      <trkpt lat="39.158100" lon="-5.951500">
        <ele>357.6</ele>
        <time>1970-01-01T00:00:00Z</time>
      </trkpt>
      <trkpt lat="39.158170" lon="-5.950690">
        <ele>353.0</ele>
        <time>1970-01-01T00:00:00Z</time>
      </trkpt>
      <trkpt lat="39.158220" lon="-5.949790">
        <ele>347.9</ele>
        <time>1970-01-01T00:00:00Z</time>
      </trkpt>
      <trkpt lat="39.158630" lon="-5.948000">
        <ele>340.8</ele>
        <time>1970-01-01T00:00:00Z</time>
      </trkpt>
      <trkpt lat="39.158960" lon="-5.946400">
        <ele>334.1</ele>
        <time>1970-01-01T00:00:00Z</time>
      </trkpt>
      <trkpt lat="39.158810" lon="-5.945060">
        <ele>330.4</ele>
        <time>1970-01-01T00:00:00Z</time>
      </trkpt>
      <trkpt lat="39.158600" lon="-5.943970">
        <ele>327.7</ele>
        <time>1970-01-01T00:00:00Z</time>
      </trkpt>
      <trkpt lat="39.158640" lon="-5.943700">
        <ele>326.6</ele>
        <time>1970-01-01T00:00:00Z</time>
      </trkpt>
      <trkpt lat="39.158650" lon="-5.943350">
        <ele>325.8</ele>
        <time>1970-01-01T00:00:00Z</time>
      </trkpt>
      <trkpt lat="39.158600" lon="-5.943160">
        <ele>325.1</ele>
        <time>1970-01-01T00:00:00Z</time>
      </trkpt>
      <trkpt lat="39.158600" lon="-5.942820">
        <ele>323.8</ele>
        <time>1970-01-01T00:00:00Z</time>
      </trkpt>
      <trkpt lat="39.158680" lon="-5.942570">
        <ele>323.0</ele>
        <time>1970-01-01T00:00:00Z</time>
      </trkpt>
      <trkpt lat="39.158720" lon="-5.942560">
        <ele>323.0</ele>
        <time>1970-01-01T00:00:00Z</time>
      </trkpt>
      <trkpt lat="39.158730" lon="-5.942540">
        <ele>323.0</ele>
        <time>1970-01-01T00:00:00Z</time>
      </trkpt>
      <trkpt lat="39.158750" lon="-5.942460">
        <ele>323.0</ele>
        <time>1970-01-01T00:00:00Z</time>
      </trkpt>
      <trkpt lat="39.158740" lon="-5.942560">
        <ele>323.0</ele>
        <time>1970-01-01T00:00:00Z</time>
      </trkpt>
      <trkpt lat="39.158730" lon="-5.942550">
        <ele>323.0</ele>
        <time>1970-01-01T00:00:00Z</time>
      </trkpt>
      <trkpt lat="39.158870" lon="-5.942310">
        <ele>322.6</ele>
        <time>1970-01-01T00:00:00Z</time>
      </trkpt>
      <trkpt lat="39.158900" lon="-5.942310">
        <ele>322.6</ele>
        <time>1970-01-01T00:00:00Z</time>
      </trkpt>
      <trkpt lat="39.158900" lon="-5.942300">
        <ele>322.5</ele>
        <time>1970-01-01T00:00:00Z</time>
      </trkpt>
      <trkpt lat="39.158830" lon="-5.942260">
        <ele>322.3</ele>
        <time>1970-01-01T00:00:00Z</time>
      </trkpt>
      <trkpt lat="39.158420" lon="-5.942120">
        <ele>322.0</ele>
        <time>1970-01-01T00:00:00Z</time>
      </trkpt>
      <trkpt lat="39.157970" lon="-5.941950">
        <ele>322.0</ele>
        <time>1970-01-01T00:00:00Z</time>
      </trkpt>
      <trkpt lat="39.157700" lon="-5.941720">
        <ele>322.3</ele>
        <time>1970-01-01T00:00:00Z</time>
      </trkpt>
      <trkpt lat="39.157420" lon="-5.941210">
        <ele>323.0</ele>
        <time>1970-01-01T00:00:00Z</time>
      </trkpt>
      <trkpt lat="39.157360" lon="-5.940770">
        <ele>322.1</ele>
        <time>1970-01-01T00:00:00Z</time>
      </trkpt>
      <trkpt lat="39.157610" lon="-5.939680">
        <ele>315.4</ele>
        <time>1970-01-01T00:00:00Z</time>
      </trkpt>
      <trkpt lat="39.157630" lon="-5.939350">
        <ele>313.5</ele>
        <time>1970-01-01T00:00:00Z</time>
      </trkpt>
      <trkpt lat="39.157520" lon="-5.938870">
        <ele>309.7</ele>
        <time>1970-01-01T00:00:00Z</time>
      </trkpt>
      <trkpt lat="39.157270" lon="-5.938230">
        <ele>307.8</ele>
        <time>1970-01-01T00:00:00Z</time>
      </trkpt>
      <trkpt lat="39.156780" lon="-5.937380">
        <ele>303.7</ele>
        <time>1970-01-01T00:00:00Z</time>
      </trkpt>
      <trkpt lat="39.156060" lon="-5.936380">
        <ele>298.6</ele>
        <time>1970-01-01T00:00:00Z</time>
      </trkpt>
      <trkpt lat="39.155790" lon="-5.935980">
        <ele>297.1</ele>
        <time>1970-01-01T00:00:00Z</time>
      </trkpt>
      <trkpt lat="39.155360" lon="-5.934690">
        <ele>300.6</ele>
        <time>1970-01-01T00:00:00Z</time>
      </trkpt>
      <trkpt lat="39.155190" lon="-5.934080">
        <ele>304.0</ele>
        <time>1970-01-01T00:00:00Z</time>
      </trkpt>
      <trkpt lat="39.155120" lon="-5.933600">
        <ele>306.7</ele>
        <time>1970-01-01T00:00:00Z</time>
      </trkpt>
      <trkpt lat="39.154840" lon="-5.932760">
        <ele>312.6</ele>
        <time>1970-01-01T00:00:00Z</time>
      </trkpt>
      <trkpt lat="39.154530" lon="-5.932340">
        <ele>313.5</ele>
        <time>1970-01-01T00:00:00Z</time>
      </trkpt>
      <trkpt lat="39.154170" lon="-5.931670">
        <ele>313.9</ele>
        <time>1970-01-01T00:00:00Z</time>
      </trkpt>
      <trkpt lat="39.153960" lon="-5.930850">
        <ele>316.0</ele>
        <time>1970-01-01T00:00:00Z</time>
      </trkpt>
      <trkpt lat="39.153790" lon="-5.929970">
        <ele>316.8</ele>
        <time>1970-01-01T00:00:00Z</time>
      </trkpt>
      <trkpt lat="39.153710" lon="-5.929780">
        <ele>316.7</ele>
        <time>1970-01-01T00:00:00Z</time>
      </trkpt>
      <trkpt lat="39.153640" lon="-5.929660">
        <ele>316.3</ele>
        <time>1970-01-01T00:00:00Z</time>
      </trkpt>
      <trkpt lat="39.153460" lon="-5.929110">
        <ele>316.3</ele>
        <time>1970-01-01T00:00:00Z</time>
      </trkpt>
      <trkpt lat="39.153300" lon="-5.927880">
        <ele>329.4</ele>
        <time>1970-01-01T00:00:00Z</time>
      </trkpt>
      <trkpt lat="39.153240" lon="-5.927560">
        <ele>328.3</ele>
        <time>1970-01-01T00:00:00Z</time>
      </trkpt>
      <trkpt lat="39.153010" lon="-5.926960">
        <ele>318.2</ele>
        <time>1970-01-01T00:00:00Z</time>
      </trkpt>
      <trkpt lat="39.152860" lon="-5.926320">
        <ele>321.8</ele>
        <time>1970-01-01T00:00:00Z</time>
      </trkpt>
      <trkpt lat="39.152390" lon="-5.925310">
        <ele>311.5</ele>
        <time>1970-01-01T00:00:00Z</time>
      </trkpt>
      <trkpt lat="39.152230" lon="-5.925020">
        <ele>307.0</ele>
        <time>1970-01-01T00:00:00Z</time>
      </trkpt>
      <trkpt lat="39.151900" lon="-5.923740">
        <ele>300.8</ele>
        <time>1970-01-01T00:00:00Z</time>
      </trkpt>
      <trkpt lat="39.151520" lon="-5.922400">
        <ele>298.0</ele>
        <time>1970-01-01T00:00:00Z</time>
      </trkpt>
      <trkpt lat="39.151460" lon="-5.922160">
        <ele>298.0</ele>
        <time>1970-01-01T00:00:00Z</time>
      </trkpt>
      <trkpt lat="39.151190" lon="-5.921880">
        <ele>296.9</ele>
        <time>1970-01-01T00:00:00Z</time>
      </trkpt>
      <trkpt lat="39.150080" lon="-5.921200">
        <ele>293.2</ele>
        <time>1970-01-01T00:00:00Z</time>
      </trkpt>
      <trkpt lat="39.149980" lon="-5.921110">
        <ele>293.6</ele>
        <time>1970-01-01T00:00:00Z</time>
      </trkpt>
      <trkpt lat="39.149610" lon="-5.920910">
        <ele>293.6</ele>
        <time>1970-01-01T00:00:00Z</time>
      </trkpt>
      <trkpt lat="39.149450" lon="-5.920660">
        <ele>294.0</ele>
        <time>1970-01-01T00:00:00Z</time>
      </trkpt>
      <trkpt lat="39.149400" lon="-5.920250">
        <ele>293.5</ele>
        <time>1970-01-01T00:00:00Z</time>
      </trkpt>
      <trkpt lat="39.148950" lon="-5.918780">
        <ele>294.9</ele>
        <time>1970-01-01T00:00:00Z</time>
      </trkpt>
      <trkpt lat="39.148860" lon="-5.917530">
        <ele>295.5</ele>
        <time>1970-01-01T00:00:00Z</time>
      </trkpt>
      <trkpt lat="39.148770" lon="-5.916890">
        <ele>298.2</ele>
        <time>1970-01-01T00:00:00Z</time>
      </trkpt>
      <trkpt lat="39.148740" lon="-5.916640">
        <ele>299.4</ele>
        <time>1970-01-01T00:00:00Z</time>
      </trkpt>
      <trkpt lat="39.148700" lon="-5.916510">
        <ele>299.9</ele>
        <time>1970-01-01T00:00:00Z</time>
      </trkpt>
      <trkpt lat="39.148614" lon="-5.916313">
        <ele>300.0</ele>
        <time>1970-01-01T00:00:00Z</time>
      </trkpt>
      <trkpt lat="39.148392" lon="-5.915454">
        <ele>297.0</ele>
        <time>1970-01-01T00:00:00Z</time>
      </trkpt>
      <trkpt lat="39.148261" lon="-5.914748">
        <ele>296.0</ele>
        <time>1970-01-01T00:00:00Z</time>
      </trkpt>
      <trkpt lat="39.148227" lon="-5.913937">
        <ele>297.0</ele>
        <time>1970-01-01T00:00:00Z</time>
      </trkpt>
      <trkpt lat="39.148297" lon="-5.912772">
        <ele>295.9</ele>
        <time>1970-01-01T00:00:00Z</time>
      </trkpt>
      <trkpt lat="39.148783" lon="-5.911912">
        <ele>292.0</ele>
        <time>1970-01-01T00:00:00Z</time>
      </trkpt>
      <trkpt lat="39.149179" lon="-5.911368">
        <ele>293.8</ele>
        <time>1970-01-01T00:00:00Z</time>
      </trkpt>
      <trkpt lat="39.149879" lon="-5.910563">
        <ele>295.3</ele>
        <time>1970-01-01T00:00:00Z</time>
      </trkpt>
      <trkpt lat="39.149992" lon="-5.910389">
        <ele>295.0</ele>
        <time>1970-01-01T00:00:00Z</time>
      </trkpt>
      <trkpt lat="39.150185" lon="-5.909882">
        <ele>293.7</ele>
        <time>1970-01-01T00:00:00Z</time>
      </trkpt>
      <trkpt lat="39.150561" lon="-5.909249">
        <ele>294.1</ele>
        <time>1970-01-01T00:00:00Z</time>
      </trkpt>
      <trkpt lat="39.150900" lon="-5.908477">
        <ele>294.3</ele>
        <time>1970-01-01T00:00:00Z</time>
      </trkpt>
      <trkpt lat="39.151073" lon="-5.907674">
        <ele>297.1</ele>
        <time>1970-01-01T00:00:00Z</time>
      </trkpt>
      <trkpt lat="39.151337" lon="-5.907014">
        <ele>301.9</ele>
        <time>1970-01-01T00:00:00Z</time>
      </trkpt>
      <trkpt lat="39.151630" lon="-5.906632">
        <ele>302.5</ele>
        <time>1970-01-01T00:00:00Z</time>
      </trkpt>
      <trkpt lat="39.152450" lon="-5.905903">
        <ele>298.0</ele>
        <time>1970-01-01T00:00:00Z</time>
      </trkpt>
      <trkpt lat="39.152990" lon="-5.905202">
        <ele>297.7</ele>
        <time>1970-01-01T00:00:00Z</time>
      </trkpt>
      <trkpt lat="39.153592" lon="-5.904729">
        <ele>296.0</ele>
        <time>1970-01-01T00:00:00Z</time>
      </trkpt>
      <trkpt lat="39.154245" lon="-5.902922">
        <ele>297.6</ele>
        <time>1970-01-01T00:00:00Z</time>
      </trkpt>
      <trkpt lat="39.155214" lon="-5.901637">
        <ele>301.6</ele>
        <time>1970-01-01T00:00:00Z</time>
      </trkpt>
      <trkpt lat="39.156817" lon="-5.900569">
        <ele>298.3</ele>
        <time>1970-01-01T00:00:00Z</time>
      </trkpt>
      <trkpt lat="39.157100" lon="-5.900430">
        <ele>296.7</ele>
        <time>1970-01-01T00:00:00Z</time>
      </trkpt>
      <trkpt lat="39.157399" lon="-5.900188">
        <ele>296.8</ele>
        <time>1970-01-01T00:00:00Z</time>
      </trkpt>
      <trkpt lat="39.157728" lon="-5.899987">
        <ele>299.3</ele>
        <time>1970-01-01T00:00:00Z</time>
      </trkpt>
      <trkpt lat="39.157678" lon="-5.899818">
        <ele>298.2</ele>
        <time>1970-01-01T00:00:00Z</time>
      </trkpt>
      <trkpt lat="39.157663" lon="-5.899701">
        <ele>297.8</ele>
        <time>1970-01-01T00:00:00Z</time>
      </trkpt>
      <trkpt lat="39.157665" lon="-5.899435">
        <ele>296.9</ele>
        <time>1970-01-01T00:00:00Z</time>
      </trkpt>
      <trkpt lat="39.157876" lon="-5.899114">
        <ele>297.9</ele>
        <time>1970-01-01T00:00:00Z</time>
      </trkpt>
      <trkpt lat="39.158013" lon="-5.898882">
        <ele>299.0</ele>
        <time>1970-01-01T00:00:00Z</time>
      </trkpt>
      <trkpt lat="39.158096" lon="-5.898776">
        <ele>299.3</ele>
        <time>1970-01-01T00:00:00Z</time>
      </trkpt>
      <trkpt lat="39.158284" lon="-5.898454">
        <ele>298.6</ele>
        <time>1970-01-01T00:00:00Z</time>
      </trkpt>
      <trkpt lat="39.158434" lon="-5.898240">
        <ele>298.9</ele>
        <time>1970-01-01T00:00:00Z</time>
      </trkpt>
      <trkpt lat="39.158540" lon="-5.898110">
        <ele>298.6</ele>
        <time>1970-01-01T00:00:00Z</time>
      </trkpt>
      <trkpt lat="39.158940" lon="-5.897500">
        <ele>294.9</ele>
        <time>1970-01-01T00:00:00Z</time>
      </trkpt>
      <trkpt lat="39.159680" lon="-5.896230">
        <ele>292.0</ele>
        <time>1970-01-01T00:00:00Z</time>
      </trkpt>
      <trkpt lat="39.160490" lon="-5.894570">
        <ele>294.5</ele>
        <time>1970-01-01T00:00:00Z</time>
      </trkpt>
      <trkpt lat="39.161100" lon="-5.892670">
        <ele>298.9</ele>
        <time>1970-01-01T00:00:00Z</time>
      </trkpt>
      <trkpt lat="39.161920" lon="-5.890310">
        <ele>302.1</ele>
        <time>1970-01-01T00:00:00Z</time>
      </trkpt>
      <trkpt lat="39.162810" lon="-5.888690">
        <ele>311.5</ele>
        <time>1970-01-01T00:00:00Z</time>
      </trkpt>
      <trkpt lat="39.163760" lon="-5.887670">
        <ele>315.0</ele>
        <time>1970-01-01T00:00:00Z</time>
      </trkpt>
      <trkpt lat="39.164260" lon="-5.887040">
        <ele>309.5</ele>
        <time>1970-01-01T00:00:00Z</time>
      </trkpt>
      <trkpt lat="39.164580" lon="-5.886380">
        <ele>302.8</ele>
        <time>1970-01-01T00:00:00Z</time>
      </trkpt>
      <trkpt lat="39.165210" lon="-5.885240">
        <ele>300.4</ele>
        <time>1970-01-01T00:00:00Z</time>
      </trkpt>
      <trkpt lat="39.165330" lon="-5.884920">
        <ele>299.3</ele>
        <time>1970-01-01T00:00:00Z</time>
      </trkpt>
      <trkpt lat="39.165340" lon="-5.884700">
        <ele>297.8</ele>
        <time>1970-01-01T00:00:00Z</time>
      </trkpt>
      <trkpt lat="39.165340" lon="-5.884710">
        <ele>297.9</ele>
        <time>1970-01-01T00:00:00Z</time>
      </trkpt>
      <trkpt lat="39.165760" lon="-5.884170">
        <ele>296.9</ele>
        <time>1970-01-01T00:00:00Z</time>
      </trkpt>
      <trkpt lat="39.166400" lon="-5.883450">
        <ele>296.4</ele>
        <time>1970-01-01T00:00:00Z</time>
      </trkpt>
      <trkpt lat="39.166450" lon="-5.883390">
        <ele>296.5</ele>
        <time>1970-01-01T00:00:00Z</time>
      </trkpt>
      <trkpt lat="39.166590" lon="-5.883080">
        <ele>296.3</ele>
        <time>1970-01-01T00:00:00Z</time>
      </trkpt>
      <trkpt lat="39.166790" lon="-5.882920">
        <ele>298.9</ele>
        <time>1970-01-01T00:00:00Z</time>
      </trkpt>
      <trkpt lat="39.166900" lon="-5.882870">
        <ele>300.1</ele>
        <time>1970-01-01T00:00:00Z</time>
      </trkpt>
      <trkpt lat="39.167070" lon="-5.882860">
        <ele>302.1</ele>
        <time>1970-01-01T00:00:00Z</time>
      </trkpt>
      <trkpt lat="39.167360" lon="-5.882930">
        <ele>304.4</ele>
        <time>1970-01-01T00:00:00Z</time>
      </trkpt>
      <trkpt lat="39.167480" lon="-5.882960">
        <ele>305.1</ele>
        <time>1970-01-01T00:00:00Z</time>
      </trkpt>
      <trkpt lat="39.167620" lon="-5.883070">
        <ele>305.8</ele>
        <time>1970-01-01T00:00:00Z</time>
      </trkpt>
      <trkpt lat="39.168010" lon="-5.883240">
        <ele>306.0</ele>
        <time>1970-01-01T00:00:00Z</time>
      </trkpt>
      <trkpt lat="39.168240" lon="-5.883400">
        <ele>306.0</ele>
        <time>1970-01-01T00:00:00Z</time>
      </trkpt>
      <trkpt lat="39.168410" lon="-5.883420">
        <ele>306.0</ele>
        <time>1970-01-01T00:00:00Z</time>
      </trkpt>
      <trkpt lat="39.168390" lon="-5.883500">
        <ele>306.0</ele>
        <time>1970-01-01T00:00:00Z</time>
      </trkpt>
      <trkpt lat="39.168730" lon="-5.884020">
        <ele>307.7</ele>
        <time>1970-01-01T00:00:00Z</time>
      </trkpt>
      <trkpt lat="39.168780" lon="-5.884050">
        <ele>307.9</ele>
        <time>1970-01-01T00:00:00Z</time>
      </trkpt>
      <trkpt lat="39.168770" lon="-5.884270">
        <ele>308.4</ele>
        <time>1970-01-01T00:00:00Z</time>
      </trkpt>
      <trkpt lat="39.168780" lon="-5.884470">
        <ele>309.2</ele>
        <time>1970-01-01T00:00:00Z</time>
      </trkpt>
      <trkpt lat="39.168850" lon="-5.884600">
        <ele>310.1</ele>
        <time>1970-01-01T00:00:00Z</time>
      </trkpt>
      <trkpt lat="39.168960" lon="-5.884710">
        <ele>310.8</ele>
        <time>1970-01-01T00:00:00Z</time>
      </trkpt>
      <trkpt lat="39.169180" lon="-5.884830">
        <ele>311.1</ele>
        <time>1970-01-01T00:00:00Z</time>
      </trkpt>
      <trkpt lat="39.169570" lon="-5.884650">
        <ele>311.4</ele>
        <time>1970-01-01T00:00:00Z</time>
      </trkpt>
      <trkpt lat="39.169800" lon="-5.884650">
        <ele>312.4</ele>
        <time>1970-01-01T00:00:00Z</time>
      </trkpt>
      <trkpt lat="39.169810" lon="-5.884630">
        <ele>312.4</ele>
        <time>1970-01-01T00:00:00Z</time>
      </trkpt>
      <trkpt lat="39.170000" lon="-5.884270">
        <ele>310.8</ele>
        <time>1970-01-01T00:00:00Z</time>
      </trkpt>
      <trkpt lat="39.170030" lon="-5.884240">
        <ele>310.7</ele>
        <time>1970-01-01T00:00:00Z</time>
      </trkpt>
      <trkpt lat="39.170070" lon="-5.884180">
        <ele>310.4</ele>
        <time>1970-01-01T00:00:00Z</time>
      </trkpt>
      <trkpt lat="39.170120" lon="-5.884150">
        <ele>310.3</ele>
        <time>1970-01-01T00:00:00Z</time>
      </trkpt>
      <trkpt lat="39.170490" lon="-5.883770">
        <ele>308.7</ele>
        <time>1970-01-01T00:00:00Z</time>
      </trkpt>
      <trkpt lat="39.170590" lon="-5.883500">
        <ele>306.8</ele>
        <time>1970-01-01T00:00:00Z</time>
      </trkpt>
      <trkpt lat="39.170640" lon="-5.883480">
        <ele>306.6</ele>
        <time>1970-01-01T00:00:00Z</time>
      </trkpt>
      <trkpt lat="39.170730" lon="-5.883400">
        <ele>306.1</ele>
        <time>1970-01-01T00:00:00Z</time>
      </trkpt>
      <trkpt lat="39.170950" lon="-5.883410">
        <ele>305.1</ele>
        <time>1970-01-01T00:00:00Z</time>
      </trkpt>
      <trkpt lat="39.171230" lon="-5.883280">
        <ele>301.2</ele>
        <time>1970-01-01T00:00:00Z</time>
      </trkpt>
      <trkpt lat="39.171470" lon="-5.883100">
        <ele>298.4</ele>
        <time>1970-01-01T00:00:00Z</time>
      </trkpt>
      <trkpt lat="39.171830" lon="-5.882880">
        <ele>295.1</ele>
        <time>1970-01-01T00:00:00Z</time>
      </trkpt>
      <trkpt lat="39.171940" lon="-5.882830">
        <ele>294.5</ele>
        <time>1970-01-01T00:00:00Z</time>
      </trkpt>
      <trkpt lat="39.172190" lon="-5.882700">
        <ele>294.0</ele>
        <time>1970-01-01T00:00:00Z</time>
      </trkpt>
      <trkpt lat="39.172460" lon="-5.882540">
        <ele>294.1</ele>
        <time>1970-01-01T00:00:00Z</time>
      </trkpt>
      <trkpt lat="39.172820" lon="-5.882260">
        <ele>297.9</ele>
        <time>1970-01-01T00:00:00Z</time>
      </trkpt>
      <trkpt lat="39.173020" lon="-5.882090">
        <ele>299.8</ele>
        <time>1970-01-01T00:00:00Z</time>
      </trkpt>
      <trkpt lat="39.173230" lon="-5.881880">
        <ele>301.7</ele>
        <time>1970-01-01T00:00:00Z</time>
      </trkpt>
      <trkpt lat="39.173370" lon="-5.881560">
        <ele>303.6</ele>
        <time>1970-01-01T00:00:00Z</time>
      </trkpt>
      <trkpt lat="39.173810" lon="-5.880810">
        <ele>309.4</ele>
        <time>1970-01-01T00:00:00Z</time>
      </trkpt>
      <trkpt lat="39.173870" lon="-5.880760">
        <ele>309.9</ele>
        <time>1970-01-01T00:00:00Z</time>
      </trkpt>
      <trkpt lat="39.174050" lon="-5.880580">
        <ele>311.2</ele>
        <time>1970-01-01T00:00:00Z</time>
      </trkpt>
      <trkpt lat="39.174320" lon="-5.880330">
        <ele>312.6</ele>
        <time>1970-01-01T00:00:00Z</time>
      </trkpt>
      <trkpt lat="39.174670" lon="-5.880020">
        <ele>313.6</ele>
        <time>1970-01-01T00:00:00Z</time>
      </trkpt>
      <trkpt lat="39.174810" lon="-5.879840">
        <ele>314.5</ele>
        <time>1970-01-01T00:00:00Z</time>
      </trkpt>
      <trkpt lat="39.174950" lon="-5.879650">
        <ele>315.9</ele>
        <time>1970-01-01T00:00:00Z</time>
      </trkpt>
      <trkpt lat="39.175560" lon="-5.878990">
        <ele>316.2</ele>
        <time>1970-01-01T00:00:00Z</time>
      </trkpt>
      <trkpt lat="39.175720" lon="-5.878860">
        <ele>316.6</ele>
        <time>1970-01-01T00:00:00Z</time>
      </trkpt>
      <trkpt lat="39.176410" lon="-5.878720">
        <ele>318.8</ele>
        <time>1970-01-01T00:00:00Z</time>
      </trkpt>
      <trkpt lat="39.176540" lon="-5.878690">
        <ele>319.5</ele>
        <time>1970-01-01T00:00:00Z</time>
      </trkpt>
      <trkpt lat="39.176820" lon="-5.878690">
        <ele>321.8</ele>
        <time>1970-01-01T00:00:00Z</time>
      </trkpt>
      <trkpt lat="39.177050" lon="-5.878650">
        <ele>323.3</ele>
        <time>1970-01-01T00:00:00Z</time>
      </trkpt>
      <trkpt lat="39.177720" lon="-5.878480">
        <ele>326.4</ele>
        <time>1970-01-01T00:00:00Z</time>
      </trkpt>
      <trkpt lat="39.178210" lon="-5.878370">
        <ele>327.9</ele>
        <time>1970-01-01T00:00:00Z</time>
      </trkpt>
      <trkpt lat="39.178330" lon="-5.878270">
        <ele>328.9</ele>
        <time>1970-01-01T00:00:00Z</time>
      </trkpt>
      <trkpt lat="39.178420" lon="-5.878180">
        <ele>329.7</ele>
        <time>1970-01-01T00:00:00Z</time>
      </trkpt>
      <trkpt lat="39.178460" lon="-5.878160">
        <ele>330.0</ele>
        <time>1970-01-01T00:00:00Z</time>
      </trkpt>
      <trkpt lat="39.178830" lon="-5.877960">
        <ele>332.0</ele>
        <time>1970-01-01T00:00:00Z</time>
      </trkpt>
      <trkpt lat="39.179120" lon="-5.877720">
        <ele>332.9</ele>
        <time>1970-01-01T00:00:00Z</time>
      </trkpt>
      <trkpt lat="39.179300" lon="-5.877630">
        <ele>332.9</ele>
        <time>1970-01-01T00:00:00Z</time>
      </trkpt>
      <trkpt lat="39.179390" lon="-5.877600">
        <ele>333.0</ele>
        <time>1970-01-01T00:00:00Z</time>
      </trkpt>
      <trkpt lat="39.180290" lon="-5.877580">
        <ele>334.1</ele>
        <time>1970-01-01T00:00:00Z</time>
      </trkpt>
      <trkpt lat="39.181230" lon="-5.877510">
        <ele>334.0</ele>
        <time>1970-01-01T00:00:00Z</time>
      </trkpt>
      <trkpt lat="39.182130" lon="-5.877460">
        <ele>331.8</ele>
        <time>1970-01-01T00:00:00Z</time>
      </trkpt>
      <trkpt lat="39.182810" lon="-5.877390">
        <ele>336.1</ele>
        <time>1970-01-01T00:00:00Z</time>
      </trkpt>
      <trkpt lat="39.183610" lon="-5.877640">
        <ele>341.3</ele>
        <time>1970-01-01T00:00:00Z</time>
      </trkpt>
      <trkpt lat="39.184400" lon="-5.877940">
        <ele>341.6</ele>
        <time>1970-01-01T00:00:00Z</time>
      </trkpt>
      <trkpt lat="39.185150" lon="-5.878170">
        <ele>346.0</ele>
        <time>1970-01-01T00:00:00Z</time>
      </trkpt>
      <trkpt lat="39.185320" lon="-5.878220">
        <ele>347.0</ele>
        <time>1970-01-01T00:00:00Z</time>
      </trkpt>
      <trkpt lat="39.185920" lon="-5.878380">
        <ele>349.2</ele>
        <time>1970-01-01T00:00:00Z</time>
      </trkpt>
      <trkpt lat="39.186350" lon="-5.878330">
        <ele>350.9</ele>
        <time>1970-01-01T00:00:00Z</time>
      </trkpt>
      <trkpt lat="39.187100" lon="-5.878460">
        <ele>350.5</ele>
        <time>1970-01-01T00:00:00Z</time>
      </trkpt>
      <trkpt lat="39.187820" lon="-5.878670">
        <ele>350.4</ele>
        <time>1970-01-01T00:00:00Z</time>
      </trkpt>
      <trkpt lat="39.188720" lon="-5.878780">
        <ele>352.3</ele>
        <time>1970-01-01T00:00:00Z</time>
      </trkpt>
      <trkpt lat="39.189410" lon="-5.878790">
        <ele>354.8</ele>
        <time>1970-01-01T00:00:00Z</time>
      </trkpt>
      <trkpt lat="39.189460" lon="-5.878800">
        <ele>355.1</ele>
        <time>1970-01-01T00:00:00Z</time>
      </trkpt>
      <trkpt lat="39.189650" lon="-5.878850">
        <ele>355.8</ele>
        <time>1970-01-01T00:00:00Z</time>
      </trkpt>
      <trkpt lat="39.189750" lon="-5.878840">
        <ele>356.1</ele>
        <time>1970-01-01T00:00:00Z</time>
      </trkpt>
      <trkpt lat="39.190190" lon="-5.878720">
        <ele>357.1</ele>
        <time>1970-01-01T00:00:00Z</time>
      </trkpt>
      <trkpt lat="39.190170" lon="-5.878730">
        <ele>357.0</ele>
        <time>1970-01-01T00:00:00Z</time>
      </trkpt>
      <trkpt lat="39.190170" lon="-5.878730">
        <ele>357.0</ele>
        <time>1970-01-01T00:00:00Z</time>
      </trkpt>
      <trkpt lat="39.190190" lon="-5.878700">
        <ele>357.1</ele>
        <time>1970-01-01T00:00:00Z</time>
      </trkpt>
      <trkpt lat="39.190180" lon="-5.878720">
        <ele>357.0</ele>
        <time>1970-01-01T00:00:00Z</time>
      </trkpt>
      <trkpt lat="39.190240" lon="-5.878730">
        <ele>357.3</ele>
        <time>1970-01-01T00:00:00Z</time>
      </trkpt>
      <trkpt lat="39.190970" lon="-5.878530">
        <ele>359.0</ele>
        <time>1970-01-01T00:00:00Z</time>
      </trkpt>
      <trkpt lat="39.191990" lon="-5.878510">
        <ele>362.8</ele>
        <time>1970-01-01T00:00:00Z</time>
      </trkpt>
      <trkpt lat="39.192760" lon="-5.878360">
        <ele>366.9</ele>
        <time>1970-01-01T00:00:00Z</time>
      </trkpt>
      <trkpt lat="39.193320" lon="-5.878330">
        <ele>366.1</ele>
        <time>1970-01-01T00:00:00Z</time>
      </trkpt>
      <trkpt lat="39.193510" lon="-5.878280">
        <ele>365.6</ele>
        <time>1970-01-01T00:00:00Z</time>
      </trkpt>
      <trkpt lat="39.194250" lon="-5.877980">
        <ele>365.6</ele>
        <time>1970-01-01T00:00:00Z</time>
      </trkpt>
      <trkpt lat="39.194480" lon="-5.877910">
        <ele>366.6</ele>
        <time>1970-01-01T00:00:00Z</time>
      </trkpt>
      <trkpt lat="39.194720" lon="-5.877790">
        <ele>367.0</ele>
        <time>1970-01-01T00:00:00Z</time>
      </trkpt>
      <trkpt lat="39.195410" lon="-5.877480">
        <ele>371.6</ele>
        <time>1970-01-01T00:00:00Z</time>
      </trkpt>
      <trkpt lat="39.196040" lon="-5.877060">
        <ele>374.3</ele>
        <time>1970-01-01T00:00:00Z</time>
      </trkpt>
      <trkpt lat="39.196600" lon="-5.876660">
        <ele>375.0</ele>
        <time>1970-01-01T00:00:00Z</time>
      </trkpt>
      <trkpt lat="39.197040" lon="-5.876460">
        <ele>373.4</ele>
        <time>1970-01-01T00:00:00Z</time>
      </trkpt>
      <trkpt lat="39.197440" lon="-5.876170">
        <ele>370.4</ele>
        <time>1970-01-01T00:00:00Z</time>
      </trkpt>
      <trkpt lat="39.197640" lon="-5.876090">
        <ele>369.2</ele>
        <time>1970-01-01T00:00:00Z</time>
      </trkpt>
      <trkpt lat="39.197980" lon="-5.876210">
        <ele>368.3</ele>
        <time>1970-01-01T00:00:00Z</time>
      </trkpt>
      <trkpt lat="39.198390" lon="-5.876350">
        <ele>367.9</ele>
        <time>1970-01-01T00:00:00Z</time>
      </trkpt>
      <trkpt lat="39.199210" lon="-5.876230">
        <ele>363.0</ele>
        <time>1970-01-01T00:00:00Z</time>
      </trkpt>
      <trkpt lat="39.200190" lon="-5.875950">
        <ele>359.0</ele>
        <time>1970-01-01T00:00:00Z</time>
      </trkpt>
      <trkpt lat="39.200560" lon="-5.875830">
        <ele>357.8</ele>
        <time>1970-01-01T00:00:00Z</time>
      </trkpt>
      <trkpt lat="39.200670" lon="-5.875810">
        <ele>357.5</ele>
        <time>1970-01-01T00:00:00Z</time>
      </trkpt>
      <trkpt lat="39.200670" lon="-5.875780">
        <ele>357.3</ele>
        <time>1970-01-01T00:00:00Z</time>
      </trkpt>
      <trkpt lat="39.200950" lon="-5.875670">
        <ele>357.4</ele>
        <time>1970-01-01T00:00:00Z</time>
      </trkpt>
      <trkpt lat="39.201250" lon="-5.875540">
        <ele>357.9</ele>
        <time>1970-01-01T00:00:00Z</time>
      </trkpt>
      <trkpt lat="39.202240" lon="-5.874990">
        <ele>358.8</ele>
        <time>1970-01-01T00:00:00Z</time>
      </trkpt>
      <trkpt lat="39.203290" lon="-5.874290">
        <ele>363.2</ele>
        <time>1970-01-01T00:00:00Z</time>
      </trkpt>
      <trkpt lat="39.204150" lon="-5.873650">
        <ele>359.6</ele>
        <time>1970-01-01T00:00:00Z</time>
      </trkpt>
      <trkpt lat="39.205050" lon="-5.873010">
        <ele>354.1</ele>
        <time>1970-01-01T00:00:00Z</time>
      </trkpt>
      <trkpt lat="39.205110" lon="-5.872970">
        <ele>354.0</ele>
        <time>1970-01-01T00:00:00Z</time>
      </trkpt>
      <trkpt lat="39.205330" lon="-5.872890">
        <ele>353.3</ele>
        <time>1970-01-01T00:00:00Z</time>
      </trkpt>
      <trkpt lat="39.205860" lon="-5.872740">
        <ele>354.5</ele>
        <time>1970-01-01T00:00:00Z</time>
      </trkpt>
      <trkpt lat="39.206550" lon="-5.872210">
        <ele>359.0</ele>
        <time>1970-01-01T00:00:00Z</time>
      </trkpt>
      <trkpt lat="39.207060" lon="-5.871620">
        <ele>364.7</ele>
        <time>1970-01-01T00:00:00Z</time>
      </trkpt>
      <trkpt lat="39.207330" lon="-5.871300">
        <ele>367.2</ele>
        <time>1970-01-01T00:00:00Z</time>
      </trkpt>
      <trkpt lat="39.207830" lon="-5.870770">
        <ele>369.6</ele>
        <time>1970-01-01T00:00:00Z</time>
      </trkpt>
      <trkpt lat="39.208040" lon="-5.870520">
        <ele>369.5</ele>
        <time>1970-01-01T00:00:00Z</time>
      </trkpt>
      <trkpt lat="39.208200" lon="-5.870280">
        <ele>369.9</ele>
        <time>1970-01-01T00:00:00Z</time>
      </trkpt>
      <trkpt lat="39.208660" lon="-5.869650">
        <ele>371.8</ele>
        <time>1970-01-01T00:00:00Z</time>
      </trkpt>
      <trkpt lat="39.209170" lon="-5.868920">
        <ele>371.5</ele>
        <time>1970-01-01T00:00:00Z</time>
      </trkpt>
      <trkpt lat="39.209750" lon="-5.867910">
        <ele>371.9</ele>
        <time>1970-01-01T00:00:00Z</time>
      </trkpt>
      <trkpt lat="39.209840" lon="-5.867710">
        <ele>372.7</ele>
        <time>1970-01-01T00:00:00Z</time>
      </trkpt>
      <trkpt lat="39.210240" lon="-5.866880">
        <ele>376.2</ele>
        <time>1970-01-01T00:00:00Z</time>
      </trkpt>
      <trkpt lat="39.210430" lon="-5.866470">
        <ele>378.5</ele>
        <time>1970-01-01T00:00:00Z</time>
      </trkpt>
      <trkpt lat="39.210810" lon="-5.865580">
        <ele>381.8</ele>
        <time>1970-01-01T00:00:00Z</time>
      </trkpt>
      <trkpt lat="39.210840" lon="-5.865510">
        <ele>381.8</ele>
        <time>1970-01-01T00:00:00Z</time>
      </trkpt>
      <trkpt lat="39.211040" lon="-5.865050">
        <ele>381.7</ele>
        <time>1970-01-01T00:00:00Z</time>
      </trkpt>
      <trkpt lat="39.211150" lon="-5.864800">
        <ele>381.0</ele>
        <time>1970-01-01T00:00:00Z</time>
      </trkpt>
      <trkpt lat="39.211200" lon="-5.864610">
        <ele>381.0</ele>
        <time>1970-01-01T00:00:00Z</time>
      </trkpt>
      <trkpt lat="39.211290" lon="-5.864370">
        <ele>380.6</ele>
        <time>1970-01-01T00:00:00Z</time>
      </trkpt>
      <trkpt lat="39.211500" lon="-5.863360">
        <ele>382.5</ele>
        <time>1970-01-01T00:00:00Z</time>
      </trkpt>
      <trkpt lat="39.211770" lon="-5.862440">
        <ele>384.3</ele>
        <time>1970-01-01T00:00:00Z</time>
      </trkpt>
      <trkpt lat="39.211880" lon="-5.862250">
        <ele>384.5</ele>
        <time>1970-01-01T00:00:00Z</time>
      </trkpt>
      <trkpt lat="39.212200" lon="-5.861610">
        <ele>382.0</ele>
        <time>1970-01-01T00:00:00Z</time>
      </trkpt>
      <trkpt lat="39.212370" lon="-5.861260">
        <ele>380.5</ele>
        <time>1970-01-01T00:00:00Z</time>
      </trkpt>
      <trkpt lat="39.212430" lon="-5.860940">
        <ele>379.2</ele>
        <time>1970-01-01T00:00:00Z</time>
      </trkpt>
      <trkpt lat="39.212430" lon="-5.860930">
        <ele>379.1</ele>
        <time>1970-01-01T00:00:00Z</time>
      </trkpt>
      <trkpt lat="39.212890" lon="-5.860810">
        <ele>380.1</ele>
        <time>1970-01-01T00:00:00Z</time>
      </trkpt>
      <trkpt lat="39.213050" lon="-5.860770">
        <ele>380.2</ele>
        <time>1970-01-01T00:00:00Z</time>
      </trkpt>
      <trkpt lat="39.213210" lon="-5.860750">
        <ele>380.6</ele>
        <time>1970-01-01T00:00:00Z</time>
      </trkpt>
      <trkpt lat="39.213440" lon="-5.860690">
        <ele>381.5</ele>
        <time>1970-01-01T00:00:00Z</time>
      </trkpt>
      <trkpt lat="39.214220" lon="-5.860560">
        <ele>384.0</ele>
        <time>1970-01-01T00:00:00Z</time>
      </trkpt>
      <trkpt lat="39.214950" lon="-5.860290">
        <ele>382.0</ele>
        <time>1970-01-01T00:00:00Z</time>
      </trkpt>
      <trkpt lat="39.215990" lon="-5.859900">
        <ele>381.0</ele>
        <time>1970-01-01T00:00:00Z</time>
      </trkpt>
      <trkpt lat="39.216070" lon="-5.859870">
        <ele>381.0</ele>
        <time>1970-01-01T00:00:00Z</time>
      </trkpt>
      <trkpt lat="39.217160" lon="-5.859830">
        <ele>381.0</ele>
        <time>1970-01-01T00:00:00Z</time>
      </trkpt>
      <trkpt lat="39.218180" lon="-5.859650">
        <ele>386.0</ele>
        <time>1970-01-01T00:00:00Z</time>
      </trkpt>
      <trkpt lat="39.219100" lon="-5.859120">
        <ele>394.8</ele>
        <time>1970-01-01T00:00:00Z</time>
      </trkpt>
      <trkpt lat="39.219840" lon="-5.858530">
        <ele>391.9</ele>
        <time>1970-01-01T00:00:00Z</time>
      </trkpt>
      <trkpt lat="39.220370" lon="-5.858360">
        <ele>389.6</ele>
        <time>1970-01-01T00:00:00Z</time>
      </trkpt>
      <trkpt lat="39.220530" lon="-5.858280">
        <ele>388.8</ele>
        <time>1970-01-01T00:00:00Z</time>
      </trkpt>
      <trkpt lat="39.221120" lon="-5.857590">
        <ele>386.6</ele>
        <time>1970-01-01T00:00:00Z</time>
      </trkpt>
      <trkpt lat="39.221170" lon="-5.857510">
        <ele>386.2</ele>
        <time>1970-01-01T00:00:00Z</time>
      </trkpt>
      <trkpt lat="39.221880" lon="-5.856730">
        <ele>384.2</ele>
        <time>1970-01-01T00:00:00Z</time>
      </trkpt>
      <trkpt lat="39.222310" lon="-5.856150">
        <ele>383.3</ele>
        <time>1970-01-01T00:00:00Z</time>
      </trkpt>
      <trkpt lat="39.222420" lon="-5.855800">
        <ele>384.7</ele>
        <time>1970-01-01T00:00:00Z</time>
      </trkpt>
      <trkpt lat="39.222420" lon="-5.855720">
        <ele>385.1</ele>
        <time>1970-01-01T00:00:00Z</time>
      </trkpt>
      <trkpt lat="39.222410" lon="-5.855660">
        <ele>385.5</ele>
        <time>1970-01-01T00:00:00Z</time>
      </trkpt>
      <trkpt lat="39.222510" lon="-5.854790">
        <ele>387.5</ele>
        <time>1970-01-01T00:00:00Z</time>
      </trkpt>
      <trkpt lat="39.222540" lon="-5.854520">
        <ele>387.9</ele>
        <time>1970-01-01T00:00:00Z</time>
      </trkpt>
      <trkpt lat="39.222480" lon="-5.854150">
        <ele>388.8</ele>
        <time>1970-01-01T00:00:00Z</time>
      </trkpt>
      <trkpt lat="39.222420" lon="-5.853970">
        <ele>389.7</ele>
        <time>1970-01-01T00:00:00Z</time>
      </trkpt>
      <trkpt lat="39.222410" lon="-5.853480">
        <ele>391.9</ele>
        <time>1970-01-01T00:00:00Z</time>
      </trkpt>
      <trkpt lat="39.222550" lon="-5.853110">
        <ele>394.5</ele>
        <time>1970-01-01T00:00:00Z</time>
      </trkpt>
      <trkpt lat="39.223090" lon="-5.852180">
        <ele>397.8</ele>
        <time>1970-01-01T00:00:00Z</time>
      </trkpt>
      <trkpt lat="39.223850" lon="-5.851160">
        <ele>391.1</ele>
        <time>1970-01-01T00:00:00Z</time>
      </trkpt>
      <trkpt lat="39.224260" lon="-5.850020">
        <ele>388.3</ele>
        <time>1970-01-01T00:00:00Z</time>
      </trkpt>
      <trkpt lat="39.224630" lon="-5.848410">
        <ele>386.0</ele>
        <time>1970-01-01T00:00:00Z</time>
      </trkpt>
      <trkpt lat="39.224900" lon="-5.846770">
        <ele>378.0</ele>
        <time>1970-01-01T00:00:00Z</time>
      </trkpt>
      <trkpt lat="39.224950" lon="-5.846520">
        <ele>378.0</ele>
        <time>1970-01-01T00:00:00Z</time>
      </trkpt>
      <trkpt lat="39.225460" lon="-5.845430">
        <ele>377.0</ele>
        <time>1970-01-01T00:00:00Z</time>
      </trkpt>
      <trkpt lat="39.225850" lon="-5.844820">
        <ele>374.2</ele>
        <time>1970-01-01T00:00:00Z</time>
      </trkpt>
      <trkpt lat="39.226260" lon="-5.843170">
        <ele>377.0</ele>
        <time>1970-01-01T00:00:00Z</time>
      </trkpt>
      <trkpt lat="39.226970" lon="-5.841760">
        <ele>379.8</ele>
        <time>1970-01-01T00:00:00Z</time>
      </trkpt>
      <trkpt lat="39.227470" lon="-5.840760">
        <ele>384.1</ele>
        <time>1970-01-01T00:00:00Z</time>
      </trkpt>
      <trkpt lat="39.228020" lon="-5.840190">
        <ele>385.9</ele>
        <time>1970-01-01T00:00:00Z</time>
      </trkpt>
      <trkpt lat="39.228590" lon="-5.840040">
        <ele>386.7</ele>
        <time>1970-01-01T00:00:00Z</time>
      </trkpt>
      <trkpt lat="39.228610" lon="-5.840040">
        <ele>386.7</ele>
        <time>1970-01-01T00:00:00Z</time>
      </trkpt>
      <trkpt lat="39.228910" lon="-5.840040">
        <ele>385.4</ele>
        <time>1970-01-01T00:00:00Z</time>
      </trkpt>
      <trkpt lat="39.229870" lon="-5.839910">
        <ele>379.0</ele>
        <time>1970-01-01T00:00:00Z</time>
      </trkpt>
      <trkpt lat="39.231820" lon="-5.839670">
        <ele>379.0</ele>
        <time>1970-01-01T00:00:00Z</time>
      </trkpt>
      <trkpt lat="39.232970" lon="-5.839490">
        <ele>384.4</ele>
        <time>1970-01-01T00:00:00Z</time>
      </trkpt>
      <trkpt lat="39.233010" lon="-5.839450">
        <ele>384.9</ele>
        <time>1970-01-01T00:00:00Z</time>
      </trkpt>
      <trkpt lat="39.233010" lon="-5.839380">
        <ele>385.2</ele>
        <time>1970-01-01T00:00:00Z</time>
      </trkpt>
      <trkpt lat="39.233000" lon="-5.839370">
        <ele>385.2</ele>
        <time>1970-01-01T00:00:00Z</time>
      </trkpt>
      <trkpt lat="39.233000" lon="-5.839370">
        <ele>385.2</ele>
        <time>1970-01-01T00:00:00Z</time>
      </trkpt>
      <trkpt lat="39.232980" lon="-5.839240">
        <ele>385.6</ele>
        <time>1970-01-01T00:00:00Z</time>
      </trkpt>
      <trkpt lat="39.232900" lon="-5.838290">
        <ele>386.9</ele>
        <time>1970-01-01T00:00:00Z</time>
      </trkpt>
      <trkpt lat="39.232720" lon="-5.836460">
        <ele>386.6</ele>
        <time>1970-01-01T00:00:00Z</time>
      </trkpt>
      <trkpt lat="39.232500" lon="-5.834170">
        <ele>383.7</ele>
        <time>1970-01-01T00:00:00Z</time>
      </trkpt>
      <trkpt lat="39.232450" lon="-5.833120">
        <ele>381.2</ele>
        <time>1970-01-01T00:00:00Z</time>
      </trkpt>
      <trkpt lat="39.232510" lon="-5.832810">
        <ele>382.2</ele>
        <time>1970-01-01T00:00:00Z</time>
      </trkpt>
      <trkpt lat="39.232780" lon="-5.832400">
        <ele>387.4</ele>
        <time>1970-01-01T00:00:00Z</time>
      </trkpt>
      <trkpt lat="39.233080" lon="-5.831880">
        <ele>392.2</ele>
        <time>1970-01-01T00:00:00Z</time>
      </trkpt>
      <trkpt lat="39.233650" lon="-5.830850">
        <ele>393.2</ele>
        <time>1970-01-01T00:00:00Z</time>
      </trkpt>
      <trkpt lat="39.234100" lon="-5.829570">
        <ele>391.0</ele>
        <time>1970-01-01T00:00:00Z</time>
      </trkpt>
      <trkpt lat="39.234680" lon="-5.827830">
        <ele>398.0</ele>
        <time>1970-01-01T00:00:00Z</time>
      </trkpt>
      <trkpt lat="39.235380" lon="-5.826530">
        <ele>400.7</ele>
        <time>1970-01-01T00:00:00Z</time>
      </trkpt>
      <trkpt lat="39.236270" lon="-5.825180">
        <ele>403.3</ele>
        <time>1970-01-01T00:00:00Z</time>
      </trkpt>
      <trkpt lat="39.236950" lon="-5.824180">
        <ele>405.9</ele>
        <time>1970-01-01T00:00:00Z</time>
      </trkpt>
      <trkpt lat="39.237340" lon="-5.823630">
        <ele>411.5</ele>
        <time>1970-01-01T00:00:00Z</time>
      </trkpt>
      <trkpt lat="39.237330" lon="-5.823650">
        <ele>411.4</ele>
        <time>1970-01-01T00:00:00Z</time>
      </trkpt>
      <trkpt lat="39.237490" lon="-5.823530">
        <ele>412.6</ele>
        <time>1970-01-01T00:00:00Z</time>
      </trkpt>
      <trkpt lat="39.238030" lon="-5.823160">
        <ele>413.8</ele>
        <time>1970-01-01T00:00:00Z</time>
      </trkpt>
      <trkpt lat="39.238520" lon="-5.822690">
        <ele>410.1</ele>
        <time>1970-01-01T00:00:00Z</time>
      </trkpt>
      <trkpt lat="39.238690" lon="-5.822560">
        <ele>408.6</ele>
        <time>1970-01-01T00:00:00Z</time>
      </trkpt>
      <trkpt lat="39.239320" lon="-5.821950">
        <ele>407.1</ele>
        <time>1970-01-01T00:00:00Z</time>
      </trkpt>
      <trkpt lat="39.239620" lon="-5.821630">
        <ele>407.2</ele>
        <time>1970-01-01T00:00:00Z</time>
      </trkpt>
      <trkpt lat="39.239820" lon="-5.821230">
        <ele>405.8</ele>
        <time>1970-01-01T00:00:00Z</time>
      </trkpt>
      <trkpt lat="39.240080" lon="-5.820970">
        <ele>403.8</ele>
        <time>1970-01-01T00:00:00Z</time>
      </trkpt>
      <trkpt lat="39.240880" lon="-5.820550">
        <ele>397.0</ele>
        <time>1970-01-01T00:00:00Z</time>
      </trkpt>
      <trkpt lat="39.241440" lon="-5.820660">
        <ele>394.5</ele>
        <time>1970-01-01T00:00:00Z</time>
      </trkpt>
      <trkpt lat="39.241530" lon="-5.820560">
        <ele>394.2</ele>
        <time>1970-01-01T00:00:00Z</time>
      </trkpt>
      <trkpt lat="39.241530" lon="-5.820610">
        <ele>394.2</ele>
        <time>1970-01-01T00:00:00Z</time>
      </trkpt>
      <trkpt lat="39.241550" lon="-5.820500">
        <ele>394.1</ele>
        <time>1970-01-01T00:00:00Z</time>
      </trkpt>
      <trkpt lat="39.241540" lon="-5.820360">
        <ele>394.2</ele>
        <time>1970-01-01T00:00:00Z</time>
      </trkpt>
      <trkpt lat="39.241600" lon="-5.820040">
        <ele>393.9</ele>
        <time>1970-01-01T00:00:00Z</time>
      </trkpt>
      <trkpt lat="39.242000" lon="-5.819640">
        <ele>392.2</ele>
        <time>1970-01-01T00:00:00Z</time>
      </trkpt>
      <trkpt lat="39.242110" lon="-5.819530">
        <ele>392.0</ele>
        <time>1970-01-01T00:00:00Z</time>
      </trkpt>
      <trkpt lat="39.242690" lon="-5.818470">
        <ele>390.9</ele>
        <time>1970-01-01T00:00:00Z</time>
      </trkpt>
      <trkpt lat="39.242880" lon="-5.817990">
        <ele>388.8</ele>
        <time>1970-01-01T00:00:00Z</time>
      </trkpt>
      <trkpt lat="39.243270" lon="-5.817150">
        <ele>385.1</ele>
        <time>1970-01-01T00:00:00Z</time>
      </trkpt>
      <trkpt lat="39.243330" lon="-5.817000">
        <ele>385.5</ele>
        <time>1970-01-01T00:00:00Z</time>
      </trkpt>
      <trkpt lat="39.243340" lon="-5.816960">
        <ele>385.7</ele>
        <time>1970-01-01T00:00:00Z</time>
      </trkpt>
      <trkpt lat="39.243310" lon="-5.816720">
        <ele>386.6</ele>
        <time>1970-01-01T00:00:00Z</time>
      </trkpt>
      <trkpt lat="39.243280" lon="-5.816460">
        <ele>387.6</ele>
        <time>1970-01-01T00:00:00Z</time>
      </trkpt>
      <trkpt lat="39.243350" lon="-5.815740">
        <ele>392.0</ele>
        <time>1970-01-01T00:00:00Z</time>
      </trkpt>
      <trkpt lat="39.243350" lon="-5.815250">
        <ele>394.1</ele>
        <time>1970-01-01T00:00:00Z</time>
      </trkpt>
      <trkpt lat="39.243360" lon="-5.814980">
        <ele>394.8</ele>
        <time>1970-01-01T00:00:00Z</time>
      </trkpt>
      <trkpt lat="39.243350" lon="-5.814810">
        <ele>394.7</ele>
        <time>1970-01-01T00:00:00Z</time>
      </trkpt>
      <trkpt lat="39.243340" lon="-5.814670">
        <ele>394.7</ele>
        <time>1970-01-01T00:00:00Z</time>
      </trkpt>
      <trkpt lat="39.243410" lon="-5.814390">
        <ele>395.0</ele>
        <time>1970-01-01T00:00:00Z</time>
      </trkpt>
      <trkpt lat="39.243480" lon="-5.814240">
        <ele>395.0</ele>
        <time>1970-01-01T00:00:00Z</time>
      </trkpt>
      <trkpt lat="39.243590" lon="-5.814150">
        <ele>395.1</ele>
        <time>1970-01-01T00:00:00Z</time>
      </trkpt>
      <trkpt lat="39.243860" lon="-5.813840">
        <ele>396.0</ele>
        <time>1970-01-01T00:00:00Z</time>
      </trkpt>
      <trkpt lat="39.243990" lon="-5.813580">
        <ele>395.9</ele>
        <time>1970-01-01T00:00:00Z</time>
      </trkpt>
      <trkpt lat="39.244000" lon="-5.813580">
        <ele>395.9</ele>
        <time>1970-01-01T00:00:00Z</time>
      </trkpt>
      <trkpt lat="39.244070" lon="-5.813560">
        <ele>396.2</ele>
        <time>1970-01-01T00:00:00Z</time>
      </trkpt>
      <trkpt lat="39.243930" lon="-5.813470">
        <ele>395.2</ele>
        <time>1970-01-01T00:00:00Z</time>
      </trkpt>
      <trkpt lat="39.243450" lon="-5.813020">
        <ele>393.1</ele>
        <time>1970-01-01T00:00:00Z</time>
      </trkpt>
      <trkpt lat="39.243300" lon="-5.812890">
        <ele>392.2</ele>
        <time>1970-01-01T00:00:00Z</time>
      </trkpt>
      <trkpt lat="39.242840" lon="-5.812310">
        <ele>390.5</ele>
        <time>1970-01-01T00:00:00Z</time>
      </trkpt>
      <trkpt lat="39.242560" lon="-5.812060">
        <ele>388.7</ele>
        <time>1970-01-01T00:00:00Z</time>
      </trkpt>
      <trkpt lat="39.242500" lon="-5.811980">
        <ele>388.5</ele>
        <time>1970-01-01T00:00:00Z</time>
      </trkpt>
      <trkpt lat="39.242560" lon="-5.811780">
        <ele>388.6</ele>
        <time>1970-01-01T00:00:00Z</time>
      </trkpt>
      <trkpt lat="39.242770" lon="-5.811290">
        <ele>385.4</ele>
        <time>1970-01-01T00:00:00Z</time>
      </trkpt>
      <trkpt lat="39.242840" lon="-5.811200">
        <ele>384.7</ele>
        <time>1970-01-01T00:00:00Z</time>
      </trkpt>
      <trkpt lat="39.242780" lon="-5.811260">
        <ele>385.2</ele>
        <time>1970-01-01T00:00:00Z</time>
      </trkpt>
      <trkpt lat="39.242920" lon="-5.810890">
        <ele>381.9</ele>
        <time>1970-01-01T00:00:00Z</time>
      </trkpt>
      <trkpt lat="39.242950" lon="-5.810760">
        <ele>381.2</ele>
        <time>1970-01-01T00:00:00Z</time>
      </trkpt>
      <trkpt lat="39.242980" lon="-5.810640">
        <ele>380.7</ele>
        <time>1970-01-01T00:00:00Z</time>
      </trkpt>
      <trkpt lat="39.242830" lon="-5.809700">
        <ele>377.8</ele>
        <time>1970-01-01T00:00:00Z</time>
      </trkpt>
      <trkpt lat="39.242810" lon="-5.809460">
        <ele>377.5</ele>
        <time>1970-01-01T00:00:00Z</time>
      </trkpt>
      <trkpt lat="39.242820" lon="-5.809460">
        <ele>377.6</ele>
        <time>1970-01-01T00:00:00Z</time>
      </trkpt>
      <trkpt lat="39.242870" lon="-5.809210">
        <ele>378.3</ele>
        <time>1970-01-01T00:00:00Z</time>
      </trkpt>
      <trkpt lat="39.242990" lon="-5.808150">
        <ele>377.3</ele>
        <time>1970-01-01T00:00:00Z</time>
      </trkpt>
      <trkpt lat="39.243000" lon="-5.808020">
        <ele>376.7</ele>
        <time>1970-01-01T00:00:00Z</time>
      </trkpt>
      <trkpt lat="39.243000" lon="-5.808030">
        <ele>376.7</ele>
        <time>1970-01-01T00:00:00Z</time>
      </trkpt>
      <trkpt lat="39.242950" lon="-5.807630">
        <ele>375.7</ele>
        <time>1970-01-01T00:00:00Z</time>
      </trkpt>
      <trkpt lat="39.242720" lon="-5.806130">
        <ele>371.0</ele>
        <time>1970-01-01T00:00:00Z</time>
      </trkpt>
      <trkpt lat="39.242310" lon="-5.804810">
        <ele>366.2</ele>
        <time>1970-01-01T00:00:00Z</time>
      </trkpt>
      <trkpt lat="39.242230" lon="-5.803730">
        <ele>364.8</ele>
        <time>1970-01-01T00:00:00Z</time>
      </trkpt>
      <trkpt lat="39.242360" lon="-5.802480">
        <ele>362.2</ele>
        <time>1970-01-01T00:00:00Z</time>
      </trkpt>
      <trkpt lat="39.242380" lon="-5.802400">
        <ele>362.1</ele>
        <time>1970-01-01T00:00:00Z</time>
      </trkpt>
      <trkpt lat="39.242500" lon="-5.802060">
        <ele>361.0</ele>
        <time>1970-01-01T00:00:00Z</time>
      </trkpt>
      <trkpt lat="39.242650" lon="-5.801750">
        <ele>360.3</ele>
        <time>1970-01-01T00:00:00Z</time>
      </trkpt>
      <trkpt lat="39.242670" lon="-5.801620">
        <ele>359.8</ele>
        <time>1970-01-01T00:00:00Z</time>
      </trkpt>
      <trkpt lat="39.243120" lon="-5.800750">
        <ele>357.3</ele>
        <time>1970-01-01T00:00:00Z</time>
      </trkpt>
      <trkpt lat="39.243390" lon="-5.800110">
        <ele>355.1</ele>
        <time>1970-01-01T00:00:00Z</time>
      </trkpt>
      <trkpt lat="39.243650" lon="-5.799430">
        <ele>354.3</ele>
        <time>1970-01-01T00:00:00Z</time>
      </trkpt>
      <trkpt lat="39.243750" lon="-5.799210">
        <ele>353.7</ele>
        <time>1970-01-01T00:00:00Z</time>
      </trkpt>
      <trkpt lat="39.244040" lon="-5.798300">
        <ele>350.4</ele>
        <time>1970-01-01T00:00:00Z</time>
      </trkpt>
      <trkpt lat="39.244260" lon="-5.797410">
        <ele>348.4</ele>
        <time>1970-01-01T00:00:00Z</time>
      </trkpt>
      <trkpt lat="39.244490" lon="-5.796700">
        <ele>347.0</ele>
        <time>1970-01-01T00:00:00Z</time>
      </trkpt>
      <trkpt lat="39.244500" lon="-5.796690">
        <ele>347.0</ele>
        <time>1970-01-01T00:00:00Z</time>
      </trkpt>
      <trkpt lat="39.244500" lon="-5.796700">
        <ele>347.0</ele>
        <time>1970-01-01T00:00:00Z</time>
      </trkpt>
      <trkpt lat="39.244590" lon="-5.796730">
        <ele>347.8</ele>
        <time>1970-01-01T00:00:00Z</time>
      </trkpt>
      <trkpt lat="39.244750" lon="-5.796840">
        <ele>349.6</ele>
        <time>1970-01-01T00:00:00Z</time>
      </trkpt>
      <trkpt lat="39.245090" lon="-5.796700">
        <ele>350.0</ele>
        <time>1970-01-01T00:00:00Z</time>
      </trkpt>
      <trkpt lat="39.245910" lon="-5.795690">
        <ele>347.0</ele>
        <time>1970-01-01T00:00:00Z</time>
      </trkpt>
      <trkpt lat="39.246500" lon="-5.794900">
        <ele>347.0</ele>
        <time>1970-01-01T00:00:00Z</time>
      </trkpt>
      <trkpt lat="39.246610" lon="-5.794770">
        <ele>347.0</ele>
        <time>1970-01-01T00:00:00Z</time>
      </trkpt>
      <trkpt lat="39.247300" lon="-5.793700">
        <ele>345.2</ele>
        <time>1970-01-01T00:00:00Z</time>
      </trkpt>
      <trkpt lat="39.247850" lon="-5.792860">
        <ele>342.9</ele>
        <time>1970-01-01T00:00:00Z</time>
      </trkpt>
      <trkpt lat="39.248310" lon="-5.792000">
        <ele>338.2</ele>
        <time>1970-01-01T00:00:00Z</time>
      </trkpt>
      <trkpt lat="39.248740" lon="-5.791200">
        <ele>339.0</ele>
        <time>1970-01-01T00:00:00Z</time>
      </trkpt>
      <trkpt lat="39.248750" lon="-5.791180">
        <ele>339.1</ele>
        <time>1970-01-01T00:00:00Z</time>
      </trkpt>
      <trkpt lat="39.248890" lon="-5.790950">
        <ele>340.7</ele>
        <time>1970-01-01T00:00:00Z</time>
      </trkpt>
      <trkpt lat="39.249320" lon="-5.790200">
        <ele>346.3</ele>
        <time>1970-01-01T00:00:00Z</time>
      </trkpt>
      <trkpt lat="39.249350" lon="-5.790130">
        <ele>346.9</ele>
        <time>1970-01-01T00:00:00Z</time>
      </trkpt>
      <trkpt lat="39.249530" lon="-5.789190">
        <ele>346.9</ele>
        <time>1970-01-01T00:00:00Z</time>
      </trkpt>
      <trkpt lat="39.249550" lon="-5.789100">
        <ele>346.7</ele>
        <time>1970-01-01T00:00:00Z</time>
      </trkpt>
      <trkpt lat="39.249670" lon="-5.788880">
        <ele>346.7</ele>
        <time>1970-01-01T00:00:00Z</time>
      </trkpt>
      <trkpt lat="39.249750" lon="-5.788710">
        <ele>346.3</ele>
        <time>1970-01-01T00:00:00Z</time>
      </trkpt>
      <trkpt lat="39.249800" lon="-5.788690">
        <ele>346.5</ele>
        <time>1970-01-01T00:00:00Z</time>
      </trkpt>
      <trkpt lat="39.249810" lon="-5.788670">
        <ele>346.4</ele>
        <time>1970-01-01T00:00:00Z</time>
      </trkpt>
      <trkpt lat="39.249970" lon="-5.788250">
        <ele>345.0</ele>
        <time>1970-01-01T00:00:00Z</time>
      </trkpt>
      <trkpt lat="39.250140" lon="-5.787730">
        <ele>343.8</ele>
        <time>1970-01-01T00:00:00Z</time>
      </trkpt>
      <trkpt lat="39.250590" lon="-5.786850">
        <ele>344.0</ele>
        <time>1970-01-01T00:00:00Z</time>
      </trkpt>
      <trkpt lat="39.251040" lon="-5.785690">
        <ele>345.1</ele>
        <time>1970-01-01T00:00:00Z</time>
      </trkpt>
      <trkpt lat="39.251310" lon="-5.784820">
        <ele>344.0</ele>
        <time>1970-01-01T00:00:00Z</time>
      </trkpt>
      <trkpt lat="39.251350" lon="-5.784640">
        <ele>344.6</ele>
        <time>1970-01-01T00:00:00Z</time>
      </trkpt>
      <trkpt lat="39.251420" lon="-5.784280">
        <ele>346.1</ele>
        <time>1970-01-01T00:00:00Z</time>
      </trkpt>
      <trkpt lat="39.251420" lon="-5.783770">
        <ele>348.8</ele>
        <time>1970-01-01T00:00:00Z</time>
      </trkpt>
      <trkpt lat="39.251440" lon="-5.783500">
        <ele>349.7</ele>
        <time>1970-01-01T00:00:00Z</time>
      </trkpt>
      <trkpt lat="39.251500" lon="-5.783250">
        <ele>351.2</ele>
        <time>1970-01-01T00:00:00Z</time>
      </trkpt>
      <trkpt lat="39.251900" lon="-5.782390">
        <ele>353.0</ele>
        <time>1970-01-01T00:00:00Z</time>
      </trkpt>
      <trkpt lat="39.252100" lon="-5.781340">
        <ele>352.0</ele>
        <time>1970-01-01T00:00:00Z</time>
      </trkpt>
      <trkpt lat="39.252160" lon="-5.781180">
        <ele>351.4</ele>
        <time>1970-01-01T00:00:00Z</time>
      </trkpt>
      <trkpt lat="39.252140" lon="-5.781290">
        <ele>351.9</ele>
        <time>1970-01-01T00:00:00Z</time>
      </trkpt>
      <trkpt lat="39.252300" lon="-5.780940">
        <ele>351.4</ele>
        <time>1970-01-01T00:00:00Z</time>
      </trkpt>
      <trkpt lat="39.252540" lon="-5.780510">
        <ele>352.0</ele>
        <time>1970-01-01T00:00:00Z</time>
      </trkpt>
      <trkpt lat="39.252800" lon="-5.780040">
        <ele>351.7</ele>
        <time>1970-01-01T00:00:00Z</time>
      </trkpt>
      <trkpt lat="39.253000" lon="-5.779570">
        <ele>350.3</ele>
        <time>1970-01-01T00:00:00Z</time>
      </trkpt>
      <trkpt lat="39.253120" lon="-5.779290">
        <ele>349.3</ele>
        <time>1970-01-01T00:00:00Z</time>
      </trkpt>
      <trkpt lat="39.253210" lon="-5.779000">
        <ele>347.7</ele>
        <time>1970-01-01T00:00:00Z</time>
      </trkpt>
      <trkpt lat="39.253210" lon="-5.778890">
        <ele>347.2</ele>
        <time>1970-01-01T00:00:00Z</time>
      </trkpt>
      <trkpt lat="39.253260" lon="-5.778780">
        <ele>346.5</ele>
        <time>1970-01-01T00:00:00Z</time>
      </trkpt>
      <trkpt lat="39.253400" lon="-5.778470">
        <ele>345.6</ele>
        <time>1970-01-01T00:00:00Z</time>
      </trkpt>
      <trkpt lat="39.253460" lon="-5.778320">
        <ele>344.7</ele>
        <time>1970-01-01T00:00:00Z</time>
      </trkpt>
      <trkpt lat="39.253520" lon="-5.778220">
        <ele>343.9</ele>
        <time>1970-01-01T00:00:00Z</time>
      </trkpt>
      <trkpt lat="39.253560" lon="-5.778140">
        <ele>343.4</ele>
        <time>1970-01-01T00:00:00Z</time>
      </trkpt>
      <trkpt lat="39.253650" lon="-5.777980">
        <ele>342.2</ele>
        <time>1970-01-01T00:00:00Z</time>
      </trkpt>
      <trkpt lat="39.253720" lon="-5.777870">
        <ele>341.7</ele>
        <time>1970-01-01T00:00:00Z</time>
      </trkpt>
      <trkpt lat="39.253730" lon="-5.777810">
        <ele>341.5</ele>
        <time>1970-01-01T00:00:00Z</time>
      </trkpt>
      <trkpt lat="39.253760" lon="-5.777730">
        <ele>341.4</ele>
        <time>1970-01-01T00:00:00Z</time>
      </trkpt>
      <trkpt lat="39.253730" lon="-5.777670">
        <ele>341.2</ele>
        <time>1970-01-01T00:00:00Z</time>
      </trkpt>
      <trkpt lat="39.253730" lon="-5.777640">
        <ele>341.1</ele>
        <time>1970-01-01T00:00:00Z</time>
      </trkpt>
      <trkpt lat="39.253860" lon="-5.777290">
        <ele>339.7</ele>
        <time>1970-01-01T00:00:00Z</time>
      </trkpt>
      <trkpt lat="39.253960" lon="-5.777040">
        <ele>339.6</ele>
        <time>1970-01-01T00:00:00Z</time>
      </trkpt>
      <trkpt lat="39.253920" lon="-5.777070">
        <ele>339.4</ele>
        <time>1970-01-01T00:00:00Z</time>
      </trkpt>
      <trkpt lat="39.253890" lon="-5.777050">
        <ele>339.3</ele>
        <time>1970-01-01T00:00:00Z</time>
      </trkpt>
      <trkpt lat="39.253750" lon="-5.777020">
        <ele>338.8</ele>
        <time>1970-01-01T00:00:00Z</time>
      </trkpt>
      <trkpt lat="39.253430" lon="-5.776840">
        <ele>338.5</ele>
        <time>1970-01-01T00:00:00Z</time>
      </trkpt>
      <trkpt lat="39.253270" lon="-5.776640">
        <ele>338.3</ele>
        <time>1970-01-01T00:00:00Z</time>
      </trkpt>
      <trkpt lat="39.253260" lon="-5.776100">
        <ele>337.9</ele>
        <time>1970-01-01T00:00:00Z</time>
      </trkpt>
      <trkpt lat="39.253320" lon="-5.775810">
        <ele>337.4</ele>
        <time>1970-01-01T00:00:00Z</time>
      </trkpt>
      <trkpt lat="39.253810" lon="-5.774660">
        <ele>333.4</ele>
        <time>1970-01-01T00:00:00Z</time>
      </trkpt>
      <trkpt lat="39.253840" lon="-5.774600">
        <ele>333.0</ele>
        <time>1970-01-01T00:00:00Z</time>
      </trkpt>
      <trkpt lat="39.253980" lon="-5.774410">
        <ele>331.8</ele>
        <time>1970-01-01T00:00:00Z</time>
      </trkpt>
      <trkpt lat="39.254090" lon="-5.774070">
        <ele>330.5</ele>
        <time>1970-01-01T00:00:00Z</time>
      </trkpt>
      <trkpt lat="39.254260" lon="-5.773150">
        <ele>327.3</ele>
        <time>1970-01-01T00:00:00Z</time>
      </trkpt>
      <trkpt lat="39.254350" lon="-5.772570">
        <ele>326.8</ele>
        <time>1970-01-01T00:00:00Z</time>
      </trkpt>
      <trkpt lat="39.254400" lon="-5.772390">
        <ele>326.0</ele>
        <time>1970-01-01T00:00:00Z</time>
      </trkpt>
      <trkpt lat="39.254430" lon="-5.772130">
        <ele>325.7</ele>
        <time>1970-01-01T00:00:00Z</time>
      </trkpt>
      <trkpt lat="39.254510" lon="-5.771870">
        <ele>325.1</ele>
        <time>1970-01-01T00:00:00Z</time>
      </trkpt>
      <trkpt lat="39.254590" lon="-5.770900">
        <ele>323.0</ele>
        <time>1970-01-01T00:00:00Z</time>
      </trkpt>
      <trkpt lat="39.254610" lon="-5.770740">
        <ele>323.0</ele>
        <time>1970-01-01T00:00:00Z</time>
      </trkpt>
      <trkpt lat="39.254470" lon="-5.770310">
        <ele>322.2</ele>
        <time>1970-01-01T00:00:00Z</time>
      </trkpt>
      <trkpt lat="39.254400" lon="-5.769990">
        <ele>322.1</ele>
        <time>1970-01-01T00:00:00Z</time>
      </trkpt>
      <trkpt lat="39.254340" lon="-5.769740">
        <ele>321.8</ele>
        <time>1970-01-01T00:00:00Z</time>
      </trkpt>
      <trkpt lat="39.254130" lon="-5.768990">
        <ele>322.8</ele>
        <time>1970-01-01T00:00:00Z</time>
      </trkpt>
      <trkpt lat="39.253980" lon="-5.768400">
        <ele>323.1</ele>
        <time>1970-01-01T00:00:00Z</time>
      </trkpt>
      <trkpt lat="39.253610" lon="-5.767430">
        <ele>320.0</ele>
        <time>1970-01-01T00:00:00Z</time>
      </trkpt>
      <trkpt lat="39.253270" lon="-5.766500">
        <ele>316.4</ele>
        <time>1970-01-01T00:00:00Z</time>
      </trkpt>
      <trkpt lat="39.252890" lon="-5.765520">
        <ele>315.1</ele>
        <time>1970-01-01T00:00:00Z</time>
      </trkpt>
      <trkpt lat="39.252750" lon="-5.765260">
        <ele>315.7</ele>
        <time>1970-01-01T00:00:00Z</time>
      </trkpt>
      <trkpt lat="39.252740" lon="-5.765190">
        <ele>315.7</ele>
        <time>1970-01-01T00:00:00Z</time>
      </trkpt>
      <trkpt lat="39.252690" lon="-5.765120">
        <ele>315.9</ele>
        <time>1970-01-01T00:00:00Z</time>
      </trkpt>
      <trkpt lat="39.252580" lon="-5.764770">
        <ele>317.1</ele>
        <time>1970-01-01T00:00:00Z</time>
      </trkpt>
      <trkpt lat="39.252330" lon="-5.764050">
        <ele>318.2</ele>
        <time>1970-01-01T00:00:00Z</time>
      </trkpt>
      <trkpt lat="39.252240" lon="-5.763820">
        <ele>318.0</ele>
        <time>1970-01-01T00:00:00Z</time>
      </trkpt>
      <trkpt lat="39.252090" lon="-5.763550">
        <ele>318.0</ele>
        <time>1970-01-01T00:00:00Z</time>
      </trkpt>
      <trkpt lat="39.251920" lon="-5.763210">
        <ele>318.2</ele>
        <time>1970-01-01T00:00:00Z</time>
      </trkpt>
      <trkpt lat="39.251730" lon="-5.762550">
        <ele>318.0</ele>
        <time>1970-01-01T00:00:00Z</time>
      </trkpt>
      <trkpt lat="39.251680" lon="-5.762250">
        <ele>317.7</ele>
        <time>1970-01-01T00:00:00Z</time>
      </trkpt>
      <trkpt lat="39.251650" lon="-5.762050">
        <ele>317.0</ele>
        <time>1970-01-01T00:00:00Z</time>
      </trkpt>
      <trkpt lat="39.251630" lon="-5.762040">
        <ele>317.0</ele>
        <time>1970-01-01T00:00:00Z</time>
      </trkpt>
      <trkpt lat="39.251640" lon="-5.761940">
        <ele>317.0</ele>
        <time>1970-01-01T00:00:00Z</time>
      </trkpt>
      <trkpt lat="39.251430" lon="-5.761320">
        <ele>317.4</ele>
        <time>1970-01-01T00:00:00Z</time>
      </trkpt>
      <trkpt lat="39.251140" lon="-5.760410">
        <ele>317.0</ele>
        <time>1970-01-01T00:00:00Z</time>
      </trkpt>
      <trkpt lat="39.250930" lon="-5.759350">
        <ele>317.5</ele>
        <time>1970-01-01T00:00:00Z</time>
      </trkpt>
      <trkpt lat="39.250880" lon="-5.758290">
        <ele>316.7</ele>
        <time>1970-01-01T00:00:00Z</time>
      </trkpt>
      <trkpt lat="39.250870" lon="-5.757610">
        <ele>315.1</ele>
        <time>1970-01-01T00:00:00Z</time>
      </trkpt>
      <trkpt lat="39.250640" lon="-5.756470">
        <ele>307.9</ele>
        <time>1970-01-01T00:00:00Z</time>
      </trkpt>
      <trkpt lat="39.250230" lon="-5.755100">
        <ele>305.0</ele>
        <time>1970-01-01T00:00:00Z</time>
      </trkpt>
      <trkpt lat="39.249890" lon="-5.754000">
        <ele>304.0</ele>
        <time>1970-01-01T00:00:00Z</time>
      </trkpt>
      <trkpt lat="39.249730" lon="-5.753530">
        <ele>303.7</ele>
        <time>1970-01-01T00:00:00Z</time>
      </trkpt>
      <trkpt lat="39.249710" lon="-5.753500">
        <ele>303.7</ele>
        <time>1970-01-01T00:00:00Z</time>
      </trkpt>
      <trkpt lat="39.249680" lon="-5.753390">
        <ele>303.4</ele>
        <time>1970-01-01T00:00:00Z</time>
      </trkpt>
      <trkpt lat="39.249640" lon="-5.753340">
        <ele>303.3</ele>
        <time>1970-01-01T00:00:00Z</time>
      </trkpt>
      <trkpt lat="39.249660" lon="-5.753400">
        <ele>303.4</ele>
        <time>1970-01-01T00:00:00Z</time>
      </trkpt>
      <trkpt lat="39.249500" lon="-5.752870">
        <ele>303.0</ele>
        <time>1970-01-01T00:00:00Z</time>
      </trkpt>
      <trkpt lat="39.249150" lon="-5.751840">
        <ele>301.2</ele>
        <time>1970-01-01T00:00:00Z</time>
      </trkpt>
      <trkpt lat="39.248770" lon="-5.751140">
        <ele>299.6</ele>
        <time>1970-01-01T00:00:00Z</time>
      </trkpt>
      <trkpt lat="39.248290" lon="-5.750160">
        <ele>301.3</ele>
        <time>1970-01-01T00:00:00Z</time>
      </trkpt>
      <trkpt lat="39.248070" lon="-5.749580">
        <ele>299.8</ele>
        <time>1970-01-01T00:00:00Z</time>
      </trkpt>
      <trkpt lat="39.247930" lon="-5.749150">
        <ele>298.6</ele>
        <time>1970-01-01T00:00:00Z</time>
      </trkpt>
      <trkpt lat="39.247850" lon="-5.748890">
        <ele>297.8</ele>
        <time>1970-01-01T00:00:00Z</time>
      </trkpt>
      <trkpt lat="39.247840" lon="-5.748890">
        <ele>297.8</ele>
        <time>1970-01-01T00:00:00Z</time>
      </trkpt>
      <trkpt lat="39.247820" lon="-5.748760">
        <ele>297.4</ele>
        <time>1970-01-01T00:00:00Z</time>
      </trkpt>
      <trkpt lat="39.247520" lon="-5.748420">
        <ele>298.2</ele>
        <time>1970-01-01T00:00:00Z</time>
      </trkpt>
      <trkpt lat="39.247200" lon="-5.748150">
        <ele>298.6</ele>
        <time>1970-01-01T00:00:00Z</time>
      </trkpt>
      <trkpt lat="39.246940" lon="-5.747830">
        <ele>299.1</ele>
        <time>1970-01-01T00:00:00Z</time>
      </trkpt>
      <trkpt lat="39.246790" lon="-5.747920">
        <ele>299.9</ele>
        <time>1970-01-01T00:00:00Z</time>
      </trkpt>
      <trkpt lat="39.246540" lon="-5.747970">
        <ele>300.5</ele>
        <time>1970-01-01T00:00:00Z</time>
      </trkpt>
      <trkpt lat="39.246230" lon="-5.747800">
        <ele>301.3</ele>
        <time>1970-01-01T00:00:00Z</time>
      </trkpt>
      <trkpt lat="39.245350" lon="-5.747320">
        <ele>301.0</ele>
        <time>1970-01-01T00:00:00Z</time>
      </trkpt>
      <trkpt lat="39.244430" lon="-5.747040">
        <ele>301.4</ele>
        <time>1970-01-01T00:00:00Z</time>
      </trkpt>
      <trkpt lat="39.243570" lon="-5.746980">
        <ele>301.2</ele>
        <time>1970-01-01T00:00:00Z</time>
      </trkpt>
      <trkpt lat="39.242340" lon="-5.746890">
        <ele>301.0</ele>
        <time>1970-01-01T00:00:00Z</time>
      </trkpt>
      <trkpt lat="39.241540" lon="-5.746790">
        <ele>301.0</ele>
        <time>1970-01-01T00:00:00Z</time>
      </trkpt>
      <trkpt lat="39.240360" lon="-5.747140">
        <ele>303.5</ele>
        <time>1970-01-01T00:00:00Z</time>
      </trkpt>
      <trkpt lat="39.240200" lon="-5.747190">
        <ele>304.0</ele>
        <time>1970-01-01T00:00:00Z</time>
      </trkpt>
      <trkpt lat="39.240040" lon="-5.747210">
        <ele>303.4</ele>
        <time>1970-01-01T00:00:00Z</time>
      </trkpt>
      <trkpt lat="39.240040" lon="-5.747190">
        <ele>303.4</ele>
        <time>1970-01-01T00:00:00Z</time>
      </trkpt>
      <trkpt lat="39.240060" lon="-5.746980">
        <ele>303.2</ele>
        <time>1970-01-01T00:00:00Z</time>
      </trkpt>
      <trkpt lat="39.240450" lon="-5.746180">
        <ele>302.0</ele>
        <time>1970-01-01T00:00:00Z</time>
      </trkpt>
      <trkpt lat="39.241180" lon="-5.744550">
        <ele>299.0</ele>
        <time>1970-01-01T00:00:00Z</time>
      </trkpt>
      <trkpt lat="39.242200" lon="-5.742200">
        <ele>297.0</ele>
        <time>1970-01-01T00:00:00Z</time>
      </trkpt>
      <trkpt lat="39.242370" lon="-5.741780">
        <ele>296.1</ele>
        <time>1970-01-01T00:00:00Z</time>
      </trkpt>
      <trkpt lat="39.242540" lon="-5.740950">
        <ele>298.6</ele>
        <time>1970-01-01T00:00:00Z</time>
      </trkpt>
      <trkpt lat="39.242870" lon="-5.740410">
        <ele>302.6</ele>
        <time>1970-01-01T00:00:00Z</time>
      </trkpt>
      <trkpt lat="39.243610" lon="-5.739710">
        <ele>307.2</ele>
        <time>1970-01-01T00:00:00Z</time>
      </trkpt>
      <trkpt lat="39.244030" lon="-5.739550">
        <ele>309.1</ele>
        <time>1970-01-01T00:00:00Z</time>
      </trkpt>
      <trkpt lat="39.244260" lon="-5.739380">
        <ele>310.1</ele>
        <time>1970-01-01T00:00:00Z</time>
      </trkpt>
      <trkpt lat="39.244870" lon="-5.738400">
        <ele>315.0</ele>
        <time>1970-01-01T00:00:00Z</time>
      </trkpt>
      <trkpt lat="39.245020" lon="-5.738180">
        <ele>315.0</ele>
        <time>1970-01-01T00:00:00Z</time>
      </trkpt>
      <trkpt lat="39.244970" lon="-5.738130">
        <ele>315.0</ele>
        <time>1970-01-01T00:00:00Z</time>
      </trkpt>
      <trkpt lat="39.244970" lon="-5.738110">
        <ele>315.0</ele>
        <time>1970-01-01T00:00:00Z</time>
      </trkpt>
      <trkpt lat="39.244631" lon="-5.737833">
        <ele>314.3</ele>
        <time>1970-01-01T00:00:00Z</time>
      </trkpt>
      <trkpt lat="39.244187" lon="-5.737538">
        <ele>313.0</ele>
        <time>1970-01-01T00:00:00Z</time>
      </trkpt>
      <trkpt lat="39.243960" lon="-5.737222">
        <ele>314.1</ele>
        <time>1970-01-01T00:00:00Z</time>
      </trkpt>
      <trkpt lat="39.243829" lon="-5.737072">
        <ele>315.3</ele>
        <time>1970-01-01T00:00:00Z</time>
      </trkpt>
      <trkpt lat="39.243715" lon="-5.736749">
        <ele>316.5</ele>
        <time>1970-01-01T00:00:00Z</time>
      </trkpt>
      <trkpt lat="39.243647" lon="-5.736381">
        <ele>317.0</ele>
        <time>1970-01-01T00:00:00Z</time>
      </trkpt>
      <trkpt lat="39.243645" lon="-5.735906">
        <ele>317.1</ele>
        <time>1970-01-01T00:00:00Z</time>
      </trkpt>
      <trkpt lat="39.243775" lon="-5.735546">
        <ele>317.3</ele>
        <time>1970-01-01T00:00:00Z</time>
      </trkpt>
      <trkpt lat="39.243872" lon="-5.735249">
        <ele>317.0</ele>
        <time>1970-01-01T00:00:00Z</time>
      </trkpt>
      <trkpt lat="39.243966" lon="-5.735062">
        <ele>317.0</ele>
        <time>1970-01-01T00:00:00Z</time>
      </trkpt>
      <trkpt lat="39.244033" lon="-5.734890">
        <ele>316.8</ele>
        <time>1970-01-01T00:00:00Z</time>
      </trkpt>
      <trkpt lat="39.244362" lon="-5.734503">
        <ele>316.7</ele>
        <time>1970-01-01T00:00:00Z</time>
      </trkpt>
      <trkpt lat="39.244700" lon="-5.734260">
        <ele>316.0</ele>
        <time>1970-01-01T00:00:00Z</time>
      </trkpt>
      <trkpt lat="39.245350" lon="-5.733410">
        <ele>322.3</ele>
        <time>1970-01-01T00:00:00Z</time>
      </trkpt>
      <trkpt lat="39.245450" lon="-5.733260">
        <ele>322.9</ele>
        <time>1970-01-01T00:00:00Z</time>
      </trkpt>
      <trkpt lat="39.246250" lon="-5.732530">
        <ele>323.0</ele>
        <time>1970-01-01T00:00:00Z</time>
      </trkpt>
      <trkpt lat="39.246380" lon="-5.732430">
        <ele>323.0</ele>
        <time>1970-01-01T00:00:00Z</time>
      </trkpt>
      <trkpt lat="39.246460" lon="-5.732360">
        <ele>323.0</ele>
        <time>1970-01-01T00:00:00Z</time>
      </trkpt>
      <trkpt lat="39.246540" lon="-5.732190">
        <ele>323.0</ele>
        <time>1970-01-01T00:00:00Z</time>
      </trkpt>
      <trkpt lat="39.246550" lon="-5.731690">
        <ele>324.2</ele>
        <time>1970-01-01T00:00:00Z</time>
      </trkpt>
      <trkpt lat="39.246550" lon="-5.731680">
        <ele>324.2</ele>
        <time>1970-01-01T00:00:00Z</time>
      </trkpt>
      <trkpt lat="39.246660" lon="-5.731560">
        <ele>324.9</ele>
        <time>1970-01-01T00:00:00Z</time>
      </trkpt>
      <trkpt lat="39.246890" lon="-5.731390">
        <ele>325.7</ele>
        <time>1970-01-01T00:00:00Z</time>
      </trkpt>
      <trkpt lat="39.247140" lon="-5.731270">
        <ele>327.0</ele>
        <time>1970-01-01T00:00:00Z</time>
      </trkpt>
      <trkpt lat="39.247510" lon="-5.730960">
        <ele>328.0</ele>
        <time>1970-01-01T00:00:00Z</time>
      </trkpt>
      <trkpt lat="39.247650" lon="-5.730830">
        <ele>328.0</ele>
        <time>1970-01-01T00:00:00Z</time>
      </trkpt>
      <trkpt lat="39.247760" lon="-5.730690">
        <ele>328.0</ele>
        <time>1970-01-01T00:00:00Z</time>
      </trkpt>
      <trkpt lat="39.248180" lon="-5.730340">
        <ele>327.9</ele>
        <time>1970-01-01T00:00:00Z</time>
      </trkpt>
      <trkpt lat="39.248330" lon="-5.730160">
        <ele>328.2</ele>
        <time>1970-01-01T00:00:00Z</time>
      </trkpt>
      <trkpt lat="39.248450" lon="-5.729850">
        <ele>328.7</ele>
        <time>1970-01-01T00:00:00Z</time>
      </trkpt>
      <trkpt lat="39.248660" lon="-5.729480">
        <ele>329.3</ele>
        <time>1970-01-01T00:00:00Z</time>
      </trkpt>
      <trkpt lat="39.248740" lon="-5.729270">
        <ele>330.0</ele>
        <time>1970-01-01T00:00:00Z</time>
      </trkpt>
      <trkpt lat="39.248850" lon="-5.728910">
        <ele>331.0</ele>
        <time>1970-01-01T00:00:00Z</time>
      </trkpt>
      <trkpt lat="39.249150" lon="-5.728290">
        <ele>332.0</ele>
        <time>1970-01-01T00:00:00Z</time>
      </trkpt>
      <trkpt lat="39.249220" lon="-5.727870">
        <ele>332.1</ele>
        <time>1970-01-01T00:00:00Z</time>
      </trkpt>
      <trkpt lat="39.249360" lon="-5.727600">
        <ele>333.0</ele>
        <time>1970-01-01T00:00:00Z</time>
      </trkpt>
      <trkpt lat="39.249840" lon="-5.726670">
        <ele>335.0</ele>
        <time>1970-01-01T00:00:00Z</time>
      </trkpt>
      <trkpt lat="39.249910" lon="-5.726460">
        <ele>336.0</ele>
        <time>1970-01-01T00:00:00Z</time>
      </trkpt>
      <trkpt lat="39.249920" lon="-5.726450">
        <ele>336.1</ele>
        <time>1970-01-01T00:00:00Z</time>
      </trkpt>
      <trkpt lat="39.249930" lon="-5.726480">
        <ele>336.0</ele>
        <time>1970-01-01T00:00:00Z</time>
      </trkpt>
      <trkpt lat="39.250100" lon="-5.726210">
        <ele>337.9</ele>
        <time>1970-01-01T00:00:00Z</time>
      </trkpt>
      <trkpt lat="39.250170" lon="-5.726050">
        <ele>338.7</ele>
        <time>1970-01-01T00:00:00Z</time>
      </trkpt>
      <trkpt lat="39.250270" lon="-5.725880">
        <ele>339.5</ele>
        <time>1970-01-01T00:00:00Z</time>
      </trkpt>
      <trkpt lat="39.250330" lon="-5.725670">
        <ele>340.3</ele>
        <time>1970-01-01T00:00:00Z</time>
      </trkpt>
      <trkpt lat="39.250490" lon="-5.725380">
        <ele>341.6</ele>
        <time>1970-01-01T00:00:00Z</time>
      </trkpt>
      <trkpt lat="39.250720" lon="-5.724910">
        <ele>342.7</ele>
        <time>1970-01-01T00:00:00Z</time>
      </trkpt>
      <trkpt lat="39.250950" lon="-5.724410">
        <ele>344.3</ele>
        <time>1970-01-01T00:00:00Z</time>
      </trkpt>
      <trkpt lat="39.251210" lon="-5.724030">
        <ele>346.6</ele>
        <time>1970-01-01T00:00:00Z</time>
      </trkpt>
      <trkpt lat="39.251260" lon="-5.723950">
        <ele>347.5</ele>
        <time>1970-01-01T00:00:00Z</time>
      </trkpt>
      <trkpt lat="39.251450" lon="-5.723650">
        <ele>349.9</ele>
        <time>1970-01-01T00:00:00Z</time>
      </trkpt>
      <trkpt lat="39.251670" lon="-5.723250">
        <ele>354.3</ele>
        <time>1970-01-01T00:00:00Z</time>
      </trkpt>
      <trkpt lat="39.251870" lon="-5.723020">
        <ele>356.3</ele>
        <time>1970-01-01T00:00:00Z</time>
      </trkpt>
      <trkpt lat="39.252130" lon="-5.722610">
        <ele>359.6</ele>
        <time>1970-01-01T00:00:00Z</time>
      </trkpt>
      <trkpt lat="39.252350" lon="-5.722350">
        <ele>360.7</ele>
        <time>1970-01-01T00:00:00Z</time>
      </trkpt>
      <trkpt lat="39.252560" lon="-5.722130">
        <ele>361.5</ele>
        <time>1970-01-01T00:00:00Z</time>
      </trkpt>
      <trkpt lat="39.252750" lon="-5.721860">
        <ele>363.9</ele>
        <time>1970-01-01T00:00:00Z</time>
      </trkpt>
      <trkpt lat="39.252890" lon="-5.721760">
        <ele>365.2</ele>
        <time>1970-01-01T00:00:00Z</time>
      </trkpt>
      <trkpt lat="39.253110" lon="-5.721500">
        <ele>368.1</ele>
        <time>1970-01-01T00:00:00Z</time>
      </trkpt>
      <trkpt lat="39.253140" lon="-5.721450">
        <ele>368.8</ele>
        <time>1970-01-01T00:00:00Z</time>
      </trkpt>
      <trkpt lat="39.253130" lon="-5.721460">
        <ele>368.7</ele>
        <time>1970-01-01T00:00:00Z</time>
      </trkpt>
      <trkpt lat="39.253370" lon="-5.721370">
        <ele>370.8</ele>
        <time>1970-01-01T00:00:00Z</time>
      </trkpt>
      <trkpt lat="39.253460" lon="-5.721230">
        <ele>373.5</ele>
        <time>1970-01-01T00:00:00Z</time>
      </trkpt>
      <trkpt lat="39.254030" lon="-5.720660">
        <ele>383.9</ele>
        <time>1970-01-01T00:00:00Z</time>
      </trkpt>
      <trkpt lat="39.254090" lon="-5.720580">
        <ele>384.7</ele>
        <time>1970-01-01T00:00:00Z</time>
      </trkpt>
      <trkpt lat="39.254140" lon="-5.720470">
        <ele>385.6</ele>
        <time>1970-01-01T00:00:00Z</time>
      </trkpt>
      <trkpt lat="39.254240" lon="-5.720330">
        <ele>386.9</ele>
        <time>1970-01-01T00:00:00Z</time>
      </trkpt>
      <trkpt lat="39.254630" lon="-5.719740">
        <ele>389.1</ele>
        <time>1970-01-01T00:00:00Z</time>
      </trkpt>
      <trkpt lat="39.254920" lon="-5.719290">
        <ele>391.2</ele>
        <time>1970-01-01T00:00:00Z</time>
      </trkpt>
      <trkpt lat="39.254900" lon="-5.719270">
        <ele>391.4</ele>
        <time>1970-01-01T00:00:00Z</time>
      </trkpt>
      <trkpt lat="39.254890" lon="-5.719270">
        <ele>391.5</ele>
        <time>1970-01-01T00:00:00Z</time>
      </trkpt>
      <trkpt lat="39.254730" lon="-5.718910">
        <ele>394.6</ele>
        <time>1970-01-01T00:00:00Z</time>
      </trkpt>
      <trkpt lat="39.254690" lon="-5.718840">
        <ele>394.9</ele>
        <time>1970-01-01T00:00:00Z</time>
      </trkpt>
      <trkpt lat="39.254700" lon="-5.718670">
        <ele>395.0</ele>
        <time>1970-01-01T00:00:00Z</time>
      </trkpt>
      <trkpt lat="39.254700" lon="-5.718660">
        <ele>395.0</ele>
        <time>1970-01-01T00:00:00Z</time>
      </trkpt>
      <trkpt lat="39.254700" lon="-5.718660">
        <ele>395.0</ele>
        <time>1970-01-01T00:00:00Z</time>
      </trkpt>
      <trkpt lat="39.254850" lon="-5.718500">
        <ele>395.8</ele>
        <time>1970-01-01T00:00:00Z</time>
      </trkpt>
      <trkpt lat="39.254950" lon="-5.718410">
        <ele>396.6</ele>
        <time>1970-01-01T00:00:00Z</time>
      </trkpt>
      <trkpt lat="39.255340" lon="-5.717910">
        <ele>398.5</ele>
        <time>1970-01-01T00:00:00Z</time>
      </trkpt>
      <trkpt lat="39.255750" lon="-5.717460">
        <ele>398.2</ele>
        <time>1970-01-01T00:00:00Z</time>
      </trkpt>
      <trkpt lat="39.256010" lon="-5.716940">
        <ele>397.9</ele>
        <time>1970-01-01T00:00:00Z</time>
      </trkpt>
      <trkpt lat="39.256090" lon="-5.716630">
        <ele>396.9</ele>
        <time>1970-01-01T00:00:00Z</time>
      </trkpt>
      <trkpt lat="39.256140" lon="-5.716470">
        <ele>396.9</ele>
        <time>1970-01-01T00:00:00Z</time>
      </trkpt>
      <trkpt lat="39.256450" lon="-5.716140">
        <ele>396.8</ele>
        <time>1970-01-01T00:00:00Z</time>
      </trkpt>
      <trkpt lat="39.256550" lon="-5.716020">
        <ele>396.7</ele>
        <time>1970-01-01T00:00:00Z</time>
      </trkpt>
      <trkpt lat="39.256700" lon="-5.715820">
        <ele>397.0</ele>
        <time>1970-01-01T00:00:00Z</time>
      </trkpt>
      <trkpt lat="39.257170" lon="-5.714930">
        <ele>394.1</ele>
        <time>1970-01-01T00:00:00Z</time>
      </trkpt>
      <trkpt lat="39.257320" lon="-5.714680">
        <ele>393.1</ele>
        <time>1970-01-01T00:00:00Z</time>
      </trkpt>
      <trkpt lat="39.257390" lon="-5.714520">
        <ele>392.5</ele>
        <time>1970-01-01T00:00:00Z</time>
      </trkpt>
      <trkpt lat="39.257570" lon="-5.714320">
        <ele>392.0</ele>
        <time>1970-01-01T00:00:00Z</time>
      </trkpt>
      <trkpt lat="39.257630" lon="-5.714260">
        <ele>392.0</ele>
        <time>1970-01-01T00:00:00Z</time>
      </trkpt>
      <trkpt lat="39.257830" lon="-5.714020">
        <ele>392.0</ele>
        <time>1970-01-01T00:00:00Z</time>
      </trkpt>
      <trkpt lat="39.257940" lon="-5.713730">
        <ele>392.0</ele>
        <time>1970-01-01T00:00:00Z</time>
      </trkpt>
      <trkpt lat="39.258710" lon="-5.712790">
        <ele>384.8</ele>
        <time>1970-01-01T00:00:00Z</time>
      </trkpt>
      <trkpt lat="39.259400" lon="-5.711820">
        <ele>373.5</ele>
        <time>1970-01-01T00:00:00Z</time>
      </trkpt>
      <trkpt lat="39.259500" lon="-5.711650">
        <ele>371.6</ele>
        <time>1970-01-01T00:00:00Z</time>
      </trkpt>
      <trkpt lat="39.260260" lon="-5.710600">
        <ele>363.8</ele>
        <time>1970-01-01T00:00:00Z</time>
      </trkpt>
      <trkpt lat="39.260980" lon="-5.710180">
        <ele>370.8</ele>
        <time>1970-01-01T00:00:00Z</time>
      </trkpt>
      <trkpt lat="39.261900" lon="-5.709490">
        <ele>374.0</ele>
        <time>1970-01-01T00:00:00Z</time>
      </trkpt>
      <trkpt lat="39.262560" lon="-5.709110">
        <ele>378.0</ele>
        <time>1970-01-01T00:00:00Z</time>
      </trkpt>
      <trkpt lat="39.263480" lon="-5.708050">
        <ele>368.8</ele>
        <time>1970-01-01T00:00:00Z</time>
      </trkpt>
      <trkpt lat="39.264090" lon="-5.707670">
        <ele>365.2</ele>
        <time>1970-01-01T00:00:00Z</time>
      </trkpt>
      <trkpt lat="39.264750" lon="-5.707280">
        <ele>369.0</ele>
        <time>1970-01-01T00:00:00Z</time>
      </trkpt>
      <trkpt lat="39.265150" lon="-5.706980">
        <ele>373.1</ele>
        <time>1970-01-01T00:00:00Z</time>
      </trkpt>
      <trkpt lat="39.265360" lon="-5.706710">
        <ele>375.3</ele>
        <time>1970-01-01T00:00:00Z</time>
      </trkpt>
      <trkpt lat="39.266110" lon="-5.705650">
        <ele>373.0</ele>
        <time>1970-01-01T00:00:00Z</time>
      </trkpt>
      <trkpt lat="39.266180" lon="-5.705570">
        <ele>372.7</ele>
        <time>1970-01-01T00:00:00Z</time>
      </trkpt>
      <trkpt lat="39.266680" lon="-5.704450">
        <ele>373.0</ele>
        <time>1970-01-01T00:00:00Z</time>
      </trkpt>
      <trkpt lat="39.266810" lon="-5.704250">
        <ele>373.0</ele>
        <time>1970-01-01T00:00:00Z</time>
      </trkpt>
      <trkpt lat="39.267070" lon="-5.704020">
        <ele>373.0</ele>
        <time>1970-01-01T00:00:00Z</time>
      </trkpt>
      <trkpt lat="39.268030" lon="-5.703290">
        <ele>375.0</ele>
        <time>1970-01-01T00:00:00Z</time>
      </trkpt>
      <trkpt lat="39.268220" lon="-5.703150">
        <ele>375.0</ele>
        <time>1970-01-01T00:00:00Z</time>
      </trkpt>
      <trkpt lat="39.268340" lon="-5.702850">
        <ele>375.0</ele>
        <time>1970-01-01T00:00:00Z</time>
      </trkpt>
      <trkpt lat="39.268430" lon="-5.702350">
        <ele>375.0</ele>
        <time>1970-01-01T00:00:00Z</time>
      </trkpt>
      <trkpt lat="39.268550" lon="-5.701930">
        <ele>375.0</ele>
        <time>1970-01-01T00:00:00Z</time>
      </trkpt>
      <trkpt lat="39.268630" lon="-5.701820">
        <ele>375.0</ele>
        <time>1970-01-01T00:00:00Z</time>
      </trkpt>
      <trkpt lat="39.268980" lon="-5.701620">
        <ele>376.0</ele>
        <time>1970-01-01T00:00:00Z</time>
      </trkpt>
      <trkpt lat="39.269770" lon="-5.701280">
        <ele>379.4</ele>
        <time>1970-01-01T00:00:00Z</time>
      </trkpt>
      <trkpt lat="39.270030" lon="-5.701060">
        <ele>379.7</ele>
        <time>1970-01-01T00:00:00Z</time>
      </trkpt>
      <trkpt lat="39.270420" lon="-5.700290">
        <ele>382.3</ele>
        <time>1970-01-01T00:00:00Z</time>
      </trkpt>
      <trkpt lat="39.270720" lon="-5.699720">
        <ele>382.0</ele>
        <time>1970-01-01T00:00:00Z</time>
      </trkpt>
      <trkpt lat="39.270950" lon="-5.699480">
        <ele>382.0</ele>
        <time>1970-01-01T00:00:00Z</time>
      </trkpt>
      <trkpt lat="39.271630" lon="-5.698630">
        <ele>383.3</ele>
        <time>1970-01-01T00:00:00Z</time>
      </trkpt>
      <trkpt lat="39.272090" lon="-5.698090">
        <ele>383.1</ele>
        <time>1970-01-01T00:00:00Z</time>
      </trkpt>
      <trkpt lat="39.272200" lon="-5.697850">
        <ele>383.0</ele>
        <time>1970-01-01T00:00:00Z</time>
      </trkpt>
      <trkpt lat="39.272250" lon="-5.697690">
        <ele>383.0</ele>
        <time>1970-01-01T00:00:00Z</time>
      </trkpt>
      <trkpt lat="39.272420" lon="-5.697420">
        <ele>383.0</ele>
        <time>1970-01-01T00:00:00Z</time>
      </trkpt>
      <trkpt lat="39.272530" lon="-5.697310">
        <ele>383.0</ele>
        <time>1970-01-01T00:00:00Z</time>
      </trkpt>
      <trkpt lat="39.272790" lon="-5.697230">
        <ele>384.1</ele>
        <time>1970-01-01T00:00:00Z</time>
      </trkpt>
      <trkpt lat="39.272940" lon="-5.697230">
        <ele>384.7</ele>
        <time>1970-01-01T00:00:00Z</time>
      </trkpt>
      <trkpt lat="39.272920" lon="-5.697230">
        <ele>384.6</ele>
        <time>1970-01-01T00:00:00Z</time>
      </trkpt>
      <trkpt lat="39.273300" lon="-5.697100">
        <ele>386.1</ele>
        <time>1970-01-01T00:00:00Z</time>
      </trkpt>
      <trkpt lat="39.273420" lon="-5.697080">
        <ele>386.6</ele>
        <time>1970-01-01T00:00:00Z</time>
      </trkpt>
      <trkpt lat="39.273550" lon="-5.697070">
        <ele>387.0</ele>
        <time>1970-01-01T00:00:00Z</time>
      </trkpt>
      <trkpt lat="39.273880" lon="-5.696940">
        <ele>387.0</ele>
        <time>1970-01-01T00:00:00Z</time>
      </trkpt>
      <trkpt lat="39.274240" lon="-5.696590">
        <ele>384.8</ele>
        <time>1970-01-01T00:00:00Z</time>
      </trkpt>
      <trkpt lat="39.274750" lon="-5.696510">
        <ele>383.4</ele>
        <time>1970-01-01T00:00:00Z</time>
      </trkpt>
      <trkpt lat="39.274860" lon="-5.696600">
        <ele>383.0</ele>
        <time>1970-01-01T00:00:00Z</time>
      </trkpt>
      <trkpt lat="39.274870" lon="-5.696610">
        <ele>382.9</ele>
        <time>1970-01-01T00:00:00Z</time>
      </trkpt>
      <trkpt lat="39.274950" lon="-5.696700">
        <ele>382.5</ele>
        <time>1970-01-01T00:00:00Z</time>
      </trkpt>
      <trkpt lat="39.275400" lon="-5.696950">
        <ele>382.3</ele>
        <time>1970-01-01T00:00:00Z</time>
      </trkpt>
      <trkpt lat="39.275830" lon="-5.697030">
        <ele>383.1</ele>
        <time>1970-01-01T00:00:00Z</time>
      </trkpt>
      <trkpt lat="39.276340" lon="-5.697220">
        <ele>384.5</ele>
        <time>1970-01-01T00:00:00Z</time>
      </trkpt>
      <trkpt lat="39.276480" lon="-5.697260">
        <ele>385.0</ele>
        <time>1970-01-01T00:00:00Z</time>
      </trkpt>
      <trkpt lat="39.276600" lon="-5.697300">
        <ele>385.4</ele>
        <time>1970-01-01T00:00:00Z</time>
      </trkpt>
      <trkpt lat="39.276650" lon="-5.697330">
        <ele>385.6</ele>
        <time>1970-01-01T00:00:00Z</time>
      </trkpt>
      <trkpt lat="39.277400" lon="-5.697790">
        <ele>387.7</ele>
        <time>1970-01-01T00:00:00Z</time>
      </trkpt>
      <trkpt lat="39.278270" lon="-5.698390">
        <ele>388.0</ele>
        <time>1970-01-01T00:00:00Z</time>
      </trkpt>
      <trkpt lat="39.279160" lon="-5.698940">
        <ele>389.0</ele>
        <time>1970-01-01T00:00:00Z</time>
      </trkpt>
      <trkpt lat="39.279390" lon="-5.699020">
        <ele>389.6</ele>
        <time>1970-01-01T00:00:00Z</time>
      </trkpt>
      <trkpt lat="39.279570" lon="-5.699210">
        <ele>389.9</ele>
        <time>1970-01-01T00:00:00Z</time>
      </trkpt>
      <trkpt lat="39.279770" lon="-5.699590">
        <ele>390.1</ele>
        <time>1970-01-01T00:00:00Z</time>
      </trkpt>
      <trkpt lat="39.279990" lon="-5.699820">
        <ele>391.0</ele>
        <time>1970-01-01T00:00:00Z</time>
      </trkpt>
      <trkpt lat="39.280130" lon="-5.699990">
        <ele>392.2</ele>
        <time>1970-01-01T00:00:00Z</time>
      </trkpt>
      <trkpt lat="39.280200" lon="-5.700290">
        <ele>392.9</ele>
        <time>1970-01-01T00:00:00Z</time>
      </trkpt>
      <trkpt lat="39.280200" lon="-5.700530">
        <ele>392.9</ele>
        <time>1970-01-01T00:00:00Z</time>
      </trkpt>
      <trkpt lat="39.280340" lon="-5.701260">
        <ele>395.7</ele>
        <time>1970-01-01T00:00:00Z</time>
      </trkpt>
      <trkpt lat="39.280510" lon="-5.701500">
        <ele>397.9</ele>
        <time>1970-01-01T00:00:00Z</time>
      </trkpt>
      <trkpt lat="39.281010" lon="-5.701870">
        <ele>404.2</ele>
        <time>1970-01-01T00:00:00Z</time>
      </trkpt>
      <trkpt lat="39.281070" lon="-5.701890">
        <ele>404.6</ele>
        <time>1970-01-01T00:00:00Z</time>
      </trkpt>
      <trkpt lat="39.281070" lon="-5.701890">
        <ele>404.6</ele>
        <time>1970-01-01T00:00:00Z</time>
      </trkpt>
      <trkpt lat="39.281060" lon="-5.701910">
        <ele>404.6</ele>
        <time>1970-01-01T00:00:00Z</time>
      </trkpt>
      <trkpt lat="39.281110" lon="-5.702050">
        <ele>404.9</ele>
        <time>1970-01-01T00:00:00Z</time>
      </trkpt>
      <trkpt lat="39.281140" lon="-5.702190">
        <ele>405.2</ele>
        <time>1970-01-01T00:00:00Z</time>
      </trkpt>
      <trkpt lat="39.281140" lon="-5.702170">
        <ele>405.1</ele>
        <time>1970-01-01T00:00:00Z</time>
      </trkpt>
      <trkpt lat="39.281260" lon="-5.702180">
        <ele>405.6</ele>
        <time>1970-01-01T00:00:00Z</time>
      </trkpt>
      <trkpt lat="39.281750" lon="-5.701940">
        <ele>408.6</ele>
        <time>1970-01-01T00:00:00Z</time>
      </trkpt>
      <trkpt lat="39.282220" lon="-5.701710">
        <ele>413.8</ele>
        <time>1970-01-01T00:00:00Z</time>
      </trkpt>
      <trkpt lat="39.282530" lon="-5.701670">
        <ele>417.0</ele>
        <time>1970-01-01T00:00:00Z</time>
      </trkpt>
      <trkpt lat="39.283230" lon="-5.701190">
        <ele>422.0</ele>
        <time>1970-01-01T00:00:00Z</time>
      </trkpt>
      <trkpt lat="39.283400" lon="-5.701060">
        <ele>422.5</ele>
        <time>1970-01-01T00:00:00Z</time>
      </trkpt>
      <trkpt lat="39.283850" lon="-5.700820">
        <ele>424.9</ele>
        <time>1970-01-01T00:00:00Z</time>
      </trkpt>
      <trkpt lat="39.284130" lon="-5.700530">
        <ele>426.9</ele>
        <time>1970-01-01T00:00:00Z</time>
      </trkpt>
      <trkpt lat="39.284400" lon="-5.700140">
        <ele>428.0</ele>
        <time>1970-01-01T00:00:00Z</time>
      </trkpt>
      <trkpt lat="39.284540" lon="-5.699760">
        <ele>427.3</ele>
        <time>1970-01-01T00:00:00Z</time>
      </trkpt>
      <trkpt lat="39.284420" lon="-5.699500">
        <ele>427.9</ele>
        <time>1970-01-01T00:00:00Z</time>
      </trkpt>
      <trkpt lat="39.284380" lon="-5.699290">
        <ele>427.7</ele>
        <time>1970-01-01T00:00:00Z</time>
      </trkpt>
      <trkpt lat="39.284400" lon="-5.699300">
        <ele>427.6</ele>
        <time>1970-01-01T00:00:00Z</time>
      </trkpt>
      <trkpt lat="39.284530" lon="-5.699120">
        <ele>426.3</ele>
        <time>1970-01-01T00:00:00Z</time>
      </trkpt>
      <trkpt lat="39.284520" lon="-5.699120">
        <ele>426.4</ele>
        <time>1970-01-01T00:00:00Z</time>
      </trkpt>
      <trkpt lat="39.284410" lon="-5.699110">
        <ele>426.8</ele>
        <time>1970-01-01T00:00:00Z</time>
      </trkpt>
      <trkpt lat="39.284350" lon="-5.699090">
        <ele>426.9</ele>
        <time>1970-01-01T00:00:00Z</time>
      </trkpt>
      <trkpt lat="39.284290" lon="-5.699010">
        <ele>426.9</ele>
        <time>1970-01-01T00:00:00Z</time>
      </trkpt>
      <trkpt lat="39.284270" lon="-5.699020">
        <ele>427.0</ele>
        <time>1970-01-01T00:00:00Z</time>
      </trkpt>
      <trkpt lat="39.283750" lon="-5.699110">
        <ele>427.1</ele>
        <time>1970-01-01T00:00:00Z</time>
      </trkpt>
      <trkpt lat="39.283560" lon="-5.699070">
        <ele>426.1</ele>
        <time>1970-01-01T00:00:00Z</time>
      </trkpt>
      <trkpt lat="39.283490" lon="-5.699120">
        <ele>426.1</ele>
        <time>1970-01-01T00:00:00Z</time>
      </trkpt>
      <trkpt lat="39.283010" lon="-5.698920">
        <ele>420.2</ele>
        <time>1970-01-01T00:00:00Z</time>
      </trkpt>
      <trkpt lat="39.283010" lon="-5.698890">
        <ele>420.1</ele>
        <time>1970-01-01T00:00:00Z</time>
      </trkpt>
      <trkpt lat="39.283000" lon="-5.698800">
        <ele>419.6</ele>
        <time>1970-01-01T00:00:00Z</time>
      </trkpt>
      <trkpt lat="39.283040" lon="-5.698600">
        <ele>418.9</ele>
        <time>1970-01-01T00:00:00Z</time>
      </trkpt>
      <trkpt lat="39.283000" lon="-5.698560">
        <ele>418.0</ele>
        <time>1970-01-01T00:00:00Z</time>
      </trkpt>
      <trkpt lat="39.282830" lon="-5.698480">
        <ele>414.3</ele>
        <time>1970-01-01T00:00:00Z</time>
      </trkpt>
      <trkpt lat="39.282490" lon="-5.698190">
        <ele>407.1</ele>
        <time>1970-01-01T00:00:00Z</time>
      </trkpt>
      <trkpt lat="39.282410" lon="-5.698110">
        <ele>405.4</ele>
        <time>1970-01-01T00:00:00Z</time>
      </trkpt>
      <trkpt lat="39.282250" lon="-5.697810">
        <ele>402.3</ele>
        <time>1970-01-01T00:00:00Z</time>
      </trkpt>
      <trkpt lat="39.281840" lon="-5.697390">
        <ele>398.0</ele>
        <time>1970-01-01T00:00:00Z</time>
      </trkpt>
      <trkpt lat="39.281670" lon="-5.697280">
        <ele>397.3</ele>
        <time>1970-01-01T00:00:00Z</time>
      </trkpt>
      <trkpt lat="39.281540" lon="-5.697180">
        <ele>397.3</ele>
        <time>1970-01-01T00:00:00Z</time>
      </trkpt>
      <trkpt lat="39.281500" lon="-5.697140">
        <ele>397.3</ele>
        <time>1970-01-01T00:00:00Z</time>
      </trkpt>
      <trkpt lat="39.281340" lon="-5.696760">
        <ele>397.2</ele>
        <time>1970-01-01T00:00:00Z</time>
      </trkpt>
      <trkpt lat="39.281190" lon="-5.695980">
        <ele>399.2</ele>
        <time>1970-01-01T00:00:00Z</time>
      </trkpt>
      <trkpt lat="39.281110" lon="-5.695670">
        <ele>398.7</ele>
        <time>1970-01-01T00:00:00Z</time>
      </trkpt>
      <trkpt lat="39.280900" lon="-5.695300">
        <ele>397.5</ele>
        <time>1970-01-01T00:00:00Z</time>
      </trkpt>
      <trkpt lat="39.280780" lon="-5.695010">
        <ele>397.7</ele>
        <time>1970-01-01T00:00:00Z</time>
      </trkpt>
      <trkpt lat="39.280540" lon="-5.694120">
        <ele>398.1</ele>
        <time>1970-01-01T00:00:00Z</time>
      </trkpt>
      <trkpt lat="39.280530" lon="-5.693840">
        <ele>398.9</ele>
        <time>1970-01-01T00:00:00Z</time>
      </trkpt>
      <trkpt lat="39.280550" lon="-5.693590">
        <ele>399.4</ele>
        <time>1970-01-01T00:00:00Z</time>
      </trkpt>
      <trkpt lat="39.280560" lon="-5.693410">
        <ele>399.5</ele>
        <time>1970-01-01T00:00:00Z</time>
      </trkpt>
      <trkpt lat="39.280560" lon="-5.693410">
        <ele>399.5</ele>
        <time>1970-01-01T00:00:00Z</time>
      </trkpt>
      <trkpt lat="39.280540" lon="-5.693400">
        <ele>399.4</ele>
        <time>1970-01-01T00:00:00Z</time>
      </trkpt>
      <trkpt lat="39.280530" lon="-5.693390">
        <ele>399.3</ele>
        <time>1970-01-01T00:00:00Z</time>
      </trkpt>
      <trkpt lat="39.280350" lon="-5.693230">
        <ele>399.1</ele>
        <time>1970-01-01T00:00:00Z</time>
      </trkpt>
      <trkpt lat="39.280160" lon="-5.693000">
        <ele>399.5</ele>
        <time>1970-01-01T00:00:00Z</time>
      </trkpt>
      <trkpt lat="39.279600" lon="-5.692020">
        <ele>402.6</ele>
        <time>1970-01-01T00:00:00Z</time>
      </trkpt>
      <trkpt lat="39.279130" lon="-5.690910">
        <ele>408.5</ele>
        <time>1970-01-01T00:00:00Z</time>
      </trkpt>
      <trkpt lat="39.278990" lon="-5.690420">
        <ele>412.3</ele>
        <time>1970-01-01T00:00:00Z</time>
      </trkpt>
      <trkpt lat="39.279030" lon="-5.689190">
        <ele>418.0</ele>
        <time>1970-01-01T00:00:00Z</time>
      </trkpt>
      <trkpt lat="39.279120" lon="-5.688470">
        <ele>420.0</ele>
        <time>1970-01-01T00:00:00Z</time>
      </trkpt>
      <trkpt lat="39.279140" lon="-5.688500">
        <ele>420.0</ele>
        <time>1970-01-01T00:00:00Z</time>
      </trkpt>
      <trkpt lat="39.279140" lon="-5.688480">
        <ele>420.0</ele>
        <time>1970-01-01T00:00:00Z</time>
      </trkpt>
      <trkpt lat="39.279190" lon="-5.688250">
        <ele>420.0</ele>
        <time>1970-01-01T00:00:00Z</time>
      </trkpt>
      <trkpt lat="39.279210" lon="-5.687170">
        <ele>418.7</ele>
        <time>1970-01-01T00:00:00Z</time>
      </trkpt>
      <trkpt lat="39.279180" lon="-5.686670">
        <ele>417.1</ele>
        <time>1970-01-01T00:00:00Z</time>
      </trkpt>
      <trkpt lat="39.279200" lon="-5.686280">
        <ele>417.0</ele>
        <time>1970-01-01T00:00:00Z</time>
      </trkpt>
      <trkpt lat="39.279190" lon="-5.686270">
        <ele>417.0</ele>
        <time>1970-01-01T00:00:00Z</time>
      </trkpt>
      <trkpt lat="39.279230" lon="-5.686210">
        <ele>417.0</ele>
        <time>1970-01-01T00:00:00Z</time>
      </trkpt>
      <trkpt lat="39.279370" lon="-5.685360">
        <ele>415.6</ele>
        <time>1970-01-01T00:00:00Z</time>
      </trkpt>
      <trkpt lat="39.279540" lon="-5.684050">
        <ele>410.0</ele>
        <time>1970-01-01T00:00:00Z</time>
      </trkpt>
      <trkpt lat="39.279690" lon="-5.683630">
        <ele>408.0</ele>
        <time>1970-01-01T00:00:00Z</time>
      </trkpt>
      <trkpt lat="39.279650" lon="-5.683190">
        <ele>405.6</ele>
        <time>1970-01-01T00:00:00Z</time>
      </trkpt>
      <trkpt lat="39.279720" lon="-5.682920">
        <ele>403.9</ele>
        <time>1970-01-01T00:00:00Z</time>
      </trkpt>
      <trkpt lat="39.280180" lon="-5.681960">
        <ele>400.0</ele>
        <time>1970-01-01T00:00:00Z</time>
      </trkpt>
      <trkpt lat="39.280260" lon="-5.681800">
        <ele>400.0</ele>
        <time>1970-01-01T00:00:00Z</time>
      </trkpt>
      <trkpt lat="39.280300" lon="-5.681650">
        <ele>400.0</ele>
        <time>1970-01-01T00:00:00Z</time>
      </trkpt>
      <trkpt lat="39.280300" lon="-5.681550">
        <ele>400.0</ele>
        <time>1970-01-01T00:00:00Z</time>
      </trkpt>
      <trkpt lat="39.280490" lon="-5.681200">
        <ele>401.1</ele>
        <time>1970-01-01T00:00:00Z</time>
      </trkpt>
      <trkpt lat="39.280590" lon="-5.681130">
        <ele>401.5</ele>
        <time>1970-01-01T00:00:00Z</time>
      </trkpt>
      <trkpt lat="39.280980" lon="-5.680390">
        <ele>405.0</ele>
        <time>1970-01-01T00:00:00Z</time>
      </trkpt>
      <trkpt lat="39.281160" lon="-5.679820">
        <ele>405.0</ele>
        <time>1970-01-01T00:00:00Z</time>
      </trkpt>
      <trkpt lat="39.281430" lon="-5.679500">
        <ele>404.2</ele>
        <time>1970-01-01T00:00:00Z</time>
      </trkpt>
      <trkpt lat="39.281580" lon="-5.679330">
        <ele>404.0</ele>
        <time>1970-01-01T00:00:00Z</time>
      </trkpt>
      <trkpt lat="39.281830" lon="-5.679000">
        <ele>403.0</ele>
        <time>1970-01-01T00:00:00Z</time>
      </trkpt>
      <trkpt lat="39.281830" lon="-5.679020">
        <ele>403.1</ele>
        <time>1970-01-01T00:00:00Z</time>
      </trkpt>
      <trkpt lat="39.281840" lon="-5.678860">
        <ele>403.0</ele>
        <time>1970-01-01T00:00:00Z</time>
      </trkpt>
      <trkpt lat="39.281750" lon="-5.677880">
        <ele>399.7</ele>
        <time>1970-01-01T00:00:00Z</time>
      </trkpt>
      <trkpt lat="39.281790" lon="-5.676710">
        <ele>396.2</ele>
        <time>1970-01-01T00:00:00Z</time>
      </trkpt>
      <trkpt lat="39.281810" lon="-5.675790">
        <ele>394.1</ele>
        <time>1970-01-01T00:00:00Z</time>
      </trkpt>
      <trkpt lat="39.281910" lon="-5.674850">
        <ele>391.8</ele>
        <time>1970-01-01T00:00:00Z</time>
      </trkpt>
      <trkpt lat="39.282020" lon="-5.673860">
        <ele>389.2</ele>
        <time>1970-01-01T00:00:00Z</time>
      </trkpt>
      <trkpt lat="39.282240" lon="-5.672740">
        <ele>388.0</ele>
        <time>1970-01-01T00:00:00Z</time>
      </trkpt>
      <trkpt lat="39.282620" lon="-5.671700">
        <ele>382.9</ele>
        <time>1970-01-01T00:00:00Z</time>
      </trkpt>
      <trkpt lat="39.282690" lon="-5.671550">
        <ele>382.3</ele>
        <time>1970-01-01T00:00:00Z</time>
      </trkpt>
      <trkpt lat="39.282820" lon="-5.671260">
        <ele>381.4</ele>
        <time>1970-01-01T00:00:00Z</time>
      </trkpt>
      <trkpt lat="39.282950" lon="-5.670830">
        <ele>380.6</ele>
        <time>1970-01-01T00:00:00Z</time>
      </trkpt>
      <trkpt lat="39.283020" lon="-5.670300">
        <ele>379.5</ele>
        <time>1970-01-01T00:00:00Z</time>
      </trkpt>
      <trkpt lat="39.283060" lon="-5.669640">
        <ele>378.0</ele>
        <time>1970-01-01T00:00:00Z</time>
      </trkpt>
      <trkpt lat="39.283150" lon="-5.669010">
        <ele>377.7</ele>
        <time>1970-01-01T00:00:00Z</time>
      </trkpt>
      <trkpt lat="39.283150" lon="-5.668800">
        <ele>378.0</ele>
        <time>1970-01-01T00:00:00Z</time>
      </trkpt>
      <trkpt lat="39.283150" lon="-5.668590">
        <ele>378.0</ele>
        <time>1970-01-01T00:00:00Z</time>
      </trkpt>
      <trkpt lat="39.283300" lon="-5.667540">
        <ele>382.4</ele>
        <time>1970-01-01T00:00:00Z</time>
      </trkpt>
      <trkpt lat="39.283430" lon="-5.666210">
        <ele>387.5</ele>
        <time>1970-01-01T00:00:00Z</time>
      </trkpt>
      <trkpt lat="39.283560" lon="-5.665110">
        <ele>392.0</ele>
        <time>1970-01-01T00:00:00Z</time>
      </trkpt>
      <trkpt lat="39.283540" lon="-5.664640">
        <ele>393.0</ele>
        <time>1970-01-01T00:00:00Z</time>
      </trkpt>
      <trkpt lat="39.283630" lon="-5.664080">
        <ele>394.0</ele>
        <time>1970-01-01T00:00:00Z</time>
      </trkpt>
      <trkpt lat="39.283840" lon="-5.663230">
        <ele>392.0</ele>
        <time>1970-01-01T00:00:00Z</time>
      </trkpt>
      <trkpt lat="39.284080" lon="-5.663030">
        <ele>391.3</ele>
        <time>1970-01-01T00:00:00Z</time>
      </trkpt>
      <trkpt lat="39.285110" lon="-5.663640">
        <ele>387.6</ele>
        <time>1970-01-01T00:00:00Z</time>
      </trkpt>
      <trkpt lat="39.285990" lon="-5.664260">
        <ele>390.0</ele>
        <time>1970-01-01T00:00:00Z</time>
      </trkpt>
      <trkpt lat="39.286910" lon="-5.665240">
        <ele>392.0</ele>
        <time>1970-01-01T00:00:00Z</time>
      </trkpt>
      <trkpt lat="39.287760" lon="-5.666240">
        <ele>396.0</ele>
        <time>1970-01-01T00:00:00Z</time>
      </trkpt>
      <trkpt lat="39.287990" lon="-5.666570">
        <ele>397.7</ele>
        <time>1970-01-01T00:00:00Z</time>
      </trkpt>
      <trkpt lat="39.288020" lon="-5.666550">
        <ele>397.8</ele>
        <time>1970-01-01T00:00:00Z</time>
      </trkpt>
      <trkpt lat="39.288020" lon="-5.666280">
        <ele>396.7</ele>
        <time>1970-01-01T00:00:00Z</time>
      </trkpt>
      <trkpt lat="39.287790" lon="-5.665330">
        <ele>396.8</ele>
        <time>1970-01-01T00:00:00Z</time>
      </trkpt>
      <trkpt lat="39.287760" lon="-5.665200">
        <ele>396.9</ele>
        <time>1970-01-01T00:00:00Z</time>
      </trkpt>
      <trkpt lat="39.287270" lon="-5.663950">
        <ele>393.5</ele>
        <time>1970-01-01T00:00:00Z</time>
      </trkpt>
      <trkpt lat="39.286600" lon="-5.661890">
        <ele>390.5</ele>
        <time>1970-01-01T00:00:00Z</time>
      </trkpt>
      <trkpt lat="39.286210" lon="-5.659340">
        <ele>385.1</ele>
        <time>1970-01-01T00:00:00Z</time>
      </trkpt>
      <trkpt lat="39.285950" lon="-5.656720">
        <ele>379.7</ele>
        <time>1970-01-01T00:00:00Z</time>
      </trkpt>
      <trkpt lat="39.285850" lon="-5.654060">
        <ele>368.0</ele>
        <time>1970-01-01T00:00:00Z</time>
      </trkpt>
      <trkpt lat="39.286020" lon="-5.652040">
        <ele>363.0</ele>
        <time>1970-01-01T00:00:00Z</time>
      </trkpt>
      <trkpt lat="39.286070" lon="-5.651330">
        <ele>367.7</ele>
        <time>1970-01-01T00:00:00Z</time>
      </trkpt>
      <trkpt lat="39.286050" lon="-5.651160">
        <ele>368.7</ele>
        <time>1970-01-01T00:00:00Z</time>
      </trkpt>
      <trkpt lat="39.285500" lon="-5.651190">
        <ele>368.3</ele>
        <time>1970-01-01T00:00:00Z</time>
      </trkpt>
      <trkpt lat="39.285380" lon="-5.651230">
        <ele>367.9</ele>
        <time>1970-01-01T00:00:00Z</time>
      </trkpt>
      <trkpt lat="39.284670" lon="-5.651590">
        <ele>365.8</ele>
        <time>1970-01-01T00:00:00Z</time>
      </trkpt>
      <trkpt lat="39.283980" lon="-5.651610">
        <ele>362.8</ele>
        <time>1970-01-01T00:00:00Z</time>
      </trkpt>
      <trkpt lat="39.283610" lon="-5.650740">
        <ele>360.7</ele>
        <time>1970-01-01T00:00:00Z</time>
      </trkpt>
      <trkpt lat="39.283210" lon="-5.650220">
        <ele>358.2</ele>
        <time>1970-01-01T00:00:00Z</time>
      </trkpt>
      <trkpt lat="39.282860" lon="-5.650000">
        <ele>358.0</ele>
        <time>1970-01-01T00:00:00Z</time>
      </trkpt>
      <trkpt lat="39.282430" lon="-5.649470">
        <ele>357.9</ele>
        <time>1970-01-01T00:00:00Z</time>
      </trkpt>
      <trkpt lat="39.281890" lon="-5.647420">
        <ele>360.9</ele>
        <time>1970-01-01T00:00:00Z</time>
      </trkpt>
      <trkpt lat="39.281430" lon="-5.645300">
        <ele>356.3</ele>
        <time>1970-01-01T00:00:00Z</time>
      </trkpt>
      <trkpt lat="39.281280" lon="-5.643860">
        <ele>350.7</ele>
        <time>1970-01-01T00:00:00Z</time>
      </trkpt>
      <trkpt lat="39.281110" lon="-5.643100">
        <ele>349.7</ele>
        <time>1970-01-01T00:00:00Z</time>
      </trkpt>
      <trkpt lat="39.280570" lon="-5.641450">
        <ele>349.6</ele>
        <time>1970-01-01T00:00:00Z</time>
      </trkpt>
      <trkpt lat="39.280660" lon="-5.640770">
        <ele>350.0</ele>
        <time>1970-01-01T00:00:00Z</time>
      </trkpt>
      <trkpt lat="39.281380" lon="-5.638930">
        <ele>351.0</ele>
        <time>1970-01-01T00:00:00Z</time>
      </trkpt>
      <trkpt lat="39.281250" lon="-5.637150">
        <ele>354.0</ele>
        <time>1970-01-01T00:00:00Z</time>
      </trkpt>
      <trkpt lat="39.281120" lon="-5.636290">
        <ele>357.0</ele>
        <time>1970-01-01T00:00:00Z</time>
      </trkpt>
      <trkpt lat="39.281390" lon="-5.634600">
        <ele>360.0</ele>
        <time>1970-01-01T00:00:00Z</time>
      </trkpt>
      <trkpt lat="39.282150" lon="-5.632380">
        <ele>352.2</ele>
        <time>1970-01-01T00:00:00Z</time>
      </trkpt>
      <trkpt lat="39.283300" lon="-5.629730">
        <ele>345.1</ele>
        <time>1970-01-01T00:00:00Z</time>
      </trkpt>
      <trkpt lat="39.283420" lon="-5.629310">
        <ele>342.4</ele>
        <time>1970-01-01T00:00:00Z</time>
      </trkpt>
      <trkpt lat="39.283440" lon="-5.627320">
        <ele>331.9</ele>
        <time>1970-01-01T00:00:00Z</time>
      </trkpt>
      <trkpt lat="39.283360" lon="-5.625300">
        <ele>343.0</ele>
        <time>1970-01-01T00:00:00Z</time>
      </trkpt>
      <trkpt lat="39.283180" lon="-5.623570">
        <ele>343.9</ele>
        <time>1970-01-01T00:00:00Z</time>
      </trkpt>
      <trkpt lat="39.282510" lon="-5.620680">
        <ele>349.0</ele>
        <time>1970-01-01T00:00:00Z</time>
      </trkpt>
      <trkpt lat="39.281840" lon="-5.619560">
        <ele>355.6</ele>
        <time>1970-01-01T00:00:00Z</time>
      </trkpt>
      <trkpt lat="39.281490" lon="-5.618720">
        <ele>360.4</ele>
        <time>1970-01-01T00:00:00Z</time>
      </trkpt>
      <trkpt lat="39.281270" lon="-5.616810">
        <ele>357.5</ele>
        <time>1970-01-01T00:00:00Z</time>
      </trkpt>
      <trkpt lat="39.281070" lon="-5.616010">
        <ele>353.0</ele>
        <time>1970-01-01T00:00:00Z</time>
      </trkpt>
      <trkpt lat="39.280990" lon="-5.615840">
        <ele>352.4</ele>
        <time>1970-01-01T00:00:00Z</time>
      </trkpt>
      <trkpt lat="39.281010" lon="-5.615880">
        <ele>352.6</ele>
        <time>1970-01-01T00:00:00Z</time>
      </trkpt>
      <trkpt lat="39.281010" lon="-5.615880">
        <ele>352.6</ele>
        <time>1970-01-01T00:00:00Z</time>
      </trkpt>
      <trkpt lat="39.281000" lon="-5.615840">
        <ele>352.5</ele>
        <time>1970-01-01T00:00:00Z</time>
      </trkpt>
      <trkpt lat="39.280770" lon="-5.615100">
        <ele>347.3</ele>
        <time>1970-01-01T00:00:00Z</time>
      </trkpt>
      <trkpt lat="39.279960" lon="-5.614030">
        <ele>340.6</ele>
        <time>1970-01-01T00:00:00Z</time>
      </trkpt>
      <trkpt lat="39.279280" lon="-5.613170">
        <ele>337.0</ele>
        <time>1970-01-01T00:00:00Z</time>
      </trkpt>
      <trkpt lat="39.278790" lon="-5.612880">
        <ele>337.0</ele>
        <time>1970-01-01T00:00:00Z</time>
      </trkpt>
      <trkpt lat="39.277350" lon="-5.612710">
        <ele>339.2</ele>
        <time>1970-01-01T00:00:00Z</time>
      </trkpt>
      <trkpt lat="39.276880" lon="-5.612270">
        <ele>339.6</ele>
        <time>1970-01-01T00:00:00Z</time>
      </trkpt>
      <trkpt lat="39.276270" lon="-5.611160">
        <ele>344.9</ele>
        <time>1970-01-01T00:00:00Z</time>
      </trkpt>
      <trkpt lat="39.276440" lon="-5.610590">
        <ele>347.4</ele>
        <time>1970-01-01T00:00:00Z</time>
      </trkpt>
      <trkpt lat="39.277580" lon="-5.608480">
        <ele>350.0</ele>
        <time>1970-01-01T00:00:00Z</time>
      </trkpt>
      <trkpt lat="39.278190" lon="-5.607220">
        <ele>351.9</ele>
        <time>1970-01-01T00:00:00Z</time>
      </trkpt>
      <trkpt lat="39.278360" lon="-5.605490">
        <ele>358.0</ele>
        <time>1970-01-01T00:00:00Z</time>
      </trkpt>
      <trkpt lat="39.278360" lon="-5.605300">
        <ele>358.4</ele>
        <time>1970-01-01T00:00:00Z</time>
      </trkpt>
      <trkpt lat="39.277890" lon="-5.603910">
        <ele>360.3</ele>
        <time>1970-01-01T00:00:00Z</time>
      </trkpt>
      <trkpt lat="39.277030" lon="-5.601730">
        <ele>370.9</ele>
        <time>1970-01-01T00:00:00Z</time>
      </trkpt>
      <trkpt lat="39.276390" lon="-5.600290">
        <ele>370.0</ele>
        <time>1970-01-01T00:00:00Z</time>
      </trkpt>
      <trkpt lat="39.275520" lon="-5.598730">
        <ele>371.0</ele>
        <time>1970-01-01T00:00:00Z</time>
      </trkpt>
      <trkpt lat="39.274120" lon="-5.596200">
        <ele>376.3</ele>
        <time>1970-01-01T00:00:00Z</time>
      </trkpt>
      <trkpt lat="39.272780" lon="-5.594080">
        <ele>386.9</ele>
        <time>1970-01-01T00:00:00Z</time>
      </trkpt>
      <trkpt lat="39.271360" lon="-5.592770">
        <ele>396.8</ele>
        <time>1970-01-01T00:00:00Z</time>
      </trkpt>
      <trkpt lat="39.270040" lon="-5.591730">
        <ele>405.1</ele>
        <time>1970-01-01T00:00:00Z</time>
      </trkpt>
      <trkpt lat="39.269920" lon="-5.591620">
        <ele>405.8</ele>
        <time>1970-01-01T00:00:00Z</time>
      </trkpt>
      <trkpt lat="39.269660" lon="-5.591150">
        <ele>407.5</ele>
        <time>1970-01-01T00:00:00Z</time>
      </trkpt>
      <trkpt lat="39.269620" lon="-5.590840">
        <ele>408.9</ele>
        <time>1970-01-01T00:00:00Z</time>
      </trkpt>
      <trkpt lat="39.269670" lon="-5.590860">
        <ele>408.8</ele>
        <time>1970-01-01T00:00:00Z</time>
      </trkpt>
      <trkpt lat="39.269710" lon="-5.590890">
        <ele>408.7</ele>
        <time>1970-01-01T00:00:00Z</time>
      </trkpt>
      <trkpt lat="39.269900" lon="-5.590420">
        <ele>410.0</ele>
        <time>1970-01-01T00:00:00Z</time>
      </trkpt>
      <trkpt lat="39.270440" lon="-5.589040">
        <ele>407.8</ele>
        <time>1970-01-01T00:00:00Z</time>
      </trkpt>
      <trkpt lat="39.270650" lon="-5.588410">
        <ele>406.5</ele>
        <time>1970-01-01T00:00:00Z</time>
      </trkpt>
      <trkpt lat="39.270740" lon="-5.587770">
        <ele>406.0</ele>
        <time>1970-01-01T00:00:00Z</time>
      </trkpt>
      <trkpt lat="39.270530" lon="-5.585590">
        <ele>400.4</ele>
        <time>1970-01-01T00:00:00Z</time>
      </trkpt>
      <trkpt lat="39.270290" lon="-5.583080">
        <ele>398.6</ele>
        <time>1970-01-01T00:00:00Z</time>
      </trkpt>
      <trkpt lat="39.269840" lon="-5.580380">
        <ele>403.9</ele>
        <time>1970-01-01T00:00:00Z</time>
      </trkpt>
      <trkpt lat="39.269150" lon="-5.577540">
        <ele>419.5</ele>
        <time>1970-01-01T00:00:00Z</time>
      </trkpt>
      <trkpt lat="39.268370" lon="-5.576500">
        <ele>419.1</ele>
        <time>1970-01-01T00:00:00Z</time>
      </trkpt>
      <trkpt lat="39.268270" lon="-5.576360">
        <ele>420.1</ele>
        <time>1970-01-01T00:00:00Z</time>
      </trkpt>
      <trkpt lat="39.267560" lon="-5.574580">
        <ele>426.7</ele>
        <time>1970-01-01T00:00:00Z</time>
      </trkpt>
      <trkpt lat="39.266790" lon="-5.572580">
        <ele>427.0</ele>
        <time>1970-01-01T00:00:00Z</time>
      </trkpt>
      <trkpt lat="39.265590" lon="-5.570240">
        <ele>425.0</ele>
        <time>1970-01-01T00:00:00Z</time>
      </trkpt>
      <trkpt lat="39.265060" lon="-5.569030">
        <ele>424.9</ele>
        <time>1970-01-01T00:00:00Z</time>
      </trkpt>
      <trkpt lat="39.264580" lon="-5.567330">
        <ele>421.4</ele>
        <time>1970-01-01T00:00:00Z</time>
      </trkpt>
      <trkpt lat="39.264160" lon="-5.565840">
        <ele>424.0</ele>
        <time>1970-01-01T00:00:00Z</time>
      </trkpt>
      <trkpt lat="39.264100" lon="-5.564860">
        <ele>425.0</ele>
        <time>1970-01-01T00:00:00Z</time>
      </trkpt>
      <trkpt lat="39.264100" lon="-5.564840">
        <ele>425.0</ele>
        <time>1970-01-01T00:00:00Z</time>
      </trkpt>
      <trkpt lat="39.264010" lon="-5.564320">
        <ele>425.0</ele>
        <time>1970-01-01T00:00:00Z</time>
      </trkpt>
      <trkpt lat="39.263980" lon="-5.563810">
        <ele>425.9</ele>
        <time>1970-01-01T00:00:00Z</time>
      </trkpt>
      <trkpt lat="39.263940" lon="-5.562450">
        <ele>428.6</ele>
        <time>1970-01-01T00:00:00Z</time>
      </trkpt>
      <trkpt lat="39.263980" lon="-5.561280">
        <ele>431.7</ele>
        <time>1970-01-01T00:00:00Z</time>
      </trkpt>
      <trkpt lat="39.264370" lon="-5.559780">
        <ele>433.0</ele>
        <time>1970-01-01T00:00:00Z</time>
      </trkpt>
      <trkpt lat="39.264650" lon="-5.558730">
        <ele>433.3</ele>
        <time>1970-01-01T00:00:00Z</time>
      </trkpt>
      <trkpt lat="39.265420" lon="-5.557400">
        <ele>438.4</ele>
        <time>1970-01-01T00:00:00Z</time>
      </trkpt>
      <trkpt lat="39.266460" lon="-5.556210">
        <ele>436.2</ele>
        <time>1970-01-01T00:00:00Z</time>
      </trkpt>
      <trkpt lat="39.267060" lon="-5.555400">
        <ele>435.0</ele>
        <time>1970-01-01T00:00:00Z</time>
      </trkpt>
      <trkpt lat="39.267480" lon="-5.553820">
        <ele>435.0</ele>
        <time>1970-01-01T00:00:00Z</time>
      </trkpt>
      <trkpt lat="39.268040" lon="-5.552230">
        <ele>438.3</ele>
        <time>1970-01-01T00:00:00Z</time>
      </trkpt>
      <trkpt lat="39.269110" lon="-5.550350">
        <ele>440.8</ele>
        <time>1970-01-01T00:00:00Z</time>
      </trkpt>
      <trkpt lat="39.269700" lon="-5.549430">
        <ele>443.5</ele>
        <time>1970-01-01T00:00:00Z</time>
      </trkpt>
      <trkpt lat="39.269830" lon="-5.548930">
        <ele>442.2</ele>
        <time>1970-01-01T00:00:00Z</time>
      </trkpt>
      <trkpt lat="39.269840" lon="-5.548910">
        <ele>442.2</ele>
        <time>1970-01-01T00:00:00Z</time>
      </trkpt>
      <trkpt lat="39.269830" lon="-5.548910">
        <ele>442.1</ele>
        <time>1970-01-01T00:00:00Z</time>
      </trkpt>
      <trkpt lat="39.270320" lon="-5.548610">
        <ele>445.5</ele>
        <time>1970-01-01T00:00:00Z</time>
      </trkpt>
      <trkpt lat="39.271380" lon="-5.547970">
        <ele>442.0</ele>
        <time>1970-01-01T00:00:00Z</time>
      </trkpt>
      <trkpt lat="39.272160" lon="-5.547480">
        <ele>441.2</ele>
        <time>1970-01-01T00:00:00Z</time>
      </trkpt>
      <trkpt lat="39.272210" lon="-5.547470">
        <ele>441.4</ele>
        <time>1970-01-01T00:00:00Z</time>
      </trkpt>
      <trkpt lat="39.272480" lon="-5.547330">
        <ele>442.7</ele>
        <time>1970-01-01T00:00:00Z</time>
      </trkpt>
      <trkpt lat="39.272960" lon="-5.547020">
        <ele>442.9</ele>
        <time>1970-01-01T00:00:00Z</time>
      </trkpt>
      <trkpt lat="39.274030" lon="-5.546480">
        <ele>440.7</ele>
        <time>1970-01-01T00:00:00Z</time>
      </trkpt>
      <trkpt lat="39.274480" lon="-5.546190">
        <ele>442.4</ele>
        <time>1970-01-01T00:00:00Z</time>
      </trkpt>
      <trkpt lat="39.275180" lon="-5.545690">
        <ele>444.1</ele>
        <time>1970-01-01T00:00:00Z</time>
      </trkpt>
      <trkpt lat="39.275550" lon="-5.545480">
        <ele>443.2</ele>
        <time>1970-01-01T00:00:00Z</time>
      </trkpt>
      <trkpt lat="39.275680" lon="-5.545370">
        <ele>442.7</ele>
        <time>1970-01-01T00:00:00Z</time>
      </trkpt>
      <trkpt lat="39.275680" lon="-5.545360">
        <ele>442.6</ele>
        <time>1970-01-01T00:00:00Z</time>
      </trkpt>
      <trkpt lat="39.275820" lon="-5.545490">
        <ele>443.2</ele>
        <time>1970-01-01T00:00:00Z</time>
      </trkpt>
      <trkpt lat="39.276300" lon="-5.545510">
        <ele>445.0</ele>
        <time>1970-01-01T00:00:00Z</time>
      </trkpt>
      <trkpt lat="39.276440" lon="-5.545530">
        <ele>445.4</ele>
        <time>1970-01-01T00:00:00Z</time>
      </trkpt>
      <trkpt lat="39.276730" lon="-5.545500">
        <ele>446.9</ele>
        <time>1970-01-01T00:00:00Z</time>
      </trkpt>
      <trkpt lat="39.277190" lon="-5.545440">
        <ele>447.0</ele>
        <time>1970-01-01T00:00:00Z</time>
      </trkpt>
      <trkpt lat="39.278290" lon="-5.545530">
        <ele>442.8</ele>
        <time>1970-01-01T00:00:00Z</time>
      </trkpt>
      <trkpt lat="39.278490" lon="-5.545570">
        <ele>441.7</ele>
        <time>1970-01-01T00:00:00Z</time>
      </trkpt>
      <trkpt lat="39.278760" lon="-5.545690">
        <ele>441.0</ele>
        <time>1970-01-01T00:00:00Z</time>
      </trkpt>
      <trkpt lat="39.279770" lon="-5.546630">
        <ele>436.8</ele>
        <time>1970-01-01T00:00:00Z</time>
      </trkpt>
      <trkpt lat="39.280920" lon="-5.547690">
        <ele>430.0</ele>
        <time>1970-01-01T00:00:00Z</time>
      </trkpt>
      <trkpt lat="39.282710" lon="-5.549420">
        <ele>421.4</ele>
        <time>1970-01-01T00:00:00Z</time>
      </trkpt>
      <trkpt lat="39.284160" lon="-5.550790">
        <ele>425.9</ele>
        <time>1970-01-01T00:00:00Z</time>
      </trkpt>
      <trkpt lat="39.285110" lon="-5.551650">
        <ele>428.1</ele>
        <time>1970-01-01T00:00:00Z</time>
      </trkpt>
      <trkpt lat="39.285570" lon="-5.551830">
        <ele>430.7</ele>
        <time>1970-01-01T00:00:00Z</time>
      </trkpt>
      <trkpt lat="39.286920" lon="-5.551890">
        <ele>431.8</ele>
        <time>1970-01-01T00:00:00Z</time>
      </trkpt>
      <trkpt lat="39.288020" lon="-5.552000">
        <ele>433.3</ele>
        <time>1970-01-01T00:00:00Z</time>
      </trkpt>
      <trkpt lat="39.288930" lon="-5.552300">
        <ele>434.5</ele>
        <time>1970-01-01T00:00:00Z</time>
      </trkpt>
      <trkpt lat="39.289830" lon="-5.552570">
        <ele>439.8</ele>
        <time>1970-01-01T00:00:00Z</time>
      </trkpt>
      <trkpt lat="39.290710" lon="-5.552840">
        <ele>440.0</ele>
        <time>1970-01-01T00:00:00Z</time>
      </trkpt>
      <trkpt lat="39.291740" lon="-5.553080">
        <ele>438.8</ele>
        <time>1970-01-01T00:00:00Z</time>
      </trkpt>
      <trkpt lat="39.291850" lon="-5.553100">
        <ele>438.9</ele>
        <time>1970-01-01T00:00:00Z</time>
      </trkpt>
      <trkpt lat="39.291940" lon="-5.553090">
        <ele>439.0</ele>
        <time>1970-01-01T00:00:00Z</time>
      </trkpt>
      <trkpt lat="39.292190" lon="-5.553160">
        <ele>438.9</ele>
        <time>1970-01-01T00:00:00Z</time>
      </trkpt>
      <trkpt lat="39.293040" lon="-5.553270">
        <ele>445.2</ele>
        <time>1970-01-01T00:00:00Z</time>
      </trkpt>
      <trkpt lat="39.294050" lon="-5.552930">
        <ele>445.5</ele>
        <time>1970-01-01T00:00:00Z</time>
      </trkpt>
      <trkpt lat="39.295440" lon="-5.552340">
        <ele>451.0</ele>
        <time>1970-01-01T00:00:00Z</time>
      </trkpt>
      <trkpt lat="39.296420" lon="-5.551850">
        <ele>438.7</ele>
        <time>1970-01-01T00:00:00Z</time>
      </trkpt>
      <trkpt lat="39.297600" lon="-5.551690">
        <ele>440.1</ele>
        <time>1970-01-01T00:00:00Z</time>
      </trkpt>
      <trkpt lat="39.299450" lon="-5.551360">
        <ele>437.0</ele>
        <time>1970-01-01T00:00:00Z</time>
      </trkpt>
      <trkpt lat="39.301710" lon="-5.550990">
        <ele>436.0</ele>
        <time>1970-01-01T00:00:00Z</time>
      </trkpt>
      <trkpt lat="39.303890" lon="-5.550740">
        <ele>435.9</ele>
        <time>1970-01-01T00:00:00Z</time>
      </trkpt>
      <trkpt lat="39.305830" lon="-5.550480">
        <ele>436.8</ele>
        <time>1970-01-01T00:00:00Z</time>
      </trkpt>
      <trkpt lat="39.307070" lon="-5.550300">
        <ele>436.0</ele>
        <time>1970-01-01T00:00:00Z</time>
      </trkpt>
      <trkpt lat="39.308330" lon="-5.549830">
        <ele>446.8</ele>
        <time>1970-01-01T00:00:00Z</time>
      </trkpt>
      <trkpt lat="39.310100" lon="-5.548880">
        <ele>446.0</ele>
        <time>1970-01-01T00:00:00Z</time>
      </trkpt>
      <trkpt lat="39.311670" lon="-5.548060">
        <ele>446.1</ele>
        <time>1970-01-01T00:00:00Z</time>
      </trkpt>
      <trkpt lat="39.312800" lon="-5.547510">
        <ele>442.2</ele>
        <time>1970-01-01T00:00:00Z</time>
      </trkpt>
      <trkpt lat="39.314010" lon="-5.546870">
        <ele>435.2</ele>
        <time>1970-01-01T00:00:00Z</time>
      </trkpt>
      <trkpt lat="39.314850" lon="-5.546420">
        <ele>435.5</ele>
        <time>1970-01-01T00:00:00Z</time>
      </trkpt>
      <trkpt lat="39.316040" lon="-5.545800">
        <ele>435.3</ele>
        <time>1970-01-01T00:00:00Z</time>
      </trkpt>
      <trkpt lat="39.317090" lon="-5.545250">
        <ele>442.5</ele>
        <time>1970-01-01T00:00:00Z</time>
      </trkpt>
      <trkpt lat="39.318030" lon="-5.544540">
        <ele>436.4</ele>
        <time>1970-01-01T00:00:00Z</time>
      </trkpt>
      <trkpt lat="39.318810" lon="-5.543850">
        <ele>429.4</ele>
        <time>1970-01-01T00:00:00Z</time>
      </trkpt>
      <trkpt lat="39.319750" lon="-5.543670">
        <ele>429.3</ele>
        <time>1970-01-01T00:00:00Z</time>
      </trkpt>
      <trkpt lat="39.321200" lon="-5.543540">
        <ele>433.8</ele>
        <time>1970-01-01T00:00:00Z</time>
      </trkpt>
      <trkpt lat="39.321620" lon="-5.543480">
        <ele>433.5</ele>
        <time>1970-01-01T00:00:00Z</time>
      </trkpt>
      <trkpt lat="39.322280" lon="-5.543450">
        <ele>433.0</ele>
        <time>1970-01-01T00:00:00Z</time>
      </trkpt>
      <trkpt lat="39.322710" lon="-5.543250">
        <ele>434.0</ele>
        <time>1970-01-01T00:00:00Z</time>
      </trkpt>
      <trkpt lat="39.324150" lon="-5.542090">
        <ele>436.0</ele>
        <time>1970-01-01T00:00:00Z</time>
      </trkpt>
      <trkpt lat="39.325280" lon="-5.541040">
        <ele>433.0</ele>
        <time>1970-01-01T00:00:00Z</time>
      </trkpt>
      <trkpt lat="39.326670" lon="-5.539580">
        <ele>431.9</ele>
        <time>1970-01-01T00:00:00Z</time>
      </trkpt>
      <trkpt lat="39.328170" lon="-5.537720">
        <ele>429.0</ele>
        <time>1970-01-01T00:00:00Z</time>
      </trkpt>
      <trkpt lat="39.328750" lon="-5.536940">
        <ele>426.9</ele>
        <time>1970-01-01T00:00:00Z</time>
      </trkpt>
      <trkpt lat="39.328780" lon="-5.536920">
        <ele>427.0</ele>
        <time>1970-01-01T00:00:00Z</time>
      </trkpt>
      <trkpt lat="39.328760" lon="-5.536940">
        <ele>427.0</ele>
        <time>1970-01-01T00:00:00Z</time>
      </trkpt>
      <trkpt lat="39.328850" lon="-5.536850">
        <ele>427.0</ele>
        <time>1970-01-01T00:00:00Z</time>
      </trkpt>
      <trkpt lat="39.328950" lon="-5.536860">
        <ele>427.5</ele>
        <time>1970-01-01T00:00:00Z</time>
      </trkpt>
      <trkpt lat="39.329240" lon="-5.536430">
        <ele>426.1</ele>
        <time>1970-01-01T00:00:00Z</time>
      </trkpt>
      <trkpt lat="39.329900" lon="-5.535470">
        <ele>427.0</ele>
        <time>1970-01-01T00:00:00Z</time>
      </trkpt>
      <trkpt lat="39.330900" lon="-5.533860">
        <ele>424.0</ele>
        <time>1970-01-01T00:00:00Z</time>
      </trkpt>
      <trkpt lat="39.331970" lon="-5.531810">
        <ele>421.5</ele>
        <time>1970-01-01T00:00:00Z</time>
      </trkpt>
      <trkpt lat="39.332980" lon="-5.530540">
        <ele>417.6</ele>
        <time>1970-01-01T00:00:00Z</time>
      </trkpt>
      <trkpt lat="39.333700" lon="-5.529910">
        <ele>418.0</ele>
        <time>1970-01-01T00:00:00Z</time>
      </trkpt>
      <trkpt lat="39.335020" lon="-5.529190">
        <ele>424.0</ele>
        <time>1970-01-01T00:00:00Z</time>
      </trkpt>
      <trkpt lat="39.335600" lon="-5.528680">
        <ele>421.7</ele>
        <time>1970-01-01T00:00:00Z</time>
      </trkpt>
      <trkpt lat="39.336950" lon="-5.526960">
        <ele>415.1</ele>
        <time>1970-01-01T00:00:00Z</time>
      </trkpt>
      <trkpt lat="39.338130" lon="-5.525430">
        <ele>416.1</ele>
        <time>1970-01-01T00:00:00Z</time>
      </trkpt>
      <trkpt lat="39.339080" lon="-5.524390">
        <ele>419.0</ele>
        <time>1970-01-01T00:00:00Z</time>
      </trkpt>
      <trkpt lat="39.339710" lon="-5.523760">
        <ele>420.0</ele>
        <time>1970-01-01T00:00:00Z</time>
      </trkpt>
      <trkpt lat="39.340210" lon="-5.523260">
        <ele>420.0</ele>
        <time>1970-01-01T00:00:00Z</time>
      </trkpt>
      <trkpt lat="39.340210" lon="-5.523240">
        <ele>420.0</ele>
        <time>1970-01-01T00:00:00Z</time>
      </trkpt>
      <trkpt lat="39.340400" lon="-5.523040">
        <ele>419.2</ele>
        <time>1970-01-01T00:00:00Z</time>
      </trkpt>
      <trkpt lat="39.340970" lon="-5.522190">
        <ele>416.0</ele>
        <time>1970-01-01T00:00:00Z</time>
      </trkpt>
      <trkpt lat="39.341150" lon="-5.521740">
        <ele>415.6</ele>
        <time>1970-01-01T00:00:00Z</time>
      </trkpt>
      <trkpt lat="39.341200" lon="-5.521360">
        <ele>414.4</ele>
        <time>1970-01-01T00:00:00Z</time>
      </trkpt>
      <trkpt lat="39.341340" lon="-5.520790">
        <ele>411.0</ele>
        <time>1970-01-01T00:00:00Z</time>
      </trkpt>
      <trkpt lat="39.341490" lon="-5.520530">
        <ele>409.8</ele>
        <time>1970-01-01T00:00:00Z</time>
      </trkpt>
      <trkpt lat="39.341480" lon="-5.520550">
        <ele>409.8</ele>
        <time>1970-01-01T00:00:00Z</time>
      </trkpt>
      <trkpt lat="39.341500" lon="-5.520560">
        <ele>409.9</ele>
        <time>1970-01-01T00:00:00Z</time>
      </trkpt>
      <trkpt lat="39.341520" lon="-5.520540">
        <ele>409.9</ele>
        <time>1970-01-01T00:00:00Z</time>
      </trkpt>
      <trkpt lat="39.341510" lon="-5.520300">
        <ele>409.2</ele>
        <time>1970-01-01T00:00:00Z</time>
      </trkpt>
      <trkpt lat="39.341220" lon="-5.519250">
        <ele>407.5</ele>
        <time>1970-01-01T00:00:00Z</time>
      </trkpt>
      <trkpt lat="39.340730" lon="-5.517440">
        <ele>411.0</ele>
        <time>1970-01-01T00:00:00Z</time>
      </trkpt>
      <trkpt lat="39.340360" lon="-5.516360">
        <ele>414.2</ele>
        <time>1970-01-01T00:00:00Z</time>
      </trkpt>
      <trkpt lat="39.339190" lon="-5.514510">
        <ele>414.4</ele>
        <time>1970-01-01T00:00:00Z</time>
      </trkpt>
      <trkpt lat="39.338180" lon="-5.512870">
        <ele>412.0</ele>
        <time>1970-01-01T00:00:00Z</time>
      </trkpt>
      <trkpt lat="39.337360" lon="-5.511520">
        <ele>407.2</ele>
        <time>1970-01-01T00:00:00Z</time>
      </trkpt>
      <trkpt lat="39.336560" lon="-5.510160">
        <ele>402.0</ele>
        <time>1970-01-01T00:00:00Z</time>
      </trkpt>
      <trkpt lat="39.336450" lon="-5.509910">
        <ele>404.2</ele>
        <time>1970-01-01T00:00:00Z</time>
      </trkpt>
      <trkpt lat="39.336100" lon="-5.508640">
        <ele>413.2</ele>
        <time>1970-01-01T00:00:00Z</time>
      </trkpt>
      <trkpt lat="39.336090" lon="-5.507890">
        <ele>415.6</ele>
        <time>1970-01-01T00:00:00Z</time>
      </trkpt>
      <trkpt lat="39.336180" lon="-5.506620">
        <ele>418.2</ele>
        <time>1970-01-01T00:00:00Z</time>
      </trkpt>
      <trkpt lat="39.335990" lon="-5.505690">
        <ele>422.8</ele>
        <time>1970-01-01T00:00:00Z</time>
      </trkpt>
      <trkpt lat="39.336120" lon="-5.504990">
        <ele>424.4</ele>
        <time>1970-01-01T00:00:00Z</time>
      </trkpt>
      <trkpt lat="39.336370" lon="-5.504050">
        <ele>426.0</ele>
        <time>1970-01-01T00:00:00Z</time>
      </trkpt>
      <trkpt lat="39.336260" lon="-5.502170">
        <ele>436.6</ele>
        <time>1970-01-01T00:00:00Z</time>
      </trkpt>
      <trkpt lat="39.335870" lon="-5.501370">
        <ele>441.6</ele>
        <time>1970-01-01T00:00:00Z</time>
      </trkpt>
      <trkpt lat="39.335850" lon="-5.501100">
        <ele>442.2</ele>
        <time>1970-01-01T00:00:00Z</time>
      </trkpt>
      <trkpt lat="39.335830" lon="-5.499560">
        <ele>451.1</ele>
        <time>1970-01-01T00:00:00Z</time>
      </trkpt>
      <trkpt lat="39.335770" lon="-5.499180">
        <ele>453.9</ele>
        <time>1970-01-01T00:00:00Z</time>
      </trkpt>
      <trkpt lat="39.335780" lon="-5.498930">
        <ele>455.8</ele>
        <time>1970-01-01T00:00:00Z</time>
      </trkpt>
      <trkpt lat="39.335870" lon="-5.498310">
        <ele>459.0</ele>
        <time>1970-01-01T00:00:00Z</time>
      </trkpt>
      <trkpt lat="39.335850" lon="-5.498100">
        <ele>460.0</ele>
        <time>1970-01-01T00:00:00Z</time>
      </trkpt>
      <trkpt lat="39.335850" lon="-5.498100">
        <ele>460.0</ele>
        <time>1970-01-01T00:00:00Z</time>
      </trkpt>
    </trkseg>
    <trkseg>
      <trkpt lat="39.336926" lon="-5.489864">
        <ele>473.9</ele>
        <time>1970-01-01T00:00:00Z</time>
      </trkpt>
      <trkpt lat="39.336951" lon="-5.489946">
        <ele>473.9</ele>
        <time>1970-01-01T00:00:00Z</time>
      </trkpt>
      <trkpt lat="39.338211" lon="-5.490409">
        <ele>467.7</ele>
        <time>1970-01-01T00:00:00Z</time>
      </trkpt>
      <trkpt lat="39.339230" lon="-5.489561">
        <ele>456.6</ele>
        <time>1970-01-01T00:00:00Z</time>
      </trkpt>
      <trkpt lat="39.339685" lon="-5.488939">
        <ele>450.8</ele>
        <time>1970-01-01T00:00:00Z</time>
      </trkpt>
      <trkpt lat="39.339921" lon="-5.488414">
        <ele>447.7</ele>
        <time>1970-01-01T00:00:00Z</time>
      </trkpt>
      <trkpt lat="39.340306" lon="-5.487685">
        <ele>441.9</ele>
        <time>1970-01-01T00:00:00Z</time>
      </trkpt>
      <trkpt lat="39.340398" lon="-5.487166">
        <ele>440.0</ele>
        <time>1970-01-01T00:00:00Z</time>
      </trkpt>
      <trkpt lat="39.340534" lon="-5.486719">
        <ele>435.4</ele>
        <time>1970-01-01T00:00:00Z</time>
      </trkpt>
      <trkpt lat="39.340699" lon="-5.486156">
        <ele>430.6</ele>
        <time>1970-01-01T00:00:00Z</time>
      </trkpt>
      <trkpt lat="39.340957" lon="-5.486305">
        <ele>429.7</ele>
        <time>1970-01-01T00:00:00Z</time>
      </trkpt>
      <trkpt lat="39.341010" lon="-5.486350">
        <ele>429.5</ele>
        <time>1970-01-01T00:00:00Z</time>
      </trkpt>
      <trkpt lat="39.341070" lon="-5.485910">
        <ele>428.1</ele>
        <time>1970-01-01T00:00:00Z</time>
      </trkpt>
      <trkpt lat="39.341140" lon="-5.484900">
        <ele>425.8</ele>
        <time>1970-01-01T00:00:00Z</time>
      </trkpt>
      <trkpt lat="39.341270" lon="-5.484570">
        <ele>425.2</ele>
        <time>1970-01-01T00:00:00Z</time>
      </trkpt>
      <trkpt lat="39.341460" lon="-5.483990">
        <ele>425.6</ele>
        <time>1970-01-01T00:00:00Z</time>
      </trkpt>
      <trkpt lat="39.341430" lon="-5.483990">
        <ele>425.8</ele>
        <time>1970-01-01T00:00:00Z</time>
      </trkpt>
      <trkpt lat="39.341500" lon="-5.483680">
        <ele>425.5</ele>
        <time>1970-01-01T00:00:00Z</time>
      </trkpt>
      <trkpt lat="39.341610" lon="-5.483290">
        <ele>424.8</ele>
        <time>1970-01-01T00:00:00Z</time>
      </trkpt>
      <trkpt lat="39.342130" lon="-5.482040">
        <ele>425.0</ele>
        <time>1970-01-01T00:00:00Z</time>
      </trkpt>
      <trkpt lat="39.342790" lon="-5.480560">
        <ele>424.7</ele>
        <time>1970-01-01T00:00:00Z</time>
      </trkpt>
      <trkpt lat="39.342870" lon="-5.480400">
        <ele>424.3</ele>
        <time>1970-01-01T00:00:00Z</time>
      </trkpt>
      <trkpt lat="39.342970" lon="-5.480110">
        <ele>423.7</ele>
        <time>1970-01-01T00:00:00Z</time>
      </trkpt>
      <trkpt lat="39.343130" lon="-5.479210">
        <ele>423.2</ele>
        <time>1970-01-01T00:00:00Z</time>
      </trkpt>
      <trkpt lat="39.343460" lon="-5.478400">
        <ele>424.0</ele>
        <time>1970-01-01T00:00:00Z</time>
      </trkpt>
      <trkpt lat="39.343430" lon="-5.478280">
        <ele>424.0</ele>
        <time>1970-01-01T00:00:00Z</time>
      </trkpt>
      <trkpt lat="39.343450" lon="-5.478030">
        <ele>424.2</ele>
        <time>1970-01-01T00:00:00Z</time>
      </trkpt>
      <trkpt lat="39.343620" lon="-5.477050">
        <ele>426.2</ele>
        <time>1970-01-01T00:00:00Z</time>
      </trkpt>
      <trkpt lat="39.343790" lon="-5.476310">
        <ele>427.1</ele>
        <time>1970-01-01T00:00:00Z</time>
      </trkpt>
      <trkpt lat="39.344110" lon="-5.475090">
        <ele>428.0</ele>
        <time>1970-01-01T00:00:00Z</time>
      </trkpt>
      <trkpt lat="39.344430" lon="-5.474230">
        <ele>427.3</ele>
        <time>1970-01-01T00:00:00Z</time>
      </trkpt>
      <trkpt lat="39.344540" lon="-5.474060">
        <ele>427.5</ele>
        <time>1970-01-01T00:00:00Z</time>
      </trkpt>
      <trkpt lat="39.344820" lon="-5.473710">
        <ele>427.2</ele>
        <time>1970-01-01T00:00:00Z</time>
      </trkpt>
      <trkpt lat="39.344880" lon="-5.473550">
        <ele>427.3</ele>
        <time>1970-01-01T00:00:00Z</time>
      </trkpt>
      <trkpt lat="39.344890" lon="-5.473010">
        <ele>428.0</ele>
        <time>1970-01-01T00:00:00Z</time>
      </trkpt>
      <trkpt lat="39.344760" lon="-5.472070">
        <ele>429.0</ele>
        <time>1970-01-01T00:00:00Z</time>
      </trkpt>
      <trkpt lat="39.344740" lon="-5.471760">
        <ele>430.2</ele>
        <time>1970-01-01T00:00:00Z</time>
      </trkpt>
      <trkpt lat="39.344840" lon="-5.470680">
        <ele>433.2</ele>
        <time>1970-01-01T00:00:00Z</time>
      </trkpt>
      <trkpt lat="39.345100" lon="-5.469750">
        <ele>434.0</ele>
        <time>1970-01-01T00:00:00Z</time>
      </trkpt>
      <trkpt lat="39.345260" lon="-5.468660">
        <ele>434.0</ele>
        <time>1970-01-01T00:00:00Z</time>
      </trkpt>
      <trkpt lat="39.345270" lon="-5.468480">
        <ele>434.0</ele>
        <time>1970-01-01T00:00:00Z</time>
      </trkpt>
      <trkpt lat="39.345400" lon="-5.468060">
        <ele>434.7</ele>
        <time>1970-01-01T00:00:00Z</time>
      </trkpt>
      <trkpt lat="39.345740" lon="-5.467480">
        <ele>435.8</ele>
        <time>1970-01-01T00:00:00Z</time>
      </trkpt>
      <trkpt lat="39.345860" lon="-5.467150">
        <ele>437.1</ele>
        <time>1970-01-01T00:00:00Z</time>
      </trkpt>
      <trkpt lat="39.345940" lon="-5.466840">
        <ele>437.6</ele>
        <time>1970-01-01T00:00:00Z</time>
      </trkpt>
      <trkpt lat="39.345980" lon="-5.466590">
        <ele>439.4</ele>
        <time>1970-01-01T00:00:00Z</time>
      </trkpt>
      <trkpt lat="39.346040" lon="-5.466180">
        <ele>441.3</ele>
        <time>1970-01-01T00:00:00Z</time>
      </trkpt>
      <trkpt lat="39.345960" lon="-5.465680">
        <ele>442.0</ele>
        <time>1970-01-01T00:00:00Z</time>
      </trkpt>
      <trkpt lat="39.345980" lon="-5.465470">
        <ele>442.3</ele>
        <time>1970-01-01T00:00:00Z</time>
      </trkpt>
      <trkpt lat="39.346070" lon="-5.465190">
        <ele>444.2</ele>
        <time>1970-01-01T00:00:00Z</time>
      </trkpt>
      <trkpt lat="39.346300" lon="-5.464390">
        <ele>445.5</ele>
        <time>1970-01-01T00:00:00Z</time>
      </trkpt>
      <trkpt lat="39.346350" lon="-5.464020">
        <ele>445.3</ele>
        <time>1970-01-01T00:00:00Z</time>
      </trkpt>
      <trkpt lat="39.346550" lon="-5.462540">
        <ele>446.3</ele>
        <time>1970-01-01T00:00:00Z</time>
      </trkpt>
      <trkpt lat="39.346560" lon="-5.460980">
        <ele>450.4</ele>
        <time>1970-01-01T00:00:00Z</time>
      </trkpt>
      <trkpt lat="39.346510" lon="-5.460440">
        <ele>449.2</ele>
        <time>1970-01-01T00:00:00Z</time>
      </trkpt>
      <trkpt lat="39.346480" lon="-5.459770">
        <ele>447.9</ele>
        <time>1970-01-01T00:00:00Z</time>
      </trkpt>
      <trkpt lat="39.346210" lon="-5.458700">
        <ele>448.8</ele>
        <time>1970-01-01T00:00:00Z</time>
      </trkpt>
      <trkpt lat="39.346150" lon="-5.458590">
        <ele>449.1</ele>
        <time>1970-01-01T00:00:00Z</time>
      </trkpt>
      <trkpt lat="39.346150" lon="-5.458590">
        <ele>449.1</ele>
        <time>1970-01-01T00:00:00Z</time>
      </trkpt>
      <trkpt lat="39.346045" lon="-5.458453">
        <ele>449.2</ele>
        <time>1970-01-01T00:00:00Z</time>
      </trkpt>
      <trkpt lat="39.345919" lon="-5.458030">
        <ele>449.8</ele>
        <time>1970-01-01T00:00:00Z</time>
      </trkpt>
      <trkpt lat="39.345805" lon="-5.457446">
        <ele>450.5</ele>
        <time>1970-01-01T00:00:00Z</time>
      </trkpt>
      <trkpt lat="39.345677" lon="-5.457105">
        <ele>450.8</ele>
        <time>1970-01-01T00:00:00Z</time>
      </trkpt>
      <trkpt lat="39.345453" lon="-5.456192">
        <ele>450.5</ele>
        <time>1970-01-01T00:00:00Z</time>
      </trkpt>
      <trkpt lat="39.345208" lon="-5.455418">
        <ele>451.0</ele>
        <time>1970-01-01T00:00:00Z</time>
      </trkpt>
      <trkpt lat="39.345020" lon="-5.454936">
        <ele>452.0</ele>
        <time>1970-01-01T00:00:00Z</time>
      </trkpt>
      <trkpt lat="39.344886" lon="-5.454467">
        <ele>453.7</ele>
        <time>1970-01-01T00:00:00Z</time>
      </trkpt>
      <trkpt lat="39.344795" lon="-5.454081">
        <ele>454.3</ele>
        <time>1970-01-01T00:00:00Z</time>
      </trkpt>
      <trkpt lat="39.344701" lon="-5.453811">
        <ele>454.9</ele>
        <time>1970-01-01T00:00:00Z</time>
      </trkpt>
      <trkpt lat="39.344584" lon="-5.453412">
        <ele>456.0</ele>
        <time>1970-01-01T00:00:00Z</time>
      </trkpt>
      <trkpt lat="39.344312" lon="-5.452637">
        <ele>458.9</ele>
        <time>1970-01-01T00:00:00Z</time>
      </trkpt>
      <trkpt lat="39.344657" lon="-5.452510">
        <ele>457.5</ele>
        <time>1970-01-01T00:00:00Z</time>
      </trkpt>
      <trkpt lat="39.344907" lon="-5.452611">
        <ele>457.0</ele>
        <time>1970-01-01T00:00:00Z</time>
      </trkpt>
      <trkpt lat="39.345152" lon="-5.452539">
        <ele>457.4</ele>
        <time>1970-01-01T00:00:00Z</time>
      </trkpt>
      <trkpt lat="39.346310" lon="-5.451120">
        <ele>457.2</ele>
        <time>1970-01-01T00:00:00Z</time>
      </trkpt>
      <trkpt lat="39.346880" lon="-5.450460">
        <ele>459.3</ele>
        <time>1970-01-01T00:00:00Z</time>
      </trkpt>
      <trkpt lat="39.347370" lon="-5.449470">
        <ele>461.0</ele>
        <time>1970-01-01T00:00:00Z</time>
      </trkpt>
      <trkpt lat="39.347450" lon="-5.449070">
        <ele>462.0</ele>
        <time>1970-01-01T00:00:00Z</time>
      </trkpt>
      <trkpt lat="39.347660" lon="-5.448660">
        <ele>462.0</ele>
        <time>1970-01-01T00:00:00Z</time>
      </trkpt>
      <trkpt lat="39.347910" lon="-5.448440">
        <ele>462.5</ele>
        <time>1970-01-01T00:00:00Z</time>
      </trkpt>
      <trkpt lat="39.348360" lon="-5.447520">
        <ele>466.5</ele>
        <time>1970-01-01T00:00:00Z</time>
      </trkpt>
      <trkpt lat="39.348620" lon="-5.447070">
        <ele>470.0</ele>
        <time>1970-01-01T00:00:00Z</time>
      </trkpt>
      <trkpt lat="39.349210" lon="-5.446050">
        <ele>477.8</ele>
        <time>1970-01-01T00:00:00Z</time>
      </trkpt>
      <trkpt lat="39.349350" lon="-5.445820">
        <ele>480.4</ele>
        <time>1970-01-01T00:00:00Z</time>
      </trkpt>
      <trkpt lat="39.349690" lon="-5.445370">
        <ele>485.5</ele>
        <time>1970-01-01T00:00:00Z</time>
      </trkpt>
      <trkpt lat="39.350150" lon="-5.444710">
        <ele>489.0</ele>
        <time>1970-01-01T00:00:00Z</time>
      </trkpt>
      <trkpt lat="39.350260" lon="-5.444560">
        <ele>489.0</ele>
        <time>1970-01-01T00:00:00Z</time>
      </trkpt>
      <trkpt lat="39.350350" lon="-5.443580">
        <ele>486.9</ele>
        <time>1970-01-01T00:00:00Z</time>
      </trkpt>
      <trkpt lat="39.350480" lon="-5.442510">
        <ele>480.7</ele>
        <time>1970-01-01T00:00:00Z</time>
      </trkpt>
      <trkpt lat="39.350590" lon="-5.442010">
        <ele>478.2</ele>
        <time>1970-01-01T00:00:00Z</time>
      </trkpt>
      <trkpt lat="39.350680" lon="-5.440920">
        <ele>474.5</ele>
        <time>1970-01-01T00:00:00Z</time>
      </trkpt>
      <trkpt lat="39.350690" lon="-5.440750">
        <ele>474.2</ele>
        <time>1970-01-01T00:00:00Z</time>
      </trkpt>
      <trkpt lat="39.350970" lon="-5.439620">
        <ele>472.5</ele>
        <time>1970-01-01T00:00:00Z</time>
      </trkpt>
      <trkpt lat="39.351290" lon="-5.438440">
        <ele>473.0</ele>
        <time>1970-01-01T00:00:00Z</time>
      </trkpt>
      <trkpt lat="39.351670" lon="-5.437230">
        <ele>474.5</ele>
        <time>1970-01-01T00:00:00Z</time>
      </trkpt>
      <trkpt lat="39.352310" lon="-5.436180">
        <ele>466.1</ele>
        <time>1970-01-01T00:00:00Z</time>
      </trkpt>
      <trkpt lat="39.352620" lon="-5.435210">
        <ele>456.0</ele>
        <time>1970-01-01T00:00:00Z</time>
      </trkpt>
      <trkpt lat="39.352700" lon="-5.433930">
        <ele>447.9</ele>
        <time>1970-01-01T00:00:00Z</time>
      </trkpt>
      <trkpt lat="39.352760" lon="-5.433670">
        <ele>447.6</ele>
        <time>1970-01-01T00:00:00Z</time>
      </trkpt>
      <trkpt lat="39.353090" lon="-5.431910">
        <ele>443.4</ele>
        <time>1970-01-01T00:00:00Z</time>
      </trkpt>
      <trkpt lat="39.353330" lon="-5.430680">
        <ele>443.7</ele>
        <time>1970-01-01T00:00:00Z</time>
      </trkpt>
      <trkpt lat="39.353590" lon="-5.430170">
        <ele>445.0</ele>
        <time>1970-01-01T00:00:00Z</time>
      </trkpt>
      <trkpt lat="39.354120" lon="-5.429510">
        <ele>448.0</ele>
        <time>1970-01-01T00:00:00Z</time>
      </trkpt>
      <trkpt lat="39.354240" lon="-5.429060">
        <ele>447.4</ele>
        <time>1970-01-01T00:00:00Z</time>
      </trkpt>
      <trkpt lat="39.354210" lon="-5.428490">
        <ele>446.7</ele>
        <time>1970-01-01T00:00:00Z</time>
      </trkpt>
      <trkpt lat="39.354310" lon="-5.428190">
        <ele>444.9</ele>
        <time>1970-01-01T00:00:00Z</time>
      </trkpt>
      <trkpt lat="39.354570" lon="-5.427860">
        <ele>442.2</ele>
        <time>1970-01-01T00:00:00Z</time>
      </trkpt>
      <trkpt lat="39.354840" lon="-5.427410">
        <ele>440.1</ele>
        <time>1970-01-01T00:00:00Z</time>
      </trkpt>
      <trkpt lat="39.355100" lon="-5.426320">
        <ele>436.5</ele>
        <time>1970-01-01T00:00:00Z</time>
      </trkpt>
      <trkpt lat="39.355200" lon="-5.425280">
        <ele>438.2</ele>
        <time>1970-01-01T00:00:00Z</time>
      </trkpt>
      <trkpt lat="39.355200" lon="-5.425080">
        <ele>440.0</ele>
        <time>1970-01-01T00:00:00Z</time>
      </trkpt>
      <trkpt lat="39.355240" lon="-5.424750">
        <ele>442.4</ele>
        <time>1970-01-01T00:00:00Z</time>
      </trkpt>
      <trkpt lat="39.355370" lon="-5.423860">
        <ele>448.2</ele>
        <time>1970-01-01T00:00:00Z</time>
      </trkpt>
      <trkpt lat="39.355490" lon="-5.422920">
        <ele>451.2</ele>
        <time>1970-01-01T00:00:00Z</time>
      </trkpt>
      <trkpt lat="39.355670" lon="-5.422190">
        <ele>450.1</ele>
        <time>1970-01-01T00:00:00Z</time>
      </trkpt>
      <trkpt lat="39.355830" lon="-5.421850">
        <ele>448.1</ele>
        <time>1970-01-01T00:00:00Z</time>
      </trkpt>
      <trkpt lat="39.356260" lon="-5.421530">
        <ele>448.4</ele>
        <time>1970-01-01T00:00:00Z</time>
      </trkpt>
      <trkpt lat="39.356870" lon="-5.420910">
        <ele>448.4</ele>
        <time>1970-01-01T00:00:00Z</time>
      </trkpt>
      <trkpt lat="39.357390" lon="-5.420200">
        <ele>449.7</ele>
        <time>1970-01-01T00:00:00Z</time>
      </trkpt>
      <trkpt lat="39.357430" lon="-5.419940">
        <ele>448.4</ele>
        <time>1970-01-01T00:00:00Z</time>
      </trkpt>
      <trkpt lat="39.357720" lon="-5.419180">
        <ele>447.8</ele>
        <time>1970-01-01T00:00:00Z</time>
      </trkpt>
      <trkpt lat="39.357880" lon="-5.418550">
        <ele>448.5</ele>
        <time>1970-01-01T00:00:00Z</time>
      </trkpt>
      <trkpt lat="39.357940" lon="-5.418240">
        <ele>448.6</ele>
        <time>1970-01-01T00:00:00Z</time>
      </trkpt>
      <trkpt lat="39.358200" lon="-5.417630">
        <ele>448.6</ele>
        <time>1970-01-01T00:00:00Z</time>
      </trkpt>
      <trkpt lat="39.358265" lon="-5.417719">
        <ele>449.1</ele>
        <time>1970-01-01T00:00:00Z</time>
      </trkpt>
      <trkpt lat="39.358680" lon="-5.416453">
        <ele>446.0</ele>
        <time>1970-01-01T00:00:00Z</time>
      </trkpt>
      <trkpt lat="39.359012" lon="-5.415530">
        <ele>445.7</ele>
        <time>1970-01-01T00:00:00Z</time>
      </trkpt>
      <trkpt lat="39.359211" lon="-5.414093">
        <ele>448.0</ele>
        <time>1970-01-01T00:00:00Z</time>
      </trkpt>
      <trkpt lat="39.359410" lon="-5.413363">
        <ele>449.1</ele>
        <time>1970-01-01T00:00:00Z</time>
      </trkpt>
      <trkpt lat="39.359493" lon="-5.412784">
        <ele>450.6</ele>
        <time>1970-01-01T00:00:00Z</time>
      </trkpt>
      <trkpt lat="39.359725" lon="-5.412290">
        <ele>451.8</ele>
        <time>1970-01-01T00:00:00Z</time>
      </trkpt>
      <trkpt lat="39.360057" lon="-5.411346">
        <ele>455.4</ele>
        <time>1970-01-01T00:00:00Z</time>
      </trkpt>
      <trkpt lat="39.360206" lon="-5.411088">
        <ele>456.3</ele>
        <time>1970-01-01T00:00:00Z</time>
      </trkpt>
      <trkpt lat="39.360272" lon="-5.410724">
        <ele>460.0</ele>
        <time>1970-01-01T00:00:00Z</time>
      </trkpt>
      <trkpt lat="39.360654" lon="-5.410445">
        <ele>463.2</ele>
        <time>1970-01-01T00:00:00Z</time>
      </trkpt>
      <trkpt lat="39.361168" lon="-5.410187">
        <ele>467.3</ele>
        <time>1970-01-01T00:00:00Z</time>
      </trkpt>
      <trkpt lat="39.361600" lon="-5.409908">
        <ele>466.8</ele>
        <time>1970-01-01T00:00:00Z</time>
      </trkpt>
      <trkpt lat="39.362081" lon="-5.409393">
        <ele>464.4</ele>
        <time>1970-01-01T00:00:00Z</time>
      </trkpt>
      <trkpt lat="39.362496" lon="-5.408664">
        <ele>466.5</ele>
        <time>1970-01-01T00:00:00Z</time>
      </trkpt>
      <trkpt lat="39.362794" lon="-5.407720">
        <ele>471.2</ele>
        <time>1970-01-01T00:00:00Z</time>
      </trkpt>
      <trkpt lat="39.363176" lon="-5.407333">
        <ele>473.9</ele>
        <time>1970-01-01T00:00:00Z</time>
      </trkpt>
      <trkpt lat="39.363508" lon="-5.406733">
        <ele>476.7</ele>
        <time>1970-01-01T00:00:00Z</time>
      </trkpt>
      <trkpt lat="39.364370" lon="-5.405316">
        <ele>487.7</ele>
        <time>1970-01-01T00:00:00Z</time>
      </trkpt>
      <trkpt lat="39.364619" lon="-5.404801">
        <ele>490.8</ele>
        <time>1970-01-01T00:00:00Z</time>
      </trkpt>
      <trkpt lat="39.364818" lon="-5.403922">
        <ele>496.3</ele>
        <time>1970-01-01T00:00:00Z</time>
      </trkpt>
      <trkpt lat="39.365084" lon="-5.402956">
        <ele>504.0</ele>
        <time>1970-01-01T00:00:00Z</time>
      </trkpt>
      <trkpt lat="39.365465" lon="-5.401926">
        <ele>512.3</ele>
        <time>1970-01-01T00:00:00Z</time>
      </trkpt>
      <trkpt lat="39.365963" lon="-5.400875">
        <ele>517.2</ele>
        <time>1970-01-01T00:00:00Z</time>
      </trkpt>
      <trkpt lat="39.366494" lon="-5.399759">
        <ele>527.5</ele>
        <time>1970-01-01T00:00:00Z</time>
      </trkpt>
      <trkpt lat="39.366842" lon="-5.399287">
        <ele>533.2</ele>
        <time>1970-01-01T00:00:00Z</time>
      </trkpt>
      <trkpt lat="39.367058" lon="-5.398922">
        <ele>536.2</ele>
        <time>1970-01-01T00:00:00Z</time>
      </trkpt>
      <trkpt lat="39.367539" lon="-5.398171">
        <ele>542.7</ele>
        <time>1970-01-01T00:00:00Z</time>
      </trkpt>
      <trkpt lat="39.367904" lon="-5.397613">
        <ele>546.0</ele>
        <time>1970-01-01T00:00:00Z</time>
      </trkpt>
      <trkpt lat="39.368136" lon="-5.396883">
        <ele>549.0</ele>
        <time>1970-01-01T00:00:00Z</time>
      </trkpt>
      <trkpt lat="39.368269" lon="-5.396218">
        <ele>552.0</ele>
        <time>1970-01-01T00:00:00Z</time>
      </trkpt>
      <trkpt lat="39.368090" lon="-5.395890">
        <ele>554.7</ele>
        <time>1970-01-01T00:00:00Z</time>
      </trkpt>
      <trkpt lat="39.368020" lon="-5.395690">
        <ele>555.1</ele>
        <time>1970-01-01T00:00:00Z</time>
      </trkpt>
      <trkpt lat="39.367850" lon="-5.395270">
        <ele>555.6</ele>
        <time>1970-01-01T00:00:00Z</time>
      </trkpt>
      <trkpt lat="39.367810" lon="-5.394860">
        <ele>552.1</ele>
        <time>1970-01-01T00:00:00Z</time>
      </trkpt>
      <trkpt lat="39.368060" lon="-5.394440">
        <ele>545.9</ele>
        <time>1970-01-01T00:00:00Z</time>
      </trkpt>
      <trkpt lat="39.368130" lon="-5.394410">
        <ele>545.5</ele>
        <time>1970-01-01T00:00:00Z</time>
      </trkpt>
      <trkpt lat="39.368150" lon="-5.394390">
        <ele>545.3</ele>
        <time>1970-01-01T00:00:00Z</time>
      </trkpt>
      <trkpt lat="39.368150" lon="-5.394160">
        <ele>542.9</ele>
        <time>1970-01-01T00:00:00Z</time>
      </trkpt>
      <trkpt lat="39.368130" lon="-5.394100">
        <ele>542.3</ele>
        <time>1970-01-01T00:00:00Z</time>
      </trkpt>
      <trkpt lat="39.368120" lon="-5.394010">
        <ele>541.6</ele>
        <time>1970-01-01T00:00:00Z</time>
      </trkpt>
      <trkpt lat="39.368120" lon="-5.393890">
        <ele>540.5</ele>
        <time>1970-01-01T00:00:00Z</time>
      </trkpt>
      <trkpt lat="39.368120" lon="-5.393740">
        <ele>538.8</ele>
        <time>1970-01-01T00:00:00Z</time>
      </trkpt>
      <trkpt lat="39.368100" lon="-5.393200">
        <ele>532.5</ele>
        <time>1970-01-01T00:00:00Z</time>
      </trkpt>
      <trkpt lat="39.368150" lon="-5.392630">
        <ele>527.5</ele>
        <time>1970-01-01T00:00:00Z</time>
      </trkpt>
      <trkpt lat="39.368160" lon="-5.392220">
        <ele>523.2</ele>
        <time>1970-01-01T00:00:00Z</time>
      </trkpt>
      <trkpt lat="39.368210" lon="-5.392140">
        <ele>522.8</ele>
        <time>1970-01-01T00:00:00Z</time>
      </trkpt>
      <trkpt lat="39.368600" lon="-5.391990">
        <ele>523.1</ele>
        <time>1970-01-01T00:00:00Z</time>
      </trkpt>
      <trkpt lat="39.369070" lon="-5.391780">
        <ele>524.0</ele>
        <time>1970-01-01T00:00:00Z</time>
      </trkpt>
      <trkpt lat="39.369230" lon="-5.391640">
        <ele>525.1</ele>
        <time>1970-01-01T00:00:00Z</time>
      </trkpt>
      <trkpt lat="39.369350" lon="-5.391440">
        <ele>526.5</ele>
        <time>1970-01-01T00:00:00Z</time>
      </trkpt>
      <trkpt lat="39.369380" lon="-5.391400">
        <ele>527.1</ele>
        <time>1970-01-01T00:00:00Z</time>
      </trkpt>
      <trkpt lat="39.369520" lon="-5.390930">
        <ele>529.9</ele>
        <time>1970-01-01T00:00:00Z</time>
      </trkpt>
      <trkpt lat="39.369750" lon="-5.390510">
        <ele>533.7</ele>
        <time>1970-01-01T00:00:00Z</time>
      </trkpt>
      <trkpt lat="39.369900" lon="-5.390320">
        <ele>536.5</ele>
        <time>1970-01-01T00:00:00Z</time>
      </trkpt>
      <trkpt lat="39.370010" lon="-5.390240">
        <ele>538.3</ele>
        <time>1970-01-01T00:00:00Z</time>
      </trkpt>
      <trkpt lat="39.370200" lon="-5.390140">
        <ele>541.1</ele>
        <time>1970-01-01T00:00:00Z</time>
      </trkpt>
      <trkpt lat="39.370410" lon="-5.390050">
        <ele>542.6</ele>
        <time>1970-01-01T00:00:00Z</time>
      </trkpt>
      <trkpt lat="39.370780" lon="-5.389850">
        <ele>544.2</ele>
        <time>1970-01-01T00:00:00Z</time>
      </trkpt>
      <trkpt lat="39.370870" lon="-5.389810">
        <ele>544.4</ele>
        <time>1970-01-01T00:00:00Z</time>
      </trkpt>
      <trkpt lat="39.371030" lon="-5.389790">
        <ele>544.6</ele>
        <time>1970-01-01T00:00:00Z</time>
      </trkpt>
      <trkpt lat="39.371200" lon="-5.389810">
        <ele>544.6</ele>
        <time>1970-01-01T00:00:00Z</time>
      </trkpt>
      <trkpt lat="39.371530" lon="-5.389910">
        <ele>543.6</ele>
        <time>1970-01-01T00:00:00Z</time>
      </trkpt>
      <trkpt lat="39.371610" lon="-5.389910">
        <ele>543.2</ele>
        <time>1970-01-01T00:00:00Z</time>
      </trkpt>
      <trkpt lat="39.371960" lon="-5.389800">
        <ele>541.6</ele>
        <time>1970-01-01T00:00:00Z</time>
      </trkpt>
      <trkpt lat="39.372050" lon="-5.389760">
        <ele>541.4</ele>
        <time>1970-01-01T00:00:00Z</time>
      </trkpt>
      <trkpt lat="39.372140" lon="-5.389690">
        <ele>541.2</ele>
        <time>1970-01-01T00:00:00Z</time>
      </trkpt>
      <trkpt lat="39.372170" lon="-5.389650">
        <ele>541.2</ele>
        <time>1970-01-01T00:00:00Z</time>
      </trkpt>
      <trkpt lat="39.372550" lon="-5.389390">
        <ele>542.8</ele>
        <time>1970-01-01T00:00:00Z</time>
      </trkpt>
      <trkpt lat="39.372710" lon="-5.389160">
        <ele>544.2</ele>
        <time>1970-01-01T00:00:00Z</time>
      </trkpt>
      <trkpt lat="39.372820" lon="-5.388850">
        <ele>545.1</ele>
        <time>1970-01-01T00:00:00Z</time>
      </trkpt>
      <trkpt lat="39.372920" lon="-5.388620">
        <ele>547.0</ele>
        <time>1970-01-01T00:00:00Z</time>
      </trkpt>
      <trkpt lat="39.373210" lon="-5.388200">
        <ele>551.4</ele>
        <time>1970-01-01T00:00:00Z</time>
      </trkpt>
      <trkpt lat="39.373550" lon="-5.387900">
        <ele>558.3</ele>
        <time>1970-01-01T00:00:00Z</time>
      </trkpt>
      <trkpt lat="39.373830" lon="-5.387710">
        <ele>563.3</ele>
        <time>1970-01-01T00:00:00Z</time>
      </trkpt>
      <trkpt lat="39.374120" lon="-5.387660">
        <ele>567.0</ele>
        <time>1970-01-01T00:00:00Z</time>
      </trkpt>
      <trkpt lat="39.374220" lon="-5.387610">
        <ele>568.6</ele>
        <time>1970-01-01T00:00:00Z</time>
      </trkpt>
      <trkpt lat="39.374430" lon="-5.387620">
        <ele>569.3</ele>
        <time>1970-01-01T00:00:00Z</time>
      </trkpt>
      <trkpt lat="39.374770" lon="-5.387690">
        <ele>569.6</ele>
        <time>1970-01-01T00:00:00Z</time>
      </trkpt>
      <trkpt lat="39.375030" lon="-5.387730">
        <ele>570.0</ele>
        <time>1970-01-01T00:00:00Z</time>
      </trkpt>
      <trkpt lat="39.375300" lon="-5.387800">
        <ele>570.7</ele>
        <time>1970-01-01T00:00:00Z</time>
      </trkpt>
      <trkpt lat="39.375830" lon="-5.387800">
        <ele>573.4</ele>
        <time>1970-01-01T00:00:00Z</time>
      </trkpt>
      <trkpt lat="39.376230" lon="-5.387860">
        <ele>574.3</ele>
        <time>1970-01-01T00:00:00Z</time>
      </trkpt>
      <trkpt lat="39.376480" lon="-5.387960">
        <ele>574.2</ele>
        <time>1970-01-01T00:00:00Z</time>
      </trkpt>
      <trkpt lat="39.377146" lon="-5.388035">
        <ele>576.6</ele>
        <time>1970-01-01T00:00:00Z</time>
      </trkpt>
      <trkpt lat="39.377505" lon="-5.388105">
        <ele>578.8</ele>
        <time>1970-01-01T00:00:00Z</time>
      </trkpt>
      <trkpt lat="39.377773" lon="-5.388172">
        <ele>581.1</ele>
        <time>1970-01-01T00:00:00Z</time>
      </trkpt>
      <trkpt lat="39.378245" lon="-5.388247">
        <ele>588.2</ele>
        <time>1970-01-01T00:00:00Z</time>
      </trkpt>
      <trkpt lat="39.378721" lon="-5.388338">
        <ele>593.5</ele>
        <time>1970-01-01T00:00:00Z</time>
      </trkpt>
      <trkpt lat="39.379042" lon="-5.388488">
        <ele>595.9</ele>
        <time>1970-01-01T00:00:00Z</time>
      </trkpt>
      <trkpt lat="39.379582" lon="-5.388484">
        <ele>600.9</ele>
        <time>1970-01-01T00:00:00Z</time>
      </trkpt>
      <trkpt lat="39.379944" lon="-5.388438">
        <ele>604.1</ele>
        <time>1970-01-01T00:00:00Z</time>
      </trkpt>
      <trkpt lat="39.380179" lon="-5.388411">
        <ele>606.1</ele>
        <time>1970-01-01T00:00:00Z</time>
      </trkpt>
      <trkpt lat="39.380315" lon="-5.388358">
        <ele>607.2</ele>
        <time>1970-01-01T00:00:00Z</time>
      </trkpt>
      <trkpt lat="39.380497" lon="-5.388236">
        <ele>608.6</ele>
        <time>1970-01-01T00:00:00Z</time>
      </trkpt>
      <trkpt lat="39.380566" lon="-5.388413">
        <ele>608.7</ele>
        <time>1970-01-01T00:00:00Z</time>
      </trkpt>
      <trkpt lat="39.380571" lon="-5.388181">
        <ele>609.5</ele>
        <time>1970-01-01T00:00:00Z</time>
      </trkpt>
      <trkpt lat="39.380593" lon="-5.387957">
        <ele>611.0</ele>
        <time>1970-01-01T00:00:00Z</time>
      </trkpt>
      <trkpt lat="39.380692" lon="-5.387743">
        <ele>614.0</ele>
        <time>1970-01-01T00:00:00Z</time>
      </trkpt>
      <trkpt lat="39.380767" lon="-5.387398">
        <ele>618.6</ele>
        <time>1970-01-01T00:00:00Z</time>
      </trkpt>
      <trkpt lat="39.380593" lon="-5.386949">
        <ele>622.1</ele>
        <time>1970-01-01T00:00:00Z</time>
      </trkpt>
      <trkpt lat="39.380361" lon="-5.386412">
        <ele>627.5</ele>
        <time>1970-01-01T00:00:00Z</time>
      </trkpt>
      <trkpt lat="39.379880" lon="-5.385168">
        <ele>642.7</ele>
        <time>1970-01-01T00:00:00Z</time>
      </trkpt>
      <trkpt lat="39.379697" lon="-5.384524">
        <ele>645.1</ele>
        <time>1970-01-01T00:00:00Z</time>
      </trkpt>
      <trkpt lat="39.379797" lon="-5.384030">
        <ele>645.7</ele>
        <time>1970-01-01T00:00:00Z</time>
      </trkpt>
      <trkpt lat="39.379797" lon="-5.383794">
        <ele>644.2</ele>
        <time>1970-01-01T00:00:00Z</time>
      </trkpt>
      <trkpt lat="39.379050" lon="-5.382636">
        <ele>641.4</ele>
        <time>1970-01-01T00:00:00Z</time>
      </trkpt>
      <trkpt lat="39.378715" lon="-5.382035">
        <ele>642.0</ele>
        <time>1970-01-01T00:00:00Z</time>
      </trkpt>
      <trkpt lat="39.378622" lon="-5.381265">
        <ele>636.7</ele>
        <time>1970-01-01T00:00:00Z</time>
      </trkpt>
      <trkpt lat="39.378337" lon="-5.380125">
        <ele>633.6</ele>
        <time>1970-01-01T00:00:00Z</time>
      </trkpt>
      <trkpt lat="39.378105" lon="-5.379739">
        <ele>637.1</ele>
        <time>1970-01-01T00:00:00Z</time>
      </trkpt>
      <trkpt lat="39.377607" lon="-5.378945">
        <ele>640.8</ele>
        <time>1970-01-01T00:00:00Z</time>
      </trkpt>
      <trkpt lat="39.377143" lon="-5.378280">
        <ele>642.3</ele>
        <time>1970-01-01T00:00:00Z</time>
      </trkpt>
      <trkpt lat="39.376761" lon="-5.377614">
        <ele>642.2</ele>
        <time>1970-01-01T00:00:00Z</time>
      </trkpt>
      <trkpt lat="39.376413" lon="-5.377271">
        <ele>647.0</ele>
        <time>1970-01-01T00:00:00Z</time>
      </trkpt>
      <trkpt lat="39.376015" lon="-5.377078">
        <ele>651.3</ele>
        <time>1970-01-01T00:00:00Z</time>
      </trkpt>
      <trkpt lat="39.375783" lon="-5.376863">
        <ele>650.8</ele>
        <time>1970-01-01T00:00:00Z</time>
      </trkpt>
      <trkpt lat="39.375534" lon="-5.376456">
        <ele>651.2</ele>
        <time>1970-01-01T00:00:00Z</time>
      </trkpt>
      <trkpt lat="39.376812" lon="-5.377304">
        <ele>635.4</ele>
        <time>1970-01-01T00:00:00Z</time>
      </trkpt>
      <trkpt lat="39.378688" lon="-5.379805">
        <ele>614.8</ele>
        <time>1970-01-01T00:00:00Z</time>
      </trkpt>
      <trkpt lat="39.377685" lon="-5.377774">
        <ele>612.0</ele>
        <time>1970-01-01T00:00:00Z</time>
      </trkpt>
      <trkpt lat="39.377798" lon="-5.377523">
        <ele>599.4</ele>
        <time>1970-01-01T00:00:00Z</time>
      </trkpt>
      <trkpt lat="39.378015" lon="-5.377507">
        <ele>587.9</ele>
        <time>1970-01-01T00:00:00Z</time>
      </trkpt>
      <trkpt lat="39.378703" lon="-5.378204">
        <ele>577.2</ele>
        <time>1970-01-01T00:00:00Z</time>
      </trkpt>
      <trkpt lat="39.379272" lon="-5.378571">
        <ele>565.0</ele>
        <time>1970-01-01T00:00:00Z</time>
      </trkpt>
      <trkpt lat="39.378845" lon="-5.377442">
        <ele>553.6</ele>
        <time>1970-01-01T00:00:00Z</time>
      </trkpt>
      <trkpt lat="39.378314" lon="-5.376078">
        <ele>550.4</ele>
        <time>1970-01-01T00:00:00Z</time>
      </trkpt>
      <trkpt lat="39.378228" lon="-5.375854">
        <ele>550.9</ele>
        <time>1970-01-01T00:00:00Z</time>
      </trkpt>
      <trkpt lat="39.378141" lon="-5.375706">
        <ele>551.8</ele>
        <time>1970-01-01T00:00:00Z</time>
      </trkpt>
      <trkpt lat="39.378050" lon="-5.375400">
        <ele>554.1</ele>
        <time>1970-01-01T00:00:00Z</time>
      </trkpt>
      <trkpt lat="39.377880" lon="-5.374390">
        <ele>562.9</ele>
        <time>1970-01-01T00:00:00Z</time>
      </trkpt>
      <trkpt lat="39.378080" lon="-5.373640">
        <ele>559.0</ele>
        <time>1970-01-01T00:00:00Z</time>
      </trkpt>
      <trkpt lat="39.378200" lon="-5.373410">
        <ele>555.5</ele>
        <time>1970-01-01T00:00:00Z</time>
      </trkpt>
      <trkpt lat="39.378350" lon="-5.373160">
        <ele>552.0</ele>
        <time>1970-01-01T00:00:00Z</time>
      </trkpt>
      <trkpt lat="39.378470" lon="-5.372900">
        <ele>548.8</ele>
        <time>1970-01-01T00:00:00Z</time>
      </trkpt>
      <trkpt lat="39.378610" lon="-5.372170">
        <ele>540.3</ele>
        <time>1970-01-01T00:00:00Z</time>
      </trkpt>
      <trkpt lat="39.378540" lon="-5.371730">
        <ele>536.6</ele>
        <time>1970-01-01T00:00:00Z</time>
      </trkpt>
      <trkpt lat="39.377990" lon="-5.370480">
        <ele>531.7</ele>
        <time>1970-01-01T00:00:00Z</time>
      </trkpt>
      <trkpt lat="39.377310" lon="-5.369080">
        <ele>534.3</ele>
        <time>1970-01-01T00:00:00Z</time>
      </trkpt>
      <trkpt lat="39.377130" lon="-5.368780">
        <ele>535.2</ele>
        <time>1970-01-01T00:00:00Z</time>
      </trkpt>
      <trkpt lat="39.376700" lon="-5.367900">
        <ele>533.7</ele>
        <time>1970-01-01T00:00:00Z</time>
      </trkpt>
      <trkpt lat="39.376150" lon="-5.367200">
        <ele>536.1</ele>
        <time>1970-01-01T00:00:00Z</time>
      </trkpt>
      <trkpt lat="39.375580" lon="-5.366540">
        <ele>536.5</ele>
        <time>1970-01-01T00:00:00Z</time>
      </trkpt>
      <trkpt lat="39.375320" lon="-5.366200">
        <ele>536.3</ele>
        <time>1970-01-01T00:00:00Z</time>
      </trkpt>
      <trkpt lat="39.375210" lon="-5.365830">
        <ele>532.6</ele>
        <time>1970-01-01T00:00:00Z</time>
      </trkpt>
      <trkpt lat="39.375210" lon="-5.365810">
        <ele>532.3</ele>
        <time>1970-01-01T00:00:00Z</time>
      </trkpt>
      <trkpt lat="39.375220" lon="-5.365610">
        <ele>528.1</ele>
        <time>1970-01-01T00:00:00Z</time>
      </trkpt>
      <trkpt lat="39.375120" lon="-5.365360">
        <ele>525.1</ele>
        <time>1970-01-01T00:00:00Z</time>
      </trkpt>
      <trkpt lat="39.375030" lon="-5.365240">
        <ele>524.3</ele>
        <time>1970-01-01T00:00:00Z</time>
      </trkpt>
      <trkpt lat="39.374730" lon="-5.364950">
        <ele>523.0</ele>
        <time>1970-01-01T00:00:00Z</time>
      </trkpt>
      <trkpt lat="39.374460" lon="-5.364620">
        <ele>521.2</ele>
        <time>1970-01-01T00:00:00Z</time>
      </trkpt>
      <trkpt lat="39.373900" lon="-5.363690">
        <ele>521.0</ele>
        <time>1970-01-01T00:00:00Z</time>
      </trkpt>
      <trkpt lat="39.373870" lon="-5.363260">
        <ele>518.8</ele>
        <time>1970-01-01T00:00:00Z</time>
      </trkpt>
      <trkpt lat="39.373750" lon="-5.362310">
        <ele>518.0</ele>
        <time>1970-01-01T00:00:00Z</time>
      </trkpt>
      <trkpt lat="39.373650" lon="-5.361050">
        <ele>516.1</ele>
        <time>1970-01-01T00:00:00Z</time>
      </trkpt>
      <trkpt lat="39.373830" lon="-5.360490">
        <ele>516.4</ele>
        <time>1970-01-01T00:00:00Z</time>
      </trkpt>
      <trkpt lat="39.374020" lon="-5.360320">
        <ele>518.0</ele>
        <time>1970-01-01T00:00:00Z</time>
      </trkpt>
      <trkpt lat="39.374200" lon="-5.360290">
        <ele>518.9</ele>
        <time>1970-01-01T00:00:00Z</time>
      </trkpt>
      <trkpt lat="39.374500" lon="-5.360200">
        <ele>521.6</ele>
        <time>1970-01-01T00:00:00Z</time>
      </trkpt>
      <trkpt lat="39.374710" lon="-5.359940">
        <ele>523.9</ele>
        <time>1970-01-01T00:00:00Z</time>
      </trkpt>
      <trkpt lat="39.374780" lon="-5.359840">
        <ele>524.9</ele>
        <time>1970-01-01T00:00:00Z</time>
      </trkpt>
      <trkpt lat="39.374800" lon="-5.359650">
        <ele>525.5</ele>
        <time>1970-01-01T00:00:00Z</time>
      </trkpt>
      <trkpt lat="39.374750" lon="-5.359610">
        <ele>525.3</ele>
        <time>1970-01-01T00:00:00Z</time>
      </trkpt>
      <trkpt lat="39.374460" lon="-5.359410">
        <ele>524.8</ele>
        <time>1970-01-01T00:00:00Z</time>
      </trkpt>
      <trkpt lat="39.374090" lon="-5.359120">
        <ele>522.6</ele>
        <time>1970-01-01T00:00:00Z</time>
      </trkpt>
      <trkpt lat="39.373860" lon="-5.358820">
        <ele>521.0</ele>
        <time>1970-01-01T00:00:00Z</time>
      </trkpt>
      <trkpt lat="39.373780" lon="-5.358670">
        <ele>520.7</ele>
        <time>1970-01-01T00:00:00Z</time>
      </trkpt>
      <trkpt lat="39.373660" lon="-5.358340">
        <ele>520.1</ele>
        <time>1970-01-01T00:00:00Z</time>
      </trkpt>
      <trkpt lat="39.373330" lon="-5.357760">
        <ele>516.8</ele>
        <time>1970-01-01T00:00:00Z</time>
      </trkpt>
      <trkpt lat="39.373130" lon="-5.357360">
        <ele>515.3</ele>
        <time>1970-01-01T00:00:00Z</time>
      </trkpt>
      <trkpt lat="39.373030" lon="-5.357130">
        <ele>515.4</ele>
        <time>1970-01-01T00:00:00Z</time>
      </trkpt>
      <trkpt lat="39.372880" lon="-5.356750">
        <ele>515.3</ele>
        <time>1970-01-01T00:00:00Z</time>
      </trkpt>
      <trkpt lat="39.372700" lon="-5.356430">
        <ele>516.9</ele>
        <time>1970-01-01T00:00:00Z</time>
      </trkpt>
      <trkpt lat="39.372370" lon="-5.356160">
        <ele>518.6</ele>
        <time>1970-01-01T00:00:00Z</time>
      </trkpt>
      <trkpt lat="39.372080" lon="-5.355990">
        <ele>519.1</ele>
        <time>1970-01-01T00:00:00Z</time>
      </trkpt>
      <trkpt lat="39.371380" lon="-5.355340">
        <ele>520.2</ele>
        <time>1970-01-01T00:00:00Z</time>
      </trkpt>
      <trkpt lat="39.370990" lon="-5.354780">
        <ele>517.4</ele>
        <time>1970-01-01T00:00:00Z</time>
      </trkpt>
      <trkpt lat="39.370390" lon="-5.353880">
        <ele>515.2</ele>
        <time>1970-01-01T00:00:00Z</time>
      </trkpt>
      <trkpt lat="39.370150" lon="-5.353530">
        <ele>514.3</ele>
        <time>1970-01-01T00:00:00Z</time>
      </trkpt>
      <trkpt lat="39.369640" lon="-5.352930">
        <ele>513.0</ele>
        <time>1970-01-01T00:00:00Z</time>
      </trkpt>
      <trkpt lat="39.369570" lon="-5.352830">
        <ele>513.3</ele>
        <time>1970-01-01T00:00:00Z</time>
      </trkpt>
      <trkpt lat="39.369210" lon="-5.352210">
        <ele>512.6</ele>
        <time>1970-01-01T00:00:00Z</time>
      </trkpt>
      <trkpt lat="39.369140" lon="-5.352130">
        <ele>511.9</ele>
        <time>1970-01-01T00:00:00Z</time>
      </trkpt>
      <trkpt lat="39.368850" lon="-5.351750">
        <ele>511.3</ele>
        <time>1970-01-01T00:00:00Z</time>
      </trkpt>
      <trkpt lat="39.368730" lon="-5.351530">
        <ele>510.9</ele>
        <time>1970-01-01T00:00:00Z</time>
      </trkpt>
      <trkpt lat="39.368580" lon="-5.351380">
        <ele>510.0</ele>
        <time>1970-01-01T00:00:00Z</time>
      </trkpt>
      <trkpt lat="39.368400" lon="-5.351160">
        <ele>509.2</ele>
        <time>1970-01-01T00:00:00Z</time>
      </trkpt>
      <trkpt lat="39.368330" lon="-5.350810">
        <ele>511.0</ele>
        <time>1970-01-01T00:00:00Z</time>
      </trkpt>
      <trkpt lat="39.368340" lon="-5.350780">
        <ele>511.4</ele>
        <time>1970-01-01T00:00:00Z</time>
      </trkpt>
      <trkpt lat="39.368410" lon="-5.350720">
        <ele>512.3</ele>
        <time>1970-01-01T00:00:00Z</time>
      </trkpt>
      <trkpt lat="39.368520" lon="-5.350530">
        <ele>514.6</ele>
        <time>1970-01-01T00:00:00Z</time>
      </trkpt>
      <trkpt lat="39.368420" lon="-5.350250">
        <ele>517.0</ele>
        <time>1970-01-01T00:00:00Z</time>
      </trkpt>
      <trkpt lat="39.368120" lon="-5.349970">
        <ele>517.5</ele>
        <time>1970-01-01T00:00:00Z</time>
      </trkpt>
      <trkpt lat="39.367830" lon="-5.349700">
        <ele>519.4</ele>
        <time>1970-01-01T00:00:00Z</time>
      </trkpt>
      <trkpt lat="39.367580" lon="-5.349310">
        <ele>524.0</ele>
        <time>1970-01-01T00:00:00Z</time>
      </trkpt>
      <trkpt lat="39.367240" lon="-5.348840">
        <ele>527.3</ele>
        <time>1970-01-01T00:00:00Z</time>
      </trkpt>
      <trkpt lat="39.367030" lon="-5.348580">
        <ele>527.2</ele>
        <time>1970-01-01T00:00:00Z</time>
      </trkpt>
      <trkpt lat="39.366700" lon="-5.348240">
        <ele>523.4</ele>
        <time>1970-01-01T00:00:00Z</time>
      </trkpt>
      <trkpt lat="39.366350" lon="-5.347550">
        <ele>519.3</ele>
        <time>1970-01-01T00:00:00Z</time>
      </trkpt>
      <trkpt lat="39.366170" lon="-5.347010">
        <ele>517.9</ele>
        <time>1970-01-01T00:00:00Z</time>
      </trkpt>
      <trkpt lat="39.366160" lon="-5.346410">
        <ele>521.0</ele>
        <time>1970-01-01T00:00:00Z</time>
      </trkpt>
      <trkpt lat="39.365960" lon="-5.346330">
        <ele>521.0</ele>
        <time>1970-01-01T00:00:00Z</time>
      </trkpt>
      <trkpt lat="39.365380" lon="-5.346000">
        <ele>522.4</ele>
        <time>1970-01-01T00:00:00Z</time>
      </trkpt>
      <trkpt lat="39.364870" lon="-5.345650">
        <ele>522.8</ele>
        <time>1970-01-01T00:00:00Z</time>
      </trkpt>
      <trkpt lat="39.364160" lon="-5.345000">
        <ele>521.5</ele>
        <time>1970-01-01T00:00:00Z</time>
      </trkpt>
      <trkpt lat="39.363800" lon="-5.344520">
        <ele>520.1</ele>
        <time>1970-01-01T00:00:00Z</time>
      </trkpt>
      <trkpt lat="39.363380" lon="-5.344020">
        <ele>516.5</ele>
        <time>1970-01-01T00:00:00Z</time>
      </trkpt>
      <trkpt lat="39.363330" lon="-5.343950">
        <ele>516.1</ele>
        <time>1970-01-01T00:00:00Z</time>
      </trkpt>
      <trkpt lat="39.363200" lon="-5.343820">
        <ele>514.9</ele>
        <time>1970-01-01T00:00:00Z</time>
      </trkpt>
      <trkpt lat="39.363040" lon="-5.343720">
        <ele>513.0</ele>
        <time>1970-01-01T00:00:00Z</time>
      </trkpt>
      <trkpt lat="39.363080" lon="-5.343560">
        <ele>512.8</ele>
        <time>1970-01-01T00:00:00Z</time>
      </trkpt>
      <trkpt lat="39.363440" lon="-5.343500">
        <ele>515.1</ele>
        <time>1970-01-01T00:00:00Z</time>
      </trkpt>
      <trkpt lat="39.363500" lon="-5.343490">
        <ele>515.3</ele>
        <time>1970-01-01T00:00:00Z</time>
      </trkpt>
      <trkpt lat="39.363890" lon="-5.343290">
        <ele>518.1</ele>
        <time>1970-01-01T00:00:00Z</time>
      </trkpt>
      <trkpt lat="39.364150" lon="-5.343000">
        <ele>522.4</ele>
        <time>1970-01-01T00:00:00Z</time>
      </trkpt>
      <trkpt lat="39.364350" lon="-5.342620">
        <ele>525.6</ele>
        <time>1970-01-01T00:00:00Z</time>
      </trkpt>
      <trkpt lat="39.364600" lon="-5.342300">
        <ele>528.8</ele>
        <time>1970-01-01T00:00:00Z</time>
      </trkpt>
      <trkpt lat="39.365130" lon="-5.341770">
        <ele>529.1</ele>
        <time>1970-01-01T00:00:00Z</time>
      </trkpt>
      <trkpt lat="39.365320" lon="-5.341620">
        <ele>530.1</ele>
        <time>1970-01-01T00:00:00Z</time>
      </trkpt>
      <trkpt lat="39.365670" lon="-5.341370">
        <ele>530.5</ele>
        <time>1970-01-01T00:00:00Z</time>
      </trkpt>
      <trkpt lat="39.366250" lon="-5.340640">
        <ele>534.3</ele>
        <time>1970-01-01T00:00:00Z</time>
      </trkpt>
      <trkpt lat="39.367090" lon="-5.339370">
        <ele>540.7</ele>
        <time>1970-01-01T00:00:00Z</time>
      </trkpt>
      <trkpt lat="39.367730" lon="-5.338700">
        <ele>546.5</ele>
        <time>1970-01-01T00:00:00Z</time>
      </trkpt>
      <trkpt lat="39.368000" lon="-5.337810">
        <ele>553.5</ele>
        <time>1970-01-01T00:00:00Z</time>
      </trkpt>
      <trkpt lat="39.368030" lon="-5.337730">
        <ele>554.0</ele>
        <time>1970-01-01T00:00:00Z</time>
      </trkpt>
      <trkpt lat="39.368210" lon="-5.337550">
        <ele>557.8</ele>
        <time>1970-01-01T00:00:00Z</time>
      </trkpt>
      <trkpt lat="39.368360" lon="-5.337590">
        <ele>560.8</ele>
        <time>1970-01-01T00:00:00Z</time>
      </trkpt>
      <trkpt lat="39.368460" lon="-5.337310">
        <ele>564.5</ele>
        <time>1970-01-01T00:00:00Z</time>
      </trkpt>
      <trkpt lat="39.368470" lon="-5.336490">
        <ele>570.0</ele>
        <time>1970-01-01T00:00:00Z</time>
      </trkpt>
      <trkpt lat="39.368490" lon="-5.336290">
        <ele>571.9</ele>
        <time>1970-01-01T00:00:00Z</time>
      </trkpt>
      <trkpt lat="39.368650" lon="-5.335940">
        <ele>577.4</ele>
        <time>1970-01-01T00:00:00Z</time>
      </trkpt>
      <trkpt lat="39.369160" lon="-5.335170">
        <ele>586.8</ele>
        <time>1970-01-01T00:00:00Z</time>
      </trkpt>
      <trkpt lat="39.369940" lon="-5.334420">
        <ele>606.0</ele>
        <time>1970-01-01T00:00:00Z</time>
      </trkpt>
      <trkpt lat="39.370200" lon="-5.334220">
        <ele>614.9</ele>
        <time>1970-01-01T00:00:00Z</time>
      </trkpt>
      <trkpt lat="39.370600" lon="-5.333330">
        <ele>624.9</ele>
        <time>1970-01-01T00:00:00Z</time>
      </trkpt>
      <trkpt lat="39.370820" lon="-5.333080">
        <ele>630.9</ele>
        <time>1970-01-01T00:00:00Z</time>
      </trkpt>
      <trkpt lat="39.371130" lon="-5.332620">
        <ele>639.5</ele>
        <time>1970-01-01T00:00:00Z</time>
      </trkpt>
      <trkpt lat="39.371250" lon="-5.332390">
        <ele>642.6</ele>
        <time>1970-01-01T00:00:00Z</time>
      </trkpt>
      <trkpt lat="39.371300" lon="-5.332280">
        <ele>643.6</ele>
        <time>1970-01-01T00:00:00Z</time>
      </trkpt>
      <trkpt lat="39.371560" lon="-5.332030">
        <ele>651.3</ele>
        <time>1970-01-01T00:00:00Z</time>
      </trkpt>
      <trkpt lat="39.371870" lon="-5.331620">
        <ele>658.9</ele>
        <time>1970-01-01T00:00:00Z</time>
      </trkpt>
      <trkpt lat="39.372020" lon="-5.331430">
        <ele>662.0</ele>
        <time>1970-01-01T00:00:00Z</time>
      </trkpt>
      <trkpt lat="39.372120" lon="-5.331320">
        <ele>664.2</ele>
        <time>1970-01-01T00:00:00Z</time>
      </trkpt>
      <trkpt lat="39.372360" lon="-5.330900">
        <ele>669.6</ele>
        <time>1970-01-01T00:00:00Z</time>
      </trkpt>
      <trkpt lat="39.372480" lon="-5.330710">
        <ele>672.7</ele>
        <time>1970-01-01T00:00:00Z</time>
      </trkpt>
      <trkpt lat="39.372480" lon="-5.330700">
        <ele>672.7</ele>
        <time>1970-01-01T00:00:00Z</time>
      </trkpt>
      <trkpt lat="39.372470" lon="-5.330700">
        <ele>672.4</ele>
        <time>1970-01-01T00:00:00Z</time>
      </trkpt>
      <trkpt lat="39.372500" lon="-5.330630">
        <ele>673.1</ele>
        <time>1970-01-01T00:00:00Z</time>
      </trkpt>
      <trkpt lat="39.372640" lon="-5.330380">
        <ele>676.2</ele>
        <time>1970-01-01T00:00:00Z</time>
      </trkpt>
      <trkpt lat="39.372720" lon="-5.330250">
        <ele>677.7</ele>
        <time>1970-01-01T00:00:00Z</time>
      </trkpt>
      <trkpt lat="39.372760" lon="-5.330230">
        <ele>678.3</ele>
        <time>1970-01-01T00:00:00Z</time>
      </trkpt>
      <trkpt lat="39.373030" lon="-5.330290">
        <ele>681.9</ele>
        <time>1970-01-01T00:00:00Z</time>
      </trkpt>
      <trkpt lat="39.373080" lon="-5.330310">
        <ele>682.5</ele>
        <time>1970-01-01T00:00:00Z</time>
      </trkpt>
      <trkpt lat="39.373090" lon="-5.330290">
        <ele>682.6</ele>
        <time>1970-01-01T00:00:00Z</time>
      </trkpt>
      <trkpt lat="39.373210" lon="-5.330050">
        <ele>683.6</ele>
        <time>1970-01-01T00:00:00Z</time>
      </trkpt>
      <trkpt lat="39.373310" lon="-5.329960">
        <ele>684.2</ele>
        <time>1970-01-01T00:00:00Z</time>
      </trkpt>
      <trkpt lat="39.373380" lon="-5.329830">
        <ele>684.7</ele>
        <time>1970-01-01T00:00:00Z</time>
      </trkpt>
      <trkpt lat="39.373470" lon="-5.329600">
        <ele>686.0</ele>
        <time>1970-01-01T00:00:00Z</time>
      </trkpt>
      <trkpt lat="39.373470" lon="-5.329610">
        <ele>685.9</ele>
        <time>1970-01-01T00:00:00Z</time>
      </trkpt>
      <trkpt lat="39.373500" lon="-5.329530">
        <ele>686.6</ele>
        <time>1970-01-01T00:00:00Z</time>
      </trkpt>
      <trkpt lat="39.373510" lon="-5.329410">
        <ele>687.6</ele>
        <time>1970-01-01T00:00:00Z</time>
      </trkpt>
      <trkpt lat="39.373510" lon="-5.328630">
        <ele>694.2</ele>
        <time>1970-01-01T00:00:00Z</time>
      </trkpt>
      <trkpt lat="39.373670" lon="-5.328310">
        <ele>695.3</ele>
        <time>1970-01-01T00:00:00Z</time>
      </trkpt>
      <trkpt lat="39.373890" lon="-5.328190">
        <ele>693.7</ele>
        <time>1970-01-01T00:00:00Z</time>
      </trkpt>
      <trkpt lat="39.374000" lon="-5.328120">
        <ele>693.2</ele>
        <time>1970-01-01T00:00:00Z</time>
      </trkpt>
      <trkpt lat="39.374140" lon="-5.328000">
        <ele>692.5</ele>
        <time>1970-01-01T00:00:00Z</time>
      </trkpt>
      <trkpt lat="39.374300" lon="-5.327790">
        <ele>692.1</ele>
        <time>1970-01-01T00:00:00Z</time>
      </trkpt>
      <trkpt lat="39.374350" lon="-5.327740">
        <ele>691.9</ele>
        <time>1970-01-01T00:00:00Z</time>
      </trkpt>
      <trkpt lat="39.374830" lon="-5.326870">
        <ele>690.1</ele>
        <time>1970-01-01T00:00:00Z</time>
      </trkpt>
      <trkpt lat="39.375040" lon="-5.326370">
        <ele>686.9</ele>
        <time>1970-01-01T00:00:00Z</time>
      </trkpt>
      <trkpt lat="39.375120" lon="-5.326110">
        <ele>684.9</ele>
        <time>1970-01-01T00:00:00Z</time>
      </trkpt>
      <trkpt lat="39.375220" lon="-5.325700">
        <ele>680.9</ele>
        <time>1970-01-01T00:00:00Z</time>
      </trkpt>
      <trkpt lat="39.375250" lon="-5.325530">
        <ele>679.3</ele>
        <time>1970-01-01T00:00:00Z</time>
      </trkpt>
      <trkpt lat="39.375230" lon="-5.325290">
        <ele>677.9</ele>
        <time>1970-01-01T00:00:00Z</time>
      </trkpt>
      <trkpt lat="39.375130" lon="-5.325030">
        <ele>676.3</ele>
        <time>1970-01-01T00:00:00Z</time>
      </trkpt>
      <trkpt lat="39.374820" lon="-5.324710">
        <ele>674.2</ele>
        <time>1970-01-01T00:00:00Z</time>
      </trkpt>
      <trkpt lat="39.374230" lon="-5.324490">
        <ele>672.7</ele>
        <time>1970-01-01T00:00:00Z</time>
      </trkpt>
      <trkpt lat="39.374000" lon="-5.324110">
        <ele>670.3</ele>
        <time>1970-01-01T00:00:00Z</time>
      </trkpt>
      <trkpt lat="39.373910" lon="-5.322340">
        <ele>662.6</ele>
        <time>1970-01-01T00:00:00Z</time>
      </trkpt>
      <trkpt lat="39.373900" lon="-5.321710">
        <ele>661.0</ele>
        <time>1970-01-01T00:00:00Z</time>
      </trkpt>
      <trkpt lat="39.374070" lon="-5.321370">
        <ele>661.4</ele>
        <time>1970-01-01T00:00:00Z</time>
      </trkpt>
      <trkpt lat="39.374170" lon="-5.321280">
        <ele>661.4</ele>
        <time>1970-01-01T00:00:00Z</time>
      </trkpt>
      <trkpt lat="39.374090" lon="-5.321370">
        <ele>661.5</ele>
        <time>1970-01-01T00:00:00Z</time>
      </trkpt>
      <trkpt lat="39.374220" lon="-5.321150">
        <ele>661.4</ele>
        <time>1970-01-01T00:00:00Z</time>
      </trkpt>
      <trkpt lat="39.374460" lon="-5.320790">
        <ele>665.4</ele>
        <time>1970-01-01T00:00:00Z</time>
      </trkpt>
      <trkpt lat="39.374470" lon="-5.320530">
        <ele>666.9</ele>
        <time>1970-01-01T00:00:00Z</time>
      </trkpt>
      <trkpt lat="39.374580" lon="-5.320390">
        <ele>669.3</ele>
        <time>1970-01-01T00:00:00Z</time>
      </trkpt>
      <trkpt lat="39.374800" lon="-5.320000">
        <ele>675.4</ele>
        <time>1970-01-01T00:00:00Z</time>
      </trkpt>
      <trkpt lat="39.375030" lon="-5.319840">
        <ele>679.1</ele>
        <time>1970-01-01T00:00:00Z</time>
      </trkpt>
      <trkpt lat="39.375110" lon="-5.319590">
        <ele>680.6</ele>
        <time>1970-01-01T00:00:00Z</time>
      </trkpt>
      <trkpt lat="39.375110" lon="-5.319440">
        <ele>680.9</ele>
        <time>1970-01-01T00:00:00Z</time>
      </trkpt>
      <trkpt lat="39.375390" lon="-5.318890">
        <ele>679.4</ele>
        <time>1970-01-01T00:00:00Z</time>
      </trkpt>
      <trkpt lat="39.375440" lon="-5.318880">
        <ele>679.1</ele>
        <time>1970-01-01T00:00:00Z</time>
      </trkpt>
      <trkpt lat="39.375550" lon="-5.318870">
        <ele>678.6</ele>
        <time>1970-01-01T00:00:00Z</time>
      </trkpt>
      <trkpt lat="39.375650" lon="-5.318730">
        <ele>676.9</ele>
        <time>1970-01-01T00:00:00Z</time>
      </trkpt>
      <trkpt lat="39.375540" lon="-5.318570">
        <ele>676.0</ele>
        <time>1970-01-01T00:00:00Z</time>
      </trkpt>
      <trkpt lat="39.375520" lon="-5.318570">
        <ele>676.2</ele>
        <time>1970-01-01T00:00:00Z</time>
      </trkpt>
      <trkpt lat="39.375680" lon="-5.318450">
        <ele>672.9</ele>
        <time>1970-01-01T00:00:00Z</time>
      </trkpt>
      <trkpt lat="39.376560" lon="-5.318270">
        <ele>663.8</ele>
        <time>1970-01-01T00:00:00Z</time>
      </trkpt>
      <trkpt lat="39.377140" lon="-5.317970">
        <ele>661.1</ele>
        <time>1970-01-01T00:00:00Z</time>
      </trkpt>
      <trkpt lat="39.377240" lon="-5.317970">
        <ele>662.1</ele>
        <time>1970-01-01T00:00:00Z</time>
      </trkpt>
      <trkpt lat="39.377570" lon="-5.318060">
        <ele>666.7</ele>
        <time>1970-01-01T00:00:00Z</time>
      </trkpt>
      <trkpt lat="39.377630" lon="-5.318070">
        <ele>667.6</ele>
        <time>1970-01-01T00:00:00Z</time>
      </trkpt>
      <trkpt lat="39.377890" lon="-5.317800">
        <ele>667.5</ele>
        <time>1970-01-01T00:00:00Z</time>
      </trkpt>
      <trkpt lat="39.378000" lon="-5.317450">
        <ele>664.4</ele>
        <time>1970-01-01T00:00:00Z</time>
      </trkpt>
      <trkpt lat="39.378180" lon="-5.317060">
        <ele>661.3</ele>
        <time>1970-01-01T00:00:00Z</time>
      </trkpt>
      <trkpt lat="39.378510" lon="-5.316890">
        <ele>659.3</ele>
        <time>1970-01-01T00:00:00Z</time>
      </trkpt>
      <trkpt lat="39.379530" lon="-5.316900">
        <ele>665.4</ele>
        <time>1970-01-01T00:00:00Z</time>
      </trkpt>
      <trkpt lat="39.379830" lon="-5.316780">
        <ele>666.4</ele>
        <time>1970-01-01T00:00:00Z</time>
      </trkpt>
      <trkpt lat="39.380750" lon="-5.316170">
        <ele>667.6</ele>
        <time>1970-01-01T00:00:00Z</time>
      </trkpt>
      <trkpt lat="39.381540" lon="-5.315280">
        <ele>658.7</ele>
        <time>1970-01-01T00:00:00Z</time>
      </trkpt>
      <trkpt lat="39.381610" lon="-5.315180">
        <ele>658.2</ele>
        <time>1970-01-01T00:00:00Z</time>
      </trkpt>
      <trkpt lat="39.381610" lon="-5.315180">
        <ele>658.2</ele>
        <time>1970-01-01T00:00:00Z</time>
      </trkpt>
      <trkpt lat="39.381560" lon="-5.315230">
        <ele>658.4</ele>
        <time>1970-01-01T00:00:00Z</time>
      </trkpt>
      <trkpt lat="39.381560" lon="-5.315230">
        <ele>658.4</ele>
        <time>1970-01-01T00:00:00Z</time>
      </trkpt>
      <trkpt lat="39.381660" lon="-5.315160">
        <ele>657.9</ele>
        <time>1970-01-01T00:00:00Z</time>
      </trkpt>
      <trkpt lat="39.382420" lon="-5.314940">
        <ele>652.8</ele>
        <time>1970-01-01T00:00:00Z</time>
      </trkpt>
      <trkpt lat="39.382960" lon="-5.314970">
        <ele>649.6</ele>
        <time>1970-01-01T00:00:00Z</time>
      </trkpt>
      <trkpt lat="39.383470" lon="-5.315430">
        <ele>642.4</ele>
        <time>1970-01-01T00:00:00Z</time>
      </trkpt>
      <trkpt lat="39.383800" lon="-5.315610">
        <ele>640.2</ele>
        <time>1970-01-01T00:00:00Z</time>
      </trkpt>
      <trkpt lat="39.383930" lon="-5.315580">
        <ele>639.9</ele>
        <time>1970-01-01T00:00:00Z</time>
      </trkpt>
      <trkpt lat="39.383920" lon="-5.315580">
        <ele>640.1</ele>
        <time>1970-01-01T00:00:00Z</time>
      </trkpt>
      <trkpt lat="39.384250" lon="-5.315540">
        <ele>635.5</ele>
        <time>1970-01-01T00:00:00Z</time>
      </trkpt>
      <trkpt lat="39.385190" lon="-5.315280">
        <ele>615.6</ele>
        <time>1970-01-01T00:00:00Z</time>
      </trkpt>
      <trkpt lat="39.385540" lon="-5.315130">
        <ele>611.0</ele>
        <time>1970-01-01T00:00:00Z</time>
      </trkpt>
      <trkpt lat="39.386050" lon="-5.314590">
        <ele>606.8</ele>
        <time>1970-01-01T00:00:00Z</time>
      </trkpt>
      <trkpt lat="39.386570" lon="-5.313090">
        <ele>599.8</ele>
        <time>1970-01-01T00:00:00Z</time>
      </trkpt>
      <trkpt lat="39.386610" lon="-5.312870">
        <ele>598.3</ele>
        <time>1970-01-01T00:00:00Z</time>
      </trkpt>
      <trkpt lat="39.386450" lon="-5.312100">
        <ele>594.1</ele>
        <time>1970-01-01T00:00:00Z</time>
      </trkpt>
      <trkpt lat="39.385640" lon="-5.310900">
        <ele>601.7</ele>
        <time>1970-01-01T00:00:00Z</time>
      </trkpt>
      <trkpt lat="39.385490" lon="-5.310530">
        <ele>606.3</ele>
        <time>1970-01-01T00:00:00Z</time>
      </trkpt>
      <trkpt lat="39.385690" lon="-5.310180">
        <ele>604.0</ele>
        <time>1970-01-01T00:00:00Z</time>
      </trkpt>
      <trkpt lat="39.385950" lon="-5.310080">
        <ele>599.5</ele>
        <time>1970-01-01T00:00:00Z</time>
      </trkpt>
      <trkpt lat="39.386220" lon="-5.309830">
        <ele>595.1</ele>
        <time>1970-01-01T00:00:00Z</time>
      </trkpt>
      <trkpt lat="39.386560" lon="-5.309140">
        <ele>592.0</ele>
        <time>1970-01-01T00:00:00Z</time>
      </trkpt>
      <trkpt lat="39.386600" lon="-5.308610">
        <ele>596.9</ele>
        <time>1970-01-01T00:00:00Z</time>
      </trkpt>
      <trkpt lat="39.386790" lon="-5.307880">
        <ele>595.2</ele>
        <time>1970-01-01T00:00:00Z</time>
      </trkpt>
      <trkpt lat="39.386960" lon="-5.307500">
        <ele>593.0</ele>
        <time>1970-01-01T00:00:00Z</time>
      </trkpt>
      <trkpt lat="39.387160" lon="-5.307100">
        <ele>593.0</ele>
        <time>1970-01-01T00:00:00Z</time>
      </trkpt>
      <trkpt lat="39.387280" lon="-5.306990">
        <ele>591.2</ele>
        <time>1970-01-01T00:00:00Z</time>
      </trkpt>
      <trkpt lat="39.387480" lon="-5.306720">
        <ele>587.3</ele>
        <time>1970-01-01T00:00:00Z</time>
      </trkpt>
      <trkpt lat="39.387470" lon="-5.306230">
        <ele>586.5</ele>
        <time>1970-01-01T00:00:00Z</time>
      </trkpt>
      <trkpt lat="39.387420" lon="-5.305390">
        <ele>583.0</ele>
        <time>1970-01-01T00:00:00Z</time>
      </trkpt>
      <trkpt lat="39.387390" lon="-5.305300">
        <ele>583.5</ele>
        <time>1970-01-01T00:00:00Z</time>
      </trkpt>
      <trkpt lat="39.387220" lon="-5.304870">
        <ele>585.8</ele>
        <time>1970-01-01T00:00:00Z</time>
      </trkpt>
      <trkpt lat="39.387320" lon="-5.304490">
        <ele>584.5</ele>
        <time>1970-01-01T00:00:00Z</time>
      </trkpt>
      <trkpt lat="39.387570" lon="-5.304430">
        <ele>580.8</ele>
        <time>1970-01-01T00:00:00Z</time>
      </trkpt>
      <trkpt lat="39.388360" lon="-5.303950">
        <ele>575.2</ele>
        <time>1970-01-01T00:00:00Z</time>
      </trkpt>
      <trkpt lat="39.388430" lon="-5.303910">
        <ele>574.2</ele>
        <time>1970-01-01T00:00:00Z</time>
      </trkpt>
      <trkpt lat="39.388890" lon="-5.303330">
        <ele>569.6</ele>
        <time>1970-01-01T00:00:00Z</time>
      </trkpt>
      <trkpt lat="39.389090" lon="-5.302960">
        <ele>567.7</ele>
        <time>1970-01-01T00:00:00Z</time>
      </trkpt>
      <trkpt lat="39.389490" lon="-5.302540">
        <ele>560.0</ele>
        <time>1970-01-01T00:00:00Z</time>
      </trkpt>
      <trkpt lat="39.389570" lon="-5.302350">
        <ele>559.4</ele>
        <time>1970-01-01T00:00:00Z</time>
      </trkpt>
      <trkpt lat="39.389760" lon="-5.301990">
        <ele>557.6</ele>
        <time>1970-01-01T00:00:00Z</time>
      </trkpt>
      <trkpt lat="39.390030" lon="-5.301710">
        <ele>557.0</ele>
        <time>1970-01-01T00:00:00Z</time>
      </trkpt>
      <trkpt lat="39.390170" lon="-5.301520">
        <ele>557.8</ele>
        <time>1970-01-01T00:00:00Z</time>
      </trkpt>
      <trkpt lat="39.389990" lon="-5.301260">
        <ele>555.6</ele>
        <time>1970-01-01T00:00:00Z</time>
      </trkpt>
      <trkpt lat="39.389970" lon="-5.301210">
        <ele>555.0</ele>
        <time>1970-01-01T00:00:00Z</time>
      </trkpt>
      <trkpt lat="39.389950" lon="-5.301160">
        <ele>554.4</ele>
        <time>1970-01-01T00:00:00Z</time>
      </trkpt>
      <trkpt lat="39.389790" lon="-5.300910">
        <ele>550.6</ele>
        <time>1970-01-01T00:00:00Z</time>
      </trkpt>
      <trkpt lat="39.389600" lon="-5.300650">
        <ele>545.3</ele>
        <time>1970-01-01T00:00:00Z</time>
      </trkpt>
      <trkpt lat="39.389800" lon="-5.300540">
        <ele>545.2</ele>
        <time>1970-01-01T00:00:00Z</time>
      </trkpt>
      <trkpt lat="39.389860" lon="-5.300310">
        <ele>543.0</ele>
        <time>1970-01-01T00:00:00Z</time>
      </trkpt>
      <trkpt lat="39.389830" lon="-5.300170">
        <ele>541.1</ele>
        <time>1970-01-01T00:00:00Z</time>
      </trkpt>
      <trkpt lat="39.389820" lon="-5.300080">
        <ele>540.0</ele>
        <time>1970-01-01T00:00:00Z</time>
      </trkpt>
      <trkpt lat="39.389790" lon="-5.299770">
        <ele>536.8</ele>
        <time>1970-01-01T00:00:00Z</time>
      </trkpt>
      <trkpt lat="39.389730" lon="-5.298700">
        <ele>528.5</ele>
        <time>1970-01-01T00:00:00Z</time>
      </trkpt>
      <trkpt lat="39.389690" lon="-5.297610">
        <ele>519.7</ele>
        <time>1970-01-01T00:00:00Z</time>
      </trkpt>
      <trkpt lat="39.389680" lon="-5.297460">
        <ele>519.1</ele>
        <time>1970-01-01T00:00:00Z</time>
      </trkpt>
      <trkpt lat="39.389740" lon="-5.297030">
        <ele>517.5</ele>
        <time>1970-01-01T00:00:00Z</time>
      </trkpt>
      <trkpt lat="39.390140" lon="-5.295840">
        <ele>506.6</ele>
        <time>1970-01-01T00:00:00Z</time>
      </trkpt>
      <trkpt lat="39.390350" lon="-5.295040">
        <ele>499.6</ele>
        <time>1970-01-01T00:00:00Z</time>
      </trkpt>
      <trkpt lat="39.390470" lon="-5.294840">
        <ele>497.7</ele>
        <time>1970-01-01T00:00:00Z</time>
      </trkpt>
      <trkpt lat="39.390720" lon="-5.294600">
        <ele>494.5</ele>
        <time>1970-01-01T00:00:00Z</time>
      </trkpt>
      <trkpt lat="39.390760" lon="-5.294560">
        <ele>494.2</ele>
        <time>1970-01-01T00:00:00Z</time>
      </trkpt>
      <trkpt lat="39.390960" lon="-5.294410">
        <ele>494.6</ele>
        <time>1970-01-01T00:00:00Z</time>
      </trkpt>
      <trkpt lat="39.391070" lon="-5.294400">
        <ele>495.4</ele>
        <time>1970-01-01T00:00:00Z</time>
      </trkpt>
      <trkpt lat="39.391190" lon="-5.294380">
        <ele>496.1</ele>
        <time>1970-01-01T00:00:00Z</time>
      </trkpt>
      <trkpt lat="39.391570" lon="-5.294340">
        <ele>498.9</ele>
        <time>1970-01-01T00:00:00Z</time>
      </trkpt>
      <trkpt lat="39.392130" lon="-5.294180">
        <ele>503.2</ele>
        <time>1970-01-01T00:00:00Z</time>
      </trkpt>
      <trkpt lat="39.393040" lon="-5.293960">
        <ele>505.5</ele>
        <time>1970-01-01T00:00:00Z</time>
      </trkpt>
      <trkpt lat="39.393590" lon="-5.293750">
        <ele>506.4</ele>
        <time>1970-01-01T00:00:00Z</time>
      </trkpt>
      <trkpt lat="39.393940" lon="-5.293420">
        <ele>510.4</ele>
        <time>1970-01-01T00:00:00Z</time>
      </trkpt>
      <trkpt lat="39.394050" lon="-5.293210">
        <ele>512.4</ele>
        <time>1970-01-01T00:00:00Z</time>
      </trkpt>
      <trkpt lat="39.394250" lon="-5.292960">
        <ele>515.5</ele>
        <time>1970-01-01T00:00:00Z</time>
      </trkpt>
      <trkpt lat="39.394410" lon="-5.292380">
        <ele>520.3</ele>
        <time>1970-01-01T00:00:00Z</time>
      </trkpt>
      <trkpt lat="39.394470" lon="-5.292040">
        <ele>522.5</ele>
        <time>1970-01-01T00:00:00Z</time>
      </trkpt>
      <trkpt lat="39.394370" lon="-5.291460">
        <ele>524.3</ele>
        <time>1970-01-01T00:00:00Z</time>
      </trkpt>
      <trkpt lat="39.394350" lon="-5.290750">
        <ele>527.3</ele>
        <time>1970-01-01T00:00:00Z</time>
      </trkpt>
      <trkpt lat="39.394500" lon="-5.290600">
        <ele>527.3</ele>
        <time>1970-01-01T00:00:00Z</time>
      </trkpt>
      <trkpt lat="39.395250" lon="-5.289860">
        <ele>532.1</ele>
        <time>1970-01-01T00:00:00Z</time>
      </trkpt>
      <trkpt lat="39.396270" lon="-5.289380">
        <ele>539.0</ele>
        <time>1970-01-01T00:00:00Z</time>
      </trkpt>
      <trkpt lat="39.396640" lon="-5.289190">
        <ele>539.0</ele>
        <time>1970-01-01T00:00:00Z</time>
      </trkpt>
      <trkpt lat="39.396910" lon="-5.288830">
        <ele>538.6</ele>
        <time>1970-01-01T00:00:00Z</time>
      </trkpt>
      <trkpt lat="39.397500" lon="-5.287780">
        <ele>544.6</ele>
        <time>1970-01-01T00:00:00Z</time>
      </trkpt>
      <trkpt lat="39.397610" lon="-5.287590">
        <ele>545.9</ele>
        <time>1970-01-01T00:00:00Z</time>
      </trkpt>
      <trkpt lat="39.397760" lon="-5.287170">
        <ele>548.8</ele>
        <time>1970-01-01T00:00:00Z</time>
      </trkpt>
      <trkpt lat="39.397840" lon="-5.286830">
        <ele>550.4</ele>
        <time>1970-01-01T00:00:00Z</time>
      </trkpt>
      <trkpt lat="39.398200" lon="-5.286330">
        <ele>552.3</ele>
        <time>1970-01-01T00:00:00Z</time>
      </trkpt>
      <trkpt lat="39.398230" lon="-5.286270">
        <ele>552.6</ele>
        <time>1970-01-01T00:00:00Z</time>
      </trkpt>
      <trkpt lat="39.398680" lon="-5.285290">
        <ele>559.4</ele>
        <time>1970-01-01T00:00:00Z</time>
      </trkpt>
      <trkpt lat="39.399000" lon="-5.284900">
        <ele>562.3</ele>
        <time>1970-01-01T00:00:00Z</time>
      </trkpt>
      <trkpt lat="39.399420" lon="-5.284380">
        <ele>562.9</ele>
        <time>1970-01-01T00:00:00Z</time>
      </trkpt>
      <trkpt lat="39.399940" lon="-5.284030">
        <ele>562.5</ele>
        <time>1970-01-01T00:00:00Z</time>
      </trkpt>
      <trkpt lat="39.400170" lon="-5.283860">
        <ele>563.1</ele>
        <time>1970-01-01T00:00:00Z</time>
      </trkpt>
      <trkpt lat="39.400370" lon="-5.283440">
        <ele>560.3</ele>
        <time>1970-01-01T00:00:00Z</time>
      </trkpt>
      <trkpt lat="39.400530" lon="-5.283110">
        <ele>558.2</ele>
        <time>1970-01-01T00:00:00Z</time>
      </trkpt>
      <trkpt lat="39.400840" lon="-5.282340">
        <ele>550.1</ele>
        <time>1970-01-01T00:00:00Z</time>
      </trkpt>
      <trkpt lat="39.401190" lon="-5.282060">
        <ele>546.4</ele>
        <time>1970-01-01T00:00:00Z</time>
      </trkpt>
      <trkpt lat="39.401490" lon="-5.282020">
        <ele>547.7</ele>
        <time>1970-01-01T00:00:00Z</time>
      </trkpt>
      <trkpt lat="39.401820" lon="-5.282210">
        <ele>552.2</ele>
        <time>1970-01-01T00:00:00Z</time>
      </trkpt>
      <trkpt lat="39.401970" lon="-5.282440">
        <ele>556.3</ele>
        <time>1970-01-01T00:00:00Z</time>
      </trkpt>
      <trkpt lat="39.402000" lon="-5.282670">
        <ele>558.5</ele>
        <time>1970-01-01T00:00:00Z</time>
      </trkpt>
      <trkpt lat="39.402100" lon="-5.282940">
        <ele>559.9</ele>
        <time>1970-01-01T00:00:00Z</time>
      </trkpt>
      <trkpt lat="39.402150" lon="-5.283390">
        <ele>563.7</ele>
        <time>1970-01-01T00:00:00Z</time>
      </trkpt>
      <trkpt lat="39.402200" lon="-5.283670">
        <ele>566.3</ele>
        <time>1970-01-01T00:00:00Z</time>
      </trkpt>
      <trkpt lat="39.402290" lon="-5.283860">
        <ele>568.7</ele>
        <time>1970-01-01T00:00:00Z</time>
      </trkpt>
      <trkpt lat="39.402790" lon="-5.284490">
        <ele>575.3</ele>
        <time>1970-01-01T00:00:00Z</time>
      </trkpt>
      <trkpt lat="39.403230" lon="-5.284970">
        <ele>582.5</ele>
        <time>1970-01-01T00:00:00Z</time>
      </trkpt>
      <trkpt lat="39.403370" lon="-5.285110">
        <ele>585.0</ele>
        <time>1970-01-01T00:00:00Z</time>
      </trkpt>
      <trkpt lat="39.403470" lon="-5.285200">
        <ele>586.9</ele>
        <time>1970-01-01T00:00:00Z</time>
      </trkpt>
      <trkpt lat="39.403550" lon="-5.285270">
        <ele>587.8</ele>
        <time>1970-01-01T00:00:00Z</time>
      </trkpt>
      <trkpt lat="39.404020" lon="-5.285470">
        <ele>591.7</ele>
        <time>1970-01-01T00:00:00Z</time>
      </trkpt>
      <trkpt lat="39.404670" lon="-5.285820">
        <ele>593.8</ele>
        <time>1970-01-01T00:00:00Z</time>
      </trkpt>
      <trkpt lat="39.405490" lon="-5.286120">
        <ele>597.2</ele>
        <time>1970-01-01T00:00:00Z</time>
      </trkpt>
      <trkpt lat="39.406220" lon="-5.286640">
        <ele>597.6</ele>
        <time>1970-01-01T00:00:00Z</time>
      </trkpt>
      <trkpt lat="39.406730" lon="-5.287090">
        <ele>596.9</ele>
        <time>1970-01-01T00:00:00Z</time>
      </trkpt>
      <trkpt lat="39.407730" lon="-5.287830">
        <ele>599.0</ele>
        <time>1970-01-01T00:00:00Z</time>
      </trkpt>
      <trkpt lat="39.408420" lon="-5.288620">
        <ele>600.0</ele>
        <time>1970-01-01T00:00:00Z</time>
      </trkpt>
      <trkpt lat="39.409100" lon="-5.289390">
        <ele>601.2</ele>
        <time>1970-01-01T00:00:00Z</time>
      </trkpt>
      <trkpt lat="39.409460" lon="-5.289750">
        <ele>602.0</ele>
        <time>1970-01-01T00:00:00Z</time>
      </trkpt>
      <trkpt lat="39.409760" lon="-5.289860">
        <ele>602.2</ele>
        <time>1970-01-01T00:00:00Z</time>
      </trkpt>
      <trkpt lat="39.410790" lon="-5.290140">
        <ele>610.2</ele>
        <time>1970-01-01T00:00:00Z</time>
      </trkpt>
      <trkpt lat="39.410880" lon="-5.290180">
        <ele>611.0</ele>
        <time>1970-01-01T00:00:00Z</time>
      </trkpt>
      <trkpt lat="39.411860" lon="-5.290760">
        <ele>618.0</ele>
        <time>1970-01-01T00:00:00Z</time>
      </trkpt>
      <trkpt lat="39.413100" lon="-5.291220">
        <ele>622.7</ele>
        <time>1970-01-01T00:00:00Z</time>
      </trkpt>
      <trkpt lat="39.414370" lon="-5.291680">
        <ele>624.6</ele>
        <time>1970-01-01T00:00:00Z</time>
      </trkpt>
      <trkpt lat="39.415400" lon="-5.292150">
        <ele>629.3</ele>
        <time>1970-01-01T00:00:00Z</time>
      </trkpt>
      <trkpt lat="39.416720" lon="-5.293020">
        <ele>631.1</ele>
        <time>1970-01-01T00:00:00Z</time>
      </trkpt>
      <trkpt lat="39.418140" lon="-5.293670">
        <ele>633.9</ele>
        <time>1970-01-01T00:00:00Z</time>
      </trkpt>
      <trkpt lat="39.419190" lon="-5.294220">
        <ele>638.0</ele>
        <time>1970-01-01T00:00:00Z</time>
      </trkpt>
      <trkpt lat="39.420020" lon="-5.294830">
        <ele>632.4</ele>
        <time>1970-01-01T00:00:00Z</time>
      </trkpt>
      <trkpt lat="39.420980" lon="-5.295660">
        <ele>636.4</ele>
        <time>1970-01-01T00:00:00Z</time>
      </trkpt>
      <trkpt lat="39.421480" lon="-5.295990">
        <ele>639.1</ele>
        <time>1970-01-01T00:00:00Z</time>
      </trkpt>
      <trkpt lat="39.422100" lon="-5.296820">
        <ele>639.0</ele>
        <time>1970-01-01T00:00:00Z</time>
      </trkpt>
      <trkpt lat="39.422540" lon="-5.297290">
        <ele>635.5</ele>
        <time>1970-01-01T00:00:00Z</time>
      </trkpt>
      <trkpt lat="39.423675" lon="-5.297568">
        <ele>624.9</ele>
        <time>1970-01-01T00:00:00Z</time>
      </trkpt>
      <trkpt lat="39.424958" lon="-5.297610">
        <ele>610.9</ele>
        <time>1970-01-01T00:00:00Z</time>
      </trkpt>
      <trkpt lat="39.424979" lon="-5.297599">
        <ele>610.5</ele>
        <time>1970-01-01T00:00:00Z</time>
      </trkpt>
      <trkpt lat="39.425343" lon="-5.298007">
        <ele>611.1</ele>
        <time>1970-01-01T00:00:00Z</time>
      </trkpt>
      <trkpt lat="39.425774" lon="-5.298457">
        <ele>614.1</ele>
        <time>1970-01-01T00:00:00Z</time>
      </trkpt>
      <trkpt lat="39.426636" lon="-5.298522">
        <ele>613.2</ele>
        <time>1970-01-01T00:00:00Z</time>
      </trkpt>
      <trkpt lat="39.427167" lon="-5.298843">
        <ele>616.3</ele>
        <time>1970-01-01T00:00:00Z</time>
      </trkpt>
      <trkpt lat="39.427829" lon="-5.299187">
        <ele>613.0</ele>
        <time>1970-01-01T00:00:00Z</time>
      </trkpt>
      <trkpt lat="39.428691" lon="-5.299079">
        <ele>605.5</ele>
        <time>1970-01-01T00:00:00Z</time>
      </trkpt>
      <trkpt lat="39.429305" lon="-5.299380">
        <ele>597.6</ele>
        <time>1970-01-01T00:00:00Z</time>
      </trkpt>
      <trkpt lat="39.429918" lon="-5.300002">
        <ele>590.8</ele>
        <time>1970-01-01T00:00:00Z</time>
      </trkpt>
      <trkpt lat="39.430133" lon="-5.300624">
        <ele>590.8</ele>
        <time>1970-01-01T00:00:00Z</time>
      </trkpt>
      <trkpt lat="39.430614" lon="-5.301504">
        <ele>587.9</ele>
        <time>1970-01-01T00:00:00Z</time>
      </trkpt>
      <trkpt lat="39.431211" lon="-5.301912">
        <ele>586.9</ele>
        <time>1970-01-01T00:00:00Z</time>
      </trkpt>
      <trkpt lat="39.432255" lon="-5.302470">
        <ele>585.2</ele>
        <time>1970-01-01T00:00:00Z</time>
      </trkpt>
      <trkpt lat="39.432818" lon="-5.303028">
        <ele>585.5</ele>
        <time>1970-01-01T00:00:00Z</time>
      </trkpt>
      <trkpt lat="39.433365" lon="-5.303757">
        <ele>586.3</ele>
        <time>1970-01-01T00:00:00Z</time>
      </trkpt>
      <trkpt lat="39.433779" lon="-5.304229">
        <ele>582.6</ele>
        <time>1970-01-01T00:00:00Z</time>
      </trkpt>
      <trkpt lat="39.434343" lon="-5.305367">
        <ele>576.3</ele>
        <time>1970-01-01T00:00:00Z</time>
      </trkpt>
      <trkpt lat="39.434343" lon="-5.306225">
        <ele>577.5</ele>
        <time>1970-01-01T00:00:00Z</time>
      </trkpt>
      <trkpt lat="39.434210" lon="-5.306660">
        <ele>579.5</ele>
        <time>1970-01-01T00:00:00Z</time>
      </trkpt>
      <trkpt lat="39.434310" lon="-5.307070">
        <ele>579.7</ele>
        <time>1970-01-01T00:00:00Z</time>
      </trkpt>
      <trkpt lat="39.435210" lon="-5.307710">
        <ele>576.3</ele>
        <time>1970-01-01T00:00:00Z</time>
      </trkpt>
      <trkpt lat="39.436260" lon="-5.308250">
        <ele>578.6</ele>
        <time>1970-01-01T00:00:00Z</time>
      </trkpt>
      <trkpt lat="39.437270" lon="-5.308840">
        <ele>582.8</ele>
        <time>1970-01-01T00:00:00Z</time>
      </trkpt>
      <trkpt lat="39.438120" lon="-5.309260">
        <ele>577.5</ele>
        <time>1970-01-01T00:00:00Z</time>
      </trkpt>
      <trkpt lat="39.439100" lon="-5.309370">
        <ele>565.2</ele>
        <time>1970-01-01T00:00:00Z</time>
      </trkpt>
      <trkpt lat="39.439410" lon="-5.309310">
        <ele>557.9</ele>
        <time>1970-01-01T00:00:00Z</time>
      </trkpt>
      <trkpt lat="39.439910" lon="-5.309410">
        <ele>543.3</ele>
        <time>1970-01-01T00:00:00Z</time>
      </trkpt>
      <trkpt lat="39.439880" lon="-5.309930">
        <ele>540.7</ele>
        <time>1970-01-01T00:00:00Z</time>
      </trkpt>
      <trkpt lat="39.439650" lon="-5.310130">
        <ele>543.6</ele>
        <time>1970-01-01T00:00:00Z</time>
      </trkpt>
      <trkpt lat="39.439000" lon="-5.310420">
        <ele>554.9</ele>
        <time>1970-01-01T00:00:00Z</time>
      </trkpt>
      <trkpt lat="39.438690" lon="-5.310840">
        <ele>553.8</ele>
        <time>1970-01-01T00:00:00Z</time>
      </trkpt>
      <trkpt lat="39.438600" lon="-5.311740">
        <ele>537.4</ele>
        <time>1970-01-01T00:00:00Z</time>
      </trkpt>
      <trkpt lat="39.438460" lon="-5.312250">
        <ele>534.5</ele>
        <time>1970-01-01T00:00:00Z</time>
      </trkpt>
      <trkpt lat="39.438680" lon="-5.312230">
        <ele>530.4</ele>
        <time>1970-01-01T00:00:00Z</time>
      </trkpt>
      <trkpt lat="39.438710" lon="-5.312170">
        <ele>530.2</ele>
        <time>1970-01-01T00:00:00Z</time>
      </trkpt>
      <trkpt lat="39.438900" lon="-5.311730">
        <ele>531.4</ele>
        <time>1970-01-01T00:00:00Z</time>
      </trkpt>
      <trkpt lat="39.438945" lon="-5.312128">
        <ele>526.8</ele>
        <time>1970-01-01T00:00:00Z</time>
      </trkpt>
      <trkpt lat="39.439048" lon="-5.312369">
        <ele>525.6</ele>
        <time>1970-01-01T00:00:00Z</time>
      </trkpt>
      <trkpt lat="39.439038" lon="-5.312636">
        <ele>524.9</ele>
        <time>1970-01-01T00:00:00Z</time>
      </trkpt>
      <trkpt lat="39.439224" lon="-5.312596">
        <ele>524.1</ele>
        <time>1970-01-01T00:00:00Z</time>
      </trkpt>
      <trkpt lat="39.439940" lon="-5.311940">
        <ele>521.2</ele>
        <time>1970-01-01T00:00:00Z</time>
      </trkpt>
      <trkpt lat="39.440206" lon="-5.312117">
        <ele>520.8</ele>
        <time>1970-01-01T00:00:00Z</time>
      </trkpt>
      <trkpt lat="39.440219" lon="-5.312147">
        <ele>521.0</ele>
        <time>1970-01-01T00:00:00Z</time>
      </trkpt>
      <trkpt lat="39.440255" lon="-5.312142">
        <ele>520.8</ele>
        <time>1970-01-01T00:00:00Z</time>
      </trkpt>
      <trkpt lat="39.440308" lon="-5.312225">
        <ele>521.3</ele>
        <time>1970-01-01T00:00:00Z</time>
      </trkpt>
      <trkpt lat="39.440423" lon="-5.312304">
        <ele>521.6</ele>
        <time>1970-01-01T00:00:00Z</time>
      </trkpt>
      <trkpt lat="39.440620" lon="-5.312480">
        <ele>522.6</ele>
        <time>1970-01-01T00:00:00Z</time>
      </trkpt>
      <trkpt lat="39.440670" lon="-5.312610">
        <ele>523.2</ele>
        <time>1970-01-01T00:00:00Z</time>
      </trkpt>
      <trkpt lat="39.440830" lon="-5.313370">
        <ele>527.2</ele>
        <time>1970-01-01T00:00:00Z</time>
      </trkpt>
      <trkpt lat="39.440860" lon="-5.313640">
        <ele>527.0</ele>
        <time>1970-01-01T00:00:00Z</time>
      </trkpt>
      <trkpt lat="39.440790" lon="-5.314140">
        <ele>527.6</ele>
        <time>1970-01-01T00:00:00Z</time>
      </trkpt>
      <trkpt lat="39.440440" lon="-5.315240">
        <ele>527.5</ele>
        <time>1970-01-01T00:00:00Z</time>
      </trkpt>
      <trkpt lat="39.440370" lon="-5.315380">
        <ele>527.3</ele>
        <time>1970-01-01T00:00:00Z</time>
      </trkpt>
      <trkpt lat="39.440360" lon="-5.315360">
        <ele>527.6</ele>
        <time>1970-01-01T00:00:00Z</time>
      </trkpt>
      <trkpt lat="39.440300" lon="-5.315530">
        <ele>527.2</ele>
        <time>1970-01-01T00:00:00Z</time>
      </trkpt>
      <trkpt lat="39.440250" lon="-5.315720">
        <ele>527.0</ele>
        <time>1970-01-01T00:00:00Z</time>
      </trkpt>
      <trkpt lat="39.440220" lon="-5.315940">
        <ele>526.7</ele>
        <time>1970-01-01T00:00:00Z</time>
      </trkpt>
      <trkpt lat="39.440460" lon="-5.316270">
        <ele>524.4</ele>
        <time>1970-01-01T00:00:00Z</time>
      </trkpt>
      <trkpt lat="39.441090" lon="-5.316730">
        <ele>525.8</ele>
        <time>1970-01-01T00:00:00Z</time>
      </trkpt>
      <trkpt lat="39.441870" lon="-5.317010">
        <ele>527.5</ele>
        <time>1970-01-01T00:00:00Z</time>
      </trkpt>
      <trkpt lat="39.442150" lon="-5.317110">
        <ele>528.4</ele>
        <time>1970-01-01T00:00:00Z</time>
      </trkpt>
      <trkpt lat="39.442570" lon="-5.317200">
        <ele>528.9</ele>
        <time>1970-01-01T00:00:00Z</time>
      </trkpt>
      <trkpt lat="39.442580" lon="-5.317190">
        <ele>528.8</ele>
        <time>1970-01-01T00:00:00Z</time>
      </trkpt>
      <trkpt lat="39.442770" lon="-5.317200">
        <ele>529.2</ele>
        <time>1970-01-01T00:00:00Z</time>
      </trkpt>
      <trkpt lat="39.442930" lon="-5.317290">
        <ele>530.0</ele>
        <time>1970-01-01T00:00:00Z</time>
      </trkpt>
      <trkpt lat="39.443070" lon="-5.317410">
        <ele>530.6</ele>
        <time>1970-01-01T00:00:00Z</time>
      </trkpt>
      <trkpt lat="39.443190" lon="-5.317580">
        <ele>531.1</ele>
        <time>1970-01-01T00:00:00Z</time>
      </trkpt>
      <trkpt lat="39.443580" lon="-5.318700">
        <ele>533.7</ele>
        <time>1970-01-01T00:00:00Z</time>
      </trkpt>
      <trkpt lat="39.443600" lon="-5.318970">
        <ele>534.3</ele>
        <time>1970-01-01T00:00:00Z</time>
      </trkpt>
      <trkpt lat="39.443630" lon="-5.319010">
        <ele>534.1</ele>
        <time>1970-01-01T00:00:00Z</time>
      </trkpt>
      <trkpt lat="39.443800" lon="-5.319290">
        <ele>535.0</ele>
        <time>1970-01-01T00:00:00Z</time>
      </trkpt>
      <trkpt lat="39.443920" lon="-5.319570">
        <ele>535.2</ele>
        <time>1970-01-01T00:00:00Z</time>
      </trkpt>
      <trkpt lat="39.444070" lon="-5.320290">
        <ele>539.0</ele>
        <time>1970-01-01T00:00:00Z</time>
      </trkpt>
      <trkpt lat="39.444280" lon="-5.320700">
        <ele>540.6</ele>
        <time>1970-01-01T00:00:00Z</time>
      </trkpt>
      <trkpt lat="39.444460" lon="-5.321000">
        <ele>541.4</ele>
        <time>1970-01-01T00:00:00Z</time>
      </trkpt>
      <trkpt lat="39.445480" lon="-5.322575">
        <ele>551.1</ele>
        <time>1970-01-01T00:00:00Z</time>
      </trkpt>
      <trkpt lat="39.445701" lon="-5.323001">
        <ele>549.3</ele>
        <time>1970-01-01T00:00:00Z</time>
      </trkpt>
      <trkpt lat="39.446291" lon="-5.324121">
        <ele>542.1</ele>
        <time>1970-01-01T00:00:00Z</time>
      </trkpt>
      <trkpt lat="39.446291" lon="-5.324829">
        <ele>541.9</ele>
        <time>1970-01-01T00:00:00Z</time>
      </trkpt>
      <trkpt lat="39.445777" lon="-5.325000">
        <ele>540.9</ele>
        <time>1970-01-01T00:00:00Z</time>
      </trkpt>
      <trkpt lat="39.445910" lon="-5.325365">
        <ele>539.2</ele>
        <time>1970-01-01T00:00:00Z</time>
      </trkpt>
      <trkpt lat="39.445860" lon="-5.325515">
        <ele>539.5</ele>
        <time>1970-01-01T00:00:00Z</time>
      </trkpt>
      <trkpt lat="39.446225" lon="-5.325794">
        <ele>547.4</ele>
        <time>1970-01-01T00:00:00Z</time>
      </trkpt>
      <trkpt lat="39.446076" lon="-5.326009">
        <ele>545.7</ele>
        <time>1970-01-01T00:00:00Z</time>
      </trkpt>
      <trkpt lat="39.446109" lon="-5.326695">
        <ele>552.4</ele>
        <time>1970-01-01T00:00:00Z</time>
      </trkpt>
      <trkpt lat="39.446887" lon="-5.327425">
        <ele>573.9</ele>
        <time>1970-01-01T00:00:00Z</time>
      </trkpt>
      <trkpt lat="39.447965" lon="-5.327253">
        <ele>587.3</ele>
        <time>1970-01-01T00:00:00Z</time>
      </trkpt>
      <trkpt lat="39.448578" lon="-5.326889">
        <ele>596.7</ele>
        <time>1970-01-01T00:00:00Z</time>
      </trkpt>
      <trkpt lat="39.448992" lon="-5.326631">
        <ele>605.1</ele>
        <time>1970-01-01T00:00:00Z</time>
      </trkpt>
      <trkpt lat="39.449688" lon="-5.326610">
        <ele>615.0</ele>
        <time>1970-01-01T00:00:00Z</time>
      </trkpt>
      <trkpt lat="39.450069" lon="-5.326889">
        <ele>620.2</ele>
        <time>1970-01-01T00:00:00Z</time>
      </trkpt>
      <trkpt lat="39.450384" lon="-5.327146">
        <ele>624.8</ele>
        <time>1970-01-01T00:00:00Z</time>
      </trkpt>
      <trkpt lat="39.450533" lon="-5.327554">
        <ele>624.3</ele>
        <time>1970-01-01T00:00:00Z</time>
      </trkpt>
      <trkpt lat="39.451113" lon="-5.327983">
        <ele>627.4</ele>
        <time>1970-01-01T00:00:00Z</time>
      </trkpt>
      <trkpt lat="39.451709" lon="-5.327725">
        <ele>639.7</ele>
        <time>1970-01-01T00:00:00Z</time>
      </trkpt>
      <trkpt lat="39.452007" lon="-5.327318">
        <ele>648.1</ele>
        <time>1970-01-01T00:00:00Z</time>
      </trkpt>
      <trkpt lat="39.452256" lon="-5.327060">
        <ele>652.4</ele>
        <time>1970-01-01T00:00:00Z</time>
      </trkpt>
    </trkseg>
  </trk>
</gpx>
